GFSSGP_850_thetae_000.txt.gz
Theta_e
310 311 314 316 311 307 311 312 312 317 335 334 333 331 332 336 333 330 335 335 324 321 323 328 332 333 334 337 338 338 336 336 336 335 333 332 331 327 330 332 327 324 324 324 326 328 327 325 325
311 312 314 314 309 310 312 312 326 325 335 335 335 335 336 338 338 336 335 335 330 321 319 322 324 326 327 329 329 330 329 332 331 325 323 325 332 329 326 325 323 323 324 327 328 326 324 326 327
314 314 313 307 306 311 315 314 329 333 332 331 336 337 337 339 337 337 337 335 333 324 321 319 318 319 320 320 320 319 321 323 324 320 319 320 324 331 332 331 329 327 325 325 324 323 325 326 324
314 313 312 308 311 312 314 315 330 329 331 335 337 334 337 338 337 335 333 329 327 322 321 320 319 317 316 315 315 315 316 316 317 317 317 317 316 319 320 318 315 315 321 326 327 325 324 324 325
313 312 306 308 311 312 315 319 322 323 326 328 331 334 336 337 333 334 329 324 321 319 319 317 316 315 315 314 315 315 316 317 317 317 317 317 319 319 318 318 318 317 319 321 324 326 325 324 326
312 310 306 308 310 310 312 318 322 323 325 329 331 333 335 334 330 332 330 324 321 318 317 317 319 318 317 316 317 318 318 319 318 318 318 320 319 319 317 316 315 317 317 319 319 319 316 314 316
308 304 307 308 309 311 311 312 312 315 318 322 328 332 334 337 334 333 332 327 325 321 319 320 320 319 319 317 318 319 320 318 318 318 318 318 318 317 317 315 312 312 312 313 317 318 318 319 319
312 304 308 308 308 310 310 313 313 314 316 324 326 332 333 333 335 335 333 331 329 326 326 324 323 319 316 315 316 318 322 322 320 319 318 317 317 317 315 312 308 308 309 310 311 312 311 312 313
312 305 307 310 310 312 311 312 313 315 319 317 323 323 326 330 335 336 336 333 331 329 328 328 325 319 315 314 313 315 317 320 322 322 319 316 316 316 311 309 308 309 310 310 309 308 308 309 312
308 306 311 310 309 311 312 312 312 314 319 322 322 323 327 332 334 335 335 333 329 328 327 329 324 318 315 314 313 313 312 313 317 318 319 316 314 312 310 308 308 309 309 309 309 306 307 309 310
312 311 311 314 313 312 313 314 314 313 314 320 318 323 328 333 334 335 333 331 326 329 330 330 324 318 315 315 315 313 312 315 317 320 317 315 313 312 309 309 310 310 308 307 309 307 306 309 309
313 313 313 315 315 314 313 314 314 313 315 316 318 320 324 329 330 333 333 329 329 329 331 331 321 316 314 314 314 313 313 317 321 323 321 317 314 312 311 310 309 309 309 309 308 307 306 307 307
315 314 315 316 315 315 315 314 314 315 316 315 317 323 324 323 323 327 329 327 329 329 329 329 318 314 314 314 313 313 315 318 320 321 320 319 318 316 315 309 307 308 308 308 309 309 307 306 304
317 316 316 316 316 316 316 315 315 316 316 315 316 320 323 323 321 323 325 325 327 326 327 323 315 314 314 313 313 313 313 314 315 316 317 318 316 312 309 307 307 307 308 308 308 308 306 305 304
316 316 312 313 314 315 315 312 312 315 315 315 315 320 322 322 322 322 322 323 323 322 326 318 315 314 313 312 312 312 311 311 311 312 313 313 312 310 309 308 307 307 307 307 307 306 305 304 304
311 310 312 312 313 313 312 312 311 314 316 317 314 316 322 322 324 325 322 320 320 322 321 316 315 313 312 312 312 311 311 311 310 310 309 309 308 308 308 307 306 307 307 305 304 304 304 304 305
308 311 312 312 313 314 313 312 312 314 315 317 315 314 320 325 325 319 317 318 320 321 318 315 314 312 312 313 313 312 311 311 311 311 310 309 308 308 308 307 306 307 307 306 305 305 305 306 306
313 312 312 312 312 313 314 312 311 313 314 314 313 313 316 317 316 316 316 316 317 317 315 315 313 312 314 313 313 312 312 312 312 311 311 311 310 309 308 307 307 307 307 306 306 305 305 305 305
313 313 314 313 313 314 314 312 310 309 311 311 311 311 313 314 315 315 315 315 315 315 315 314 313 314 314 313 313 313 312 312 312 312 311 311 311 310 309 308 308 307 307 306 306 306 306 305 305
313 315 312 312 312 314 314 313 309 310 310 310 311 314 315 316 315 315 315 315 314 314 314 313 313 313 313 313 312 312 312 312 312 312 312 312 311 310 310 309 309 308 307 307 306 306 306 306 305
313 314 314 314 312 313 312 313 311 311 313 313 313 314 315 315 315 315 314 314 314 314 314 313 313 313 313 312 312 311 311 312 312 312 311 311 309 309 309 310 309 307 307 307 306 307 306 306 306
315 312 313 313 316 317 312 315 313 310 312 311 312 314 314 314 314 314 315 315 314 314 313 313 313 313 313 312 313 312 312 311 311 310 309 309 308 308 308 308 309 309 307 307 306 307 307 306 305
315 313 314 315 315 315 314 313 313 310 312 312 312 313 314 314 314 315 314 314 313 313 313 313 313 313 313 313 312 311 311 310 310 309 308 307 306 306 306 307 306 306 307 306 306 308 305 306 305
313 314 312 312 313 316 315 314 313 312 312 311 312 313 314 314 314 314 313 313 313 314 314 314 313 312 312 311 311 310 308 308 307 305 304 303 303 304 304 304 303 304 305 305 305 305 304 302 300
313 311 311 313 312 316 315 314 312 313 312 313 313 314 314 313 313 313 313 314 314 313 312 311 311 311 310 309 309 308 307 305 303 302 301 301 302 303 302 302 302 304 303 302 303 301 299 297 298
316 314 311 314 313 314 313 316 315 313 312 313 313 312 314 314 315 314 314 313 312 312 311 311 310 309 308 307 305 304 303 302 301 300 300 300 302 302 301 301 302 302 301 299 298 298 298 297 298
317 315 313 312 302 309 314 315 313 312 312 314 312 312 312 312 312 312 312 312 312 312 312 310 307 306 305 304 303 303 302 301 300 300 299 301 302 301 300 300 299 298 297 297 299 299 298 298 296
314 313 314 311 312 316 316 315 315 314 312 310 309 310 312 312 312 312 312 312 312 311 308 307 306 304 304 303 302 302 302 300 299 299 300 301 300 299 298 297 297 297 297 298 299 297 293 292 292
315 314 313 314 312 312 312 314 312 312 311 309 310 312 312 312 312 311 311 312 312 309 307 307 304 302 301 302 303 303 301 299 298 299 299 299 297 296 296 296 296 296 295 293 291 292 291 291 290
314 314 312 309 312 310 308 313 312 312 311 311 311 312 312 311 311 310 311 311 311 307 308 307 304 304 304 304 303 301 299 298 299 298 297 296 295 295 294 295 295 292 292 291 290 290 291 290 289

GFSSGP_850_thetae_003.txt.gz
Theta_e
310 312 314 316 317 316 315 316 313 332 335 334 333 332 335 336 334 336 335 334 321 323 328 332 334 334 334 336 338 337 334 335 335 333 331 331 329 329 331 334 332 327 324 324 324 327 327 327 326
311 313 314 314 317 320 322 318 320 334 336 334 335 336 337 337 338 334 333 328 320 321 323 326 325 327 330 329 326 326 330 332 329 323 323 327 329 329 328 327 325 324 324 326 327 326 324 324 327
314 314 314 314 314 318 327 323 336 335 331 334 336 336 337 339 335 333 333 327 321 319 319 319 320 320 318 316 316 317 320 324 327 322 322 321 322 327 331 331 331 328 324 323 323 324 324 326 326
314 313 312 320 317 315 324 329 336 333 330 336 335 335 337 338 335 335 332 327 321 319 318 317 316 315 316 317 318 318 318 320 321 320 319 318 320 322 324 322 317 315 316 319 323 327 326 325 324
313 312 316 319 319 319 319 323 332 329 328 332 332 336 335 338 336 329 326 322 318 317 315 315 316 316 316 316 317 317 318 318 318 318 318 318 319 319 319 318 319 320 322 322 322 322 323 320 317
312 311 318 320 317 312 317 320 323 324 327 331 334 334 335 333 333 327 323 321 318 316 316 317 317 316 316 315 316 317 318 319 318 318 317 317 318 319 318 317 315 312 312 313 316 318 318 318 318
311 311 311 311 312 312 313 311 317 322 323 322 328 332 335 332 332 329 324 321 319 319 319 320 318 317 316 316 316 318 320 319 318 318 317 317 316 317 317 316 311 308 308 310 311 312 313 313 315
311 311 310 310 311 312 310 312 312 315 320 327 327 330 335 331 334 332 327 324 324 325 324 322 321 318 316 315 314 314 315 319 319 319 318 316 315 316 316 312 310 308 309 310 310 309 308 309 310
312 313 312 310 311 312 310 312 312 317 321 317 321 324 325 332 335 334 331 329 329 328 326 327 324 318 314 313 312 309 309 312 314 316 319 316 314 314 314 309 308 308 309 310 310 310 307 306 308
311 313 312 310 310 313 312 311 312 314 317 320 322 322 327 332 334 334 333 331 328 328 327 328 325 318 314 313 312 310 309 311 314 317 316 318 316 313 311 309 308 309 310 310 308 308 309 306 308
312 314 312 312 312 313 313 314 313 314 317 317 319 321 327 332 335 333 331 328 326 328 328 329 327 317 314 314 314 312 311 312 314 316 317 316 314 312 311 309 310 310 309 310 309 309 308 306 308
315 312 314 314 314 314 314 314 313 313 315 315 316 320 324 330 331 332 332 329 327 328 329 331 326 314 313 313 313 313 313 314 316 316 316 317 318 317 316 315 313 308 307 308 309 309 309 309 307
316 314 314 315 314 314 314 314 314 314 315 315 316 320 323 325 325 327 327 329 328 329 330 331 324 314 313 312 312 313 313 313 314 314 315 316 315 315 314 310 308 308 307 307 308 308 308 307 306
315 315 314 315 315 315 315 314 314 315 315 315 314 319 322 323 322 324 329 329 326 326 329 330 319 313 312 312 312 312 311 311 311 311 311 312 313 312 311 310 308 307 307 307 307 307 307 306 305
315 315 313 313 312 314 312 316 315 314 315 314 313 316 322 324 323 321 323 326 325 325 326 327 315 312 311 312 312 312 311 311 311 310 310 309 309 308 308 308 307 307 307 307 307 306 305 304 304
313 313 316 314 315 315 315 318 316 313 313 315 316 313 320 325 324 322 323 324 325 325 325 324 313 312 311 313 313 312 311 311 311 310 310 310 310 309 308 308 308 307 306 307 307 306 305 304 304
313 314 314 315 312 315 317 318 316 314 313 315 315 315 313 322 325 327 327 326 320 321 323 317 312 311 313 314 313 313 313 313 312 311 311 310 310 310 309 309 309 308 307 307 307 307 306 306 305
315 314 314 314 314 316 316 317 315 310 310 312 313 313 312 319 324 325 318 317 317 321 323 316 312 312 314 314 313 313 312 312 311 311 311 310 310 310 310 310 310 309 308 308 308 307 307 306 306
313 313 315 314 313 316 315 315 314 311 312 311 311 312 312 316 316 316 315 315 316 320 319 314 313 314 314 313 312 312 312 312 312 311 311 311 311 311 310 310 310 310 309 308 307 307 307 307 306
313 314 313 314 313 316 316 316 313 312 312 311 313 313 314 315 315 315 315 315 315 315 315 314 313 313 312 312 311 311 311 311 312 312 311 311 311 310 309 309 308 309 309 310 308 307 308 308 307
314 314 314 315 314 314 314 317 316 313 312 313 314 314 315 315 315 315 315 314 314 314 314 313 313 312 312 312 312 312 312 312 312 311 311 311 309 308 307 306 306 307 306 307 309 309 307 308 308
316 312 314 315 317 320 313 320 317 313 313 313 313 314 314 314 314 314 314 314 313 313 313 312 312 313 313 312 312 312 311 310 309 308 306 306 305 304 303 302 303 304 304 304 305 306 306 306 308
317 313 315 315 317 317 318 318 318 314 315 313 312 312 313 313 313 313 313 313 312 312 312 313 313 312 312 311 311 310 309 308 306 305 304 303 301 300 300 300 301 302 302 302 302 303 304 304 305
314 315 314 314 316 321 317 317 318 317 314 314 313 312 313 313 312 313 312 313 313 313 313 312 311 311 311 310 308 307 306 305 303 302 301 300 299 299 299 300 301 301 301 302 302 302 302 302 302
316 315 319 323 323 323 315 316 316 315 312 312 312 312 313 313 314 312 313 313 312 312 312 312 311 310 309 309 307 305 303 302 301 300 298 298 298 298 300 301 301 300 301 301 299 298 298 298 298
317 316 320 318 321 320 315 318 317 314 313 312 311 311 312 312 312 313 313 312 312 312 311 311 310 309 310 308 306 303 301 300 299 298 298 298 298 299 301 300 299 299 298 297 298 298 298 298 297
317 319 314 315 306 319 317 317 314 313 313 313 310 311 312 312 312 312 312 311 311 312 312 311 310 308 305 301 301 301 302 301 299 298 298 298 299 300 299 298 297 297 297 297 296 296 297 298 295
316 314 318 318 320 319 318 317 318 315 315 312 311 312 312 312 312 311 311 311 311 311 311 308 307 305 303 303 304 304 302 300 298 298 298 298 299 298 297 296 295 293 292 292 292 292 292 291 291
317 317 315 316 317 321 320 318 315 315 314 314 312 312 312 312 312 311 310 310 310 311 309 307 307 308 305 305 305 302 300 298 297 297 297 297 297 296 294 294 293 294 295 296 292 291 291 290 290
314 315 313 316 314 316 315 316 312 313 313 312 312 311 312 312 312 311 310 310 310 310 309 306 308 306 305 304 301 299 298 297 297 297 296 296 296 293 293 293 293 294 294 291 291 291 291 290 290

GFSSGP_850_thetae_006.txt.gz
Theta_e
311 312 314 317 322 325 327 328 332 338 337 336 335 333 337 338 337 341 336 333 330 336 338 335 333 334 334 336 338 337 336 336 334 332 332 332 331 332 333 333 332 331 327 324 324 325 327 326 327
311 313 315 318 323 324 327 328 332 335 336 334 334 335 334 336 337 336 334 328 329 332 337 337 332 333 335 336 336 335 334 335 332 331 331 330 330 329 330 330 329 326 326 328 328 326 324 324 324
313 314 318 322 322 325 326 328 335 335 334 335 335 336 336 334 334 333 331 321 325 328 330 326 327 328 325 325 327 331 331 331 329 326 327 328 329 328 328 329 329 328 324 321 319 322 324 324 326
314 315 319 323 323 326 327 331 332 334 335 335 330 333 336 338 334 334 330 321 326 328 329 318 317 317 317 317 317 318 321 323 322 321 320 320 319 319 319 318 317 316 317 318 318 322 326 327 325
313 317 323 323 324 326 330 331 333 332 332 334 332 333 334 338 339 333 330 325 325 324 316 315 315 316 316 316 317 317 318 319 320 319 318 318 318 319 319 318 317 315 315 316 316 318 319 319 318
317 321 323 324 325 326 328 330 328 327 330 331 331 330 333 337 334 332 324 325 325 318 316 316 316 316 316 316 316 317 318 319 319 318 318 317 317 317 318 317 314 308 308 309 310 313 314 314 314
319 321 321 321 322 322 322 323 324 325 325 325 327 327 334 336 333 330 328 325 318 320 322 321 319 317 316 315 315 316 319 319 318 319 318 317 316 316 317 316 313 309 309 310 310 311 309 308 309
315 318 318 319 318 317 315 316 319 320 323 327 327 325 330 333 334 332 328 326 326 325 327 323 320 316 315 315 312 313 314 317 319 319 319 317 315 316 316 314 310 309 309 309 309 309 309 308 307
313 317 317 316 317 316 315 316 315 318 322 323 324 325 329 334 335 334 330 328 329 329 325 325 323 316 315 314 311 311 310 313 314 315 317 318 320 316 315 311 309 308 309 310 310 309 308 309 307
318 318 317 315 316 317 316 316 316 318 318 319 322 326 332 336 335 335 334 330 331 331 329 326 324 318 315 314 314 313 311 322 318 320 317 318 315 315 313 312 310 310 311 308 308 309 309 311 316
318 318 316 315 316 316 316 316 315 316 317 317 318 323 332 334 334 333 332 328 331 332 332 329 327 318 314 316 322 325 325 324 325 316 318 322 317 323 324 324 323 320 315 317 315 313 317 311 310
317 316 316 315 315 316 316 316 316 316 316 316 319 323 329 332 330 329 328 329 329 330 332 333 329 316 314 322 325 325 324 324 325 326 317 325 325 325 324 323 320 319 319 315 318 318 309 308 308
318 318 318 316 316 317 316 318 318 318 317 315 319 325 327 328 328 328 327 327 327 329 333 335 332 315 313 312 323 321 320 324 321 325 324 322 323 323 321 319 318 318 318 318 319 318 314 308 307
319 319 318 318 318 317 318 319 318 317 317 316 317 322 326 327 326 327 328 329 329 331 333 336 331 314 312 316 312 317 313 317 320 320 319 310 313 319 318 317 316 316 316 316 317 316 311 310 307
318 320 320 318 318 319 316 319 319 317 316 317 316 318 324 326 325 325 325 326 327 328 331 334 328 313 312 312 312 312 315 311 318 317 310 310 310 313 311 316 315 315 315 315 316 315 311 308 309
319 319 319 319 319 319 320 321 319 319 318 318 319 317 321 326 327 325 326 328 329 329 330 332 321 313 311 313 314 316 318 313 317 314 312 311 311 310 310 316 316 315 314 315 316 315 314 313 310
319 317 317 319 318 320 320 321 321 317 316 319 319 319 317 323 327 329 330 328 327 326 327 330 318 318 315 314 316 313 313 314 315 313 313 311 311 311 310 311 313 313 313 313 314 315 314 313 311
318 318 318 318 318 320 320 321 319 317 316 319 320 319 316 320 326 324 324 325 324 320 326 328 319 316 312 314 314 313 312 312 312 312 312 311 311 311 311 311 311 312 315 315 314 314 314 313 311
317 317 318 317 318 320 321 319 318 318 318 318 318 317 317 320 319 322 321 316 316 320 326 323 321 312 313 314 313 313 313 313 313 312 311 311 311 311 310 309 309 308 312 313 310 313 314 314 313
317 318 318 318 318 320 321 320 318 318 317 318 318 318 318 318 317 317 316 316 318 320 320 318 315 313 313 312 311 312 312 312 312 312 312 311 310 308 305 303 304 307 309 310 311 312 312 313 313
318 318 319 319 319 320 320 322 320 318 317 317 317 317 317 317 317 316 316 315 315 315 315 315 313 312 312 312 312 312 312 312 311 310 308 308 306 304 301 300 300 300 302 307 308 309 310 310 312
320 318 319 319 321 323 321 323 321 318 318 318 317 317 317 316 316 315 315 315 313 313 312 312 312 312 312 311 310 309 310 310 308 308 307 305 303 300 300 299 299 299 300 304 305 306 307 308 308
320 318 319 320 322 323 323 322 322 320 319 318 317 316 316 315 315 315 315 314 314 313 312 312 312 311 311 310 310 309 308 308 308 307 305 303 303 301 300 299 298 299 301 303 301 302 305 306 307
318 319 320 321 324 326 322 321 323 321 318 318 317 317 317 316 314 315 314 314 314 313 312 312 311 311 310 309 309 307 307 308 307 305 303 303 302 302 302 299 299 301 301 302 302 302 302 303 303
320 321 324 327 327 325 319 321 322 318 317 317 317 317 317 316 316 315 314 314 314 313 312 312 312 310 310 311 309 308 306 305 305 303 303 301 301 301 301 299 302 302 301 301 301 301 301 299 298
320 321 324 323 324 322 319 320 322 318 316 316 315 315 315 315 315 314 314 314 314 312 312 312 311 310 310 309 306 303 304 305 304 302 300 299 299 299 299 301 301 301 301 301 301 300 299 298 298
320 322 319 321 316 324 320 320 319 317 317 316 315 315 315 315 314 314 313 313 313 313 312 311 311 310 309 307 307 303 305 303 301 298 297 299 299 299 300 300 299 297 297 297 296 296 296 295 294
320 318 321 320 325 317 317 318 318 319 318 316 316 315 315 315 315 314 313 312 312 312 311 311 311 310 309 308 305 304 303 300 298 298 298 298 299 299 298 297 297 296 296 295 294 294 295 293 292
321 321 319 319 320 319 319 317 319 317 316 316 315 315 315 315 314 314 313 312 312 312 311 310 310 309 307 305 303 302 300 299 298 298 297 297 297 297 297 296 296 296 295 294 294 293 293 293 293
318 319 318 317 317 318 319 318 316 316 315 315 315 314 314 314 314 313 313 312 312 311 310 309 307 304 302 302 301 301 299 298 298 298 297 297 297 297 296 295 295 294 294 293 293 293 292 292 291

GFSSGP_850_thetae_012.txt.gz
Theta_e
310 311 315 318 322 323 324 333 334 334 334 332 333 332 334 337 341 341 334 337 341 339 336 336 337 337 337 337 337 336 335 335 334 333 332 330 328 328 328 328 329 328 328 328 325 321 318 316 316
311 317 317 319 323 325 329 331 332 332 331 328 331 330 333 334 335 332 334 339 339 342 340 334 334 334 336 337 335 333 334 334 332 328 324 324 322 319 319 320 321 321 318 317 317 317 318 319 321
314 317 318 321 323 324 329 331 333 330 329 330 330 333 332 332 332 331 334 339 342 342 339 332 333 333 330 328 328 332 331 330 329 326 321 319 318 318 318 318 318 318 317 316 314 315 316 318 319
316 317 317 320 323 328 329 332 330 329 331 330 330 332 331 331 330 330 332 335 336 333 327 322 318 316 316 317 319 321 321 320 320 320 319 318 318 318 318 318 316 311 308 308 309 310 311 312 313
317 318 319 324 328 329 330 329 328 330 329 329 328 334 334 331 328 327 328 330 329 318 314 314 315 315 316 316 316 317 318 319 319 319 318 318 317 317 316 317 315 309 308 309 309 309 309 309 308
317 317 321 324 327 328 329 328 329 331 329 326 329 333 334 330 327 326 325 325 325 322 316 317 316 315 314 314 315 316 317 319 318 318 318 318 316 315 315 316 313 310 308 308 309 309 309 309 309
318 319 320 326 327 328 328 327 325 325 326 325 326 331 332 330 328 325 324 324 326 327 320 317 315 315 314 311 311 312 315 317 317 319 319 317 316 317 315 314 313 309 308 309 309 309 308 308 309
318 319 320 325 323 323 322 323 323 324 324 323 324 328 329 331 328 325 323 323 326 329 329 330 329 326 328 324 308 308 310 313 315 318 317 326 329 327 326 322 318 313 311 312 313 313 312 311 312
318 319 323 321 322 319 318 319 319 320 322 322 326 325 330 330 327 325 324 325 326 329 330 329 328 327 327 325 324 323 323 328 327 330 324 330 328 327 325 323 325 323 321 319 319 319 317 319 319
319 321 320 319 319 319 318 318 317 319 320 320 324 328 332 330 329 326 325 325 328 330 330 330 330 327 323 325 328 327 327 327 328 328 327 329 326 328 326 326 325 323 321 320 321 320 320 322 320
319 319 319 318 317 318 317 317 317 319 319 319 321 324 331 331 329 327 326 326 329 330 330 331 330 327 329 324 327 327 327 326 326 329 326 327 325 326 325 324 323 321 320 319 319 320 320 320 318
319 319 318 317 317 317 317 317 317 317 319 318 321 323 330 328 328 329 328 327 328 330 329 332 330 323 320 329 328 327 327 325 326 325 327 324 323 323 319 321 317 319 318 318 318 318 318 318 318
319 319 317 317 316 317 318 318 319 318 318 318 321 325 328 329 329 329 329 328 328 330 329 330 329 325 326 321 327 324 325 326 323 324 323 311 316 317 318 318 318 317 317 317 317 317 317 317 316
319 318 318 317 319 318 318 319 319 319 318 317 320 324 326 329 329 328 328 328 328 329 329 330 333 329 325 327 325 325 322 321 321 321 319 313 312 313 313 313 314 316 317 317 315 317 317 317 318
319 320 320 320 320 320 319 320 319 320 319 318 318 320 324 326 326 327 327 327 327 327 328 330 333 332 325 324 322 322 321 320 320 320 320 319 315 313 312 312 313 315 315 314 313 316 317 316 316
320 321 321 321 321 321 320 321 321 320 319 320 319 319 320 325 325 326 327 327 327 328 328 330 332 331 327 324 323 321 321 320 320 320 318 318 318 313 313 312 312 313 313 312 312 313 316 317 316
321 321 322 322 321 322 321 322 321 321 321 321 321 321 320 320 325 325 325 325 326 327 328 329 331 328 324 322 322 322 321 319 318 317 317 316 315 315 314 312 310 310 310 310 310 313 315 316 316
320 320 320 320 321 319 319 321 323 322 321 321 321 320 321 320 323 325 325 326 326 326 326 328 331 325 321 322 322 320 318 318 317 317 316 316 315 315 311 310 310 310 310 308 310 311 309 308 309
320 320 320 321 320 320 320 322 322 322 322 322 322 322 322 325 326 327 325 323 325 326 327 327 327 323 322 321 320 317 317 316 316 316 315 314 313 312 311 309 309 308 308 308 307 306 306 307 306
320 320 321 321 320 319 322 321 322 321 322 322 322 322 324 323 322 322 323 324 326 326 325 321 320 318 317 317 316 316 315 315 315 315 314 312 312 311 310 308 306 306 306 305 304 305 306 304 305
322 321 323 322 322 321 321 323 321 321 321 321 321 321 321 321 321 321 321 321 321 321 319 319 318 318 316 315 315 315 314 314 314 314 313 312 312 312 307 306 305 305 305 304 300 304 305 307 307
322 322 321 321 321 322 322 323 322 321 321 321 320 320 319 319 319 320 321 320 319 318 317 317 316 315 314 313 313 313 313 314 314 313 313 312 308 306 306 305 304 304 303 303 305 306 305 304 305
323 321 321 321 322 322 323 324 324 322 321 321 320 320 319 319 319 319 319 319 319 318 317 317 316 315 315 314 314 314 313 313 311 309 309 308 306 306 304 303 303 302 301 302 304 304 304 304 304
322 323 323 323 324 330 323 324 325 323 322 321 320 320 320 319 319 318 318 318 318 318 317 316 315 315 315 314 314 312 310 310 309 309 307 306 306 302 301 300 301 301 303 303 303 303 303 303 302
322 324 331 334 334 333 325 322 325 322 321 321 321 320 320 319 319 319 318 318 318 317 317 316 316 316 315 314 313 312 311 310 309 307 306 304 301 301 299 300 301 302 302 301 301 301 300 300 300
323 323 333 328 331 328 322 321 323 321 320 319 319 319 319 319 318 317 317 316 316 316 316 316 316 315 314 313 313 312 310 308 306 305 304 301 300 300 300 300 300 300 299 299 298 298 298 297 296
323 323 320 325 323 327 320 324 322 320 320 319 318 318 318 318 318 317 317 316 316 315 315 314 314 314 313 312 311 310 308 306 305 303 300 299 300 299 299 297 299 298 298 298 298 297 297 296 296
321 320 324 328 327 322 319 319 323 321 320 320 318 317 317 317 316 316 316 315 315 315 314 314 313 313 312 310 309 307 306 304 302 301 300 300 300 298 296 298 297 297 297 296 296 295 295 295 294
322 322 322 320 323 324 322 319 318 319 319 318 317 317 316 316 315 315 315 315 314 314 313 313 311 311 310 307 306 304 303 302 301 300 300 299 297 295 296 296 295 295 294 294 293 293 292 292 292
319 320 320 326 321 325 323 319 319 318 317 318 316 316 316 316 315 314 314 313 313 311 311 311 310 308 306 305 304 303 302 300 300 299 299 297 296 295 294 294 294 293 292 291 291 290 290 290 291

GFSSGP_850_thetae_015.txt.gz
Theta_e
309 310 316 318 318 317 319 326 330 331 328 332 334 336 336 336 336 338 341 340 339 338 337 336 337 336 336 336 336 334 333 333 332 329 324 322 319 316 316 317 318 318 317 316 316 316 316 316 316
309 316 317 318 319 320 323 330 328 326 328 332 331 333 332 331 334 341 341 340 338 336 336 336 336 335 336 336 331 328 329 328 326 323 319 317 317 316 317 317 317 316 315 312 311 310 311 313 315
311 317 317 316 318 319 327 329 326 327 329 331 332 331 331 331 332 339 339 338 339 338 334 333 333 334 330 324 323 324 324 324 321 318 317 317 316 316 316 316 315 311 307 308 308 309 309 310 310
316 317 316 315 316 319 329 327 328 329 330 331 331 330 330 331 335 340 340 339 337 335 331 328 320 317 316 316 317 317 317 318 318 318 317 317 316 315 314 315 314 308 307 308 308 308 309 309 309
316 318 315 316 319 328 326 327 329 328 328 333 333 329 328 330 333 336 335 334 323 319 315 314 315 315 316 316 316 316 317 317 317 317 317 317 315 313 314 315 313 309 308 308 309 308 308 308 308
317 316 315 316 327 327 325 329 329 328 328 333 332 329 327 327 329 330 329 326 313 315 316 316 315 314 314 314 313 313 314 316 316 316 317 315 314 314 315 314 311 309 308 309 309 310 310 310 309
316 315 316 316 321 326 324 324 323 328 325 333 332 328 327 326 325 325 326 323 318 317 316 315 315 315 311 308 308 309 311 312 314 316 315 322 324 324 324 319 318 316 315 314 313 314 314 313 313
317 315 316 316 323 320 321 319 323 322 320 328 330 329 327 325 324 324 324 327 327 325 326 327 323 326 323 313 309 309 311 313 322 322 327 327 325 324 324 326 324 323 319 319 319 317 318 318 318
319 313 314 316 318 317 319 316 317 322 323 327 327 330 329 325 324 323 325 327 329 329 329 328 326 324 325 324 325 323 322 321 321 324 328 328 326 325 325 325 324 322 319 320 318 317 318 319 319
315 313 315 315 314 313 316 316 317 319 321 329 329 330 329 326 324 323 324 326 330 330 329 329 325 323 325 325 327 327 326 327 328 327 325 327 325 327 325 324 322 321 319 318 317 317 317 318 318
317 314 314 314 317 317 315 316 318 318 316 326 331 329 328 327 325 325 324 327 327 329 330 328 320 325 326 324 327 327 326 325 328 329 324 322 325 325 324 319 316 315 316 317 317 317 316 317 318
316 316 316 316 316 316 314 316 316 317 317 321 330 332 331 328 328 326 325 326 328 330 330 330 323 319 326 328 326 327 326 325 328 325 322 314 317 316 313 313 314 315 317 317 316 315 314 315 316
316 315 316 316 317 317 317 316 317 317 319 320 323 330 329 329 328 328 327 326 328 330 331 331 326 315 319 328 327 327 326 326 322 321 319 312 312 313 312 312 312 313 314 315 315 314 313 315 316
318 316 315 316 317 318 317 317 318 317 318 321 325 329 328 328 328 328 329 328 328 330 330 330 329 326 316 321 322 319 320 320 321 320 318 316 313 312 312 312 312 313 313 314 314 314 313 315 316
319 316 315 317 318 317 318 317 316 318 317 319 323 327 327 328 329 329 328 329 328 329 329 331 329 326 325 319 318 320 322 319 320 320 320 318 317 317 314 314 313 313 312 312 311 310 310 313 313
318 317 316 317 318 318 317 315 316 319 318 318 319 319 325 327 329 328 326 327 328 328 329 331 326 324 324 324 320 320 321 320 320 321 319 319 318 317 315 314 311 310 311 311 310 309 311 312 315
317 315 318 318 319 319 317 317 316 319 319 319 318 318 319 323 326 326 326 327 327 328 327 330 329 326 324 323 322 321 321 319 318 317 317 317 316 315 314 313 311 312 310 309 309 308 309 311 310
317 317 318 318 318 318 316 317 317 320 321 321 321 320 318 322 325 326 326 326 326 326 327 330 328 325 323 323 322 321 320 318 318 317 316 316 315 314 313 312 312 312 310 308 307 306 305 304 303
318 318 318 317 318 318 318 317 318 320 320 320 323 324 323 323 323 323 326 325 326 327 328 328 323 322 322 322 322 320 318 316 316 315 315 314 314 313 313 312 310 307 307 306 305 304 302 299 300
319 320 320 318 318 317 317 319 317 319 319 321 321 321 322 323 323 323 323 326 325 324 324 323 323 322 319 318 317 317 316 315 315 314 314 313 313 313 312 310 306 306 305 305 304 303 301 303 304
320 321 320 320 318 318 319 319 318 318 320 320 320 321 320 320 321 321 322 322 321 321 321 321 319 318 317 316 315 315 314 313 313 314 314 313 312 311 308 306 306 305 303 303 303 300 302 305 305
322 321 321 320 319 318 316 319 318 318 318 319 319 319 320 320 321 320 320 318 318 318 317 316 315 315 314 314 313 313 314 314 313 313 311 309 308 307 307 306 304 301 300 300 299 303 305 304 304
322 321 320 320 319 320 319 319 318 319 319 318 318 319 319 319 319 319 319 318 317 317 316 315 315 315 315 314 314 314 313 311 309 309 309 308 308 307 306 303 299 298 301 302 303 303 303 302 302
319 321 321 321 321 321 322 321 324 321 320 318 319 319 319 319 319 318 318 318 318 317 316 316 316 316 315 314 314 312 311 311 310 310 310 308 306 304 300 298 299 300 301 301 301 301 299 299 299
319 322 321 323 321 322 325 323 323 320 318 319 319 319 319 319 318 318 318 318 317 317 316 316 316 316 316 314 313 312 312 311 311 310 308 305 301 299 299 299 298 299 299 299 299 299 298 298 297
321 321 317 326 322 321 317 322 320 317 318 319 319 319 319 318 318 317 317 316 316 316 315 315 315 314 314 314 313 311 310 309 308 306 303 300 299 299 299 299 296 296 297 297 297 297 297 296 295
322 318 318 321 320 316 319 320 318 317 318 318 318 318 318 318 317 317 315 315 315 315 314 314 314 314 314 313 312 310 307 306 304 302 300 300 300 299 299 295 296 296 295 294 294 294 293 293 293
318 318 319 317 320 321 318 322 323 320 320 319 316 316 316 315 315 315 314 314 314 314 313 313 312 312 311 309 308 307 305 303 302 301 300 300 299 298 294 293 293 294 294 293 292 292 291 291 291
319 320 319 318 315 317 316 316 317 319 319 317 315 315 315 315 314 314 313 313 312 312 311 310 311 310 308 307 306 305 304 302 301 301 300 300 297 294 294 294 293 292 291 290 290 289 289 289 290
318 319 319 313 318 313 313 314 315 315 316 316 315 315 315 314 313 313 313 312 312 311 309 308 306 305 305 305 304 304 302 302 301 300 299 298 295 294 293 293 292 291 290 289 289 289 289 289 289

GFSSGP_850_thetae_018.txt.gz
Theta_e
310 309 315 318 317 316 317 324 329 332 332 334 334 334 332 334 335 339 341 340 337 335 335 335 334 334 334 335 333 330 329 328 325 320 317 315 315 315 315 315 314 314 314 313 311 310 311 313 315
309 315 317 317 317 319 322 327 333 331 332 331 331 334 336 339 341 341 340 338 338 337 335 336 336 335 335 333 327 325 323 321 319 317 316 315 315 315 313 312 313 310 307 308 308 308 309 309 309
310 316 317 314 315 317 326 326 327 329 331 331 330 330 331 339 339 340 339 337 337 337 337 336 334 334 331 322 320 318 318 317 317 316 315 315 315 313 310 313 312 308 307 307 308 308 308 308 308
314 317 316 313 314 315 328 325 329 330 330 330 330 330 334 338 339 338 339 338 335 335 335 333 333 322 316 316 316 317 316 316 316 315 315 315 314 310 311 313 312 309 308 308 308 308 308 308 308
317 317 313 314 318 327 325 326 329 330 331 329 329 329 332 339 338 340 339 336 336 332 330 320 315 315 315 316 316 316 316 315 314 314 316 315 311 310 311 312 311 310 309 309 309 310 311 310 310
316 315 314 319 329 325 325 327 328 331 328 328 329 330 330 338 338 336 330 328 322 315 315 315 315 315 314 313 313 312 312 313 313 315 315 311 313 315 315 315 316 316 316 315 315 315 314 313 313
315 313 315 315 321 325 321 326 327 331 331 329 327 327 327 335 332 330 322 314 315 316 315 314 313 310 308 308 308 309 310 311 312 311 314 319 318 318 319 320 319 319 316 317 316 315 316 317 317
317 314 314 314 326 323 318 321 326 330 327 328 327 325 325 327 326 326 320 316 316 318 319 320 322 319 313 309 309 310 311 315 316 320 321 322 320 322 321 321 320 319 318 317 316 314 314 315 315
318 313 313 316 317 318 317 318 324 330 330 328 328 326 325 325 325 324 323 324 326 326 327 324 321 323 325 325 323 322 321 320 319 321 323 320 322 324 320 319 319 318 317 316 315 315 314 315 315
315 311 313 314 315 314 314 319 319 326 328 328 327 325 324 324 324 323 327 328 329 329 328 327 319 323 325 327 327 326 324 325 325 325 319 318 322 322 321 320 314 313 315 315 315 314 314 313 314
314 314 313 314 315 315 315 316 320 324 326 329 326 324 324 323 323 324 326 326 329 329 329 328 317 318 324 326 327 326 325 325 327 325 321 318 319 317 316 313 312 312 314 314 314 314 315 313 315
315 314 315 315 315 314 314 316 316 319 325 327 328 327 325 324 323 323 325 327 329 329 329 328 319 323 323 326 326 326 325 325 327 325 322 316 317 316 313 312 313 313 314 313 313 313 313 312 313
313 313 315 317 317 315 315 314 315 316 323 328 329 328 328 325 324 325 324 326 329 329 329 329 318 326 325 325 326 326 325 325 325 323 319 313 313 312 313 314 315 315 315 315 315 314 313 311 312
315 314 314 315 316 317 315 316 318 316 325 330 330 330 329 327 327 327 325 325 328 329 330 330 324 316 323 327 327 326 326 324 319 319 319 318 316 314 314 314 314 315 313 313 312 311 311 310 310
315 313 314 315 317 316 318 317 316 318 324 331 330 330 328 327 328 328 328 325 326 329 330 331 329 325 321 322 324 321 321 319 319 320 320 319 318 316 316 314 313 311 311 312 311 311 310 309 309
315 314 315 316 315 317 315 314 315 317 320 328 329 329 328 328 328 328 328 328 326 329 330 330 329 324 323 325 320 320 321 320 319 320 320 319 318 318 317 315 314 312 312 312 313 311 310 309 307
313 314 315 317 316 316 316 316 314 316 320 323 326 327 325 326 326 327 328 328 327 329 331 330 329 327 325 324 322 320 321 320 319 318 318 319 318 316 315 314 313 313 314 312 311 309 306 305 303
315 315 315 316 316 317 315 316 315 315 315 315 316 318 322 324 326 326 326 327 328 329 331 330 328 324 325 324 322 321 321 320 317 316 315 314 313 313 313 313 313 313 311 311 307 306 303 302 302
316 316 316 316 317 317 315 316 316 317 320 320 322 322 323 322 325 326 327 327 328 331 329 326 324 324 323 323 320 320 317 316 315 314 313 313 313 313 313 313 312 310 307 306 305 303 302 302 300
319 317 317 317 317 315 314 316 315 317 318 320 321 322 322 322 322 323 323 325 327 326 325 323 317 321 321 318 319 317 315 314 314 314 313 313 313 313 311 309 307 306 305 304 302 301 300 298 300
319 318 319 319 317 316 316 316 317 317 318 319 320 321 321 321 321 320 320 320 319 318 318 318 317 317 316 316 315 314 313 313 313 313 313 312 311 309 308 307 306 305 303 300 298 297 298 301 303
321 320 319 319 316 314 314 317 317 317 317 317 318 320 320 320 319 318 318 317 316 316 315 314 314 314 315 315 314 314 313 313 313 313 312 310 310 309 308 307 305 300 296 295 298 301 302 302 301
321 319 319 319 317 318 318 316 317 317 318 317 317 320 320 319 318 318 317 317 317 317 316 315 315 315 314 315 315 314 313 313 312 311 311 310 309 308 307 301 296 295 297 298 299 299 299 299 298
318 320 320 319 318 319 321 319 318 317 317 317 316 318 318 318 318 318 318 318 317 316 316 316 316 316 316 315 314 313 312 312 311 310 309 307 307 307 301 297 297 298 297 296 297 298 298 297 297
317 319 319 321 319 320 323 322 320 318 318 318 317 318 318 318 318 318 318 317 317 316 316 316 316 315 315 314 313 313 312 311 310 309 308 307 304 300 299 298 299 296 293 295 295 295 296 295 295
320 318 316 325 319 318 318 321 318 317 318 319 319 319 318 318 318 318 318 318 316 315 314 314 314 314 314 313 312 311 309 308 306 304 304 302 301 300 299 299 294 292 293 293 293 293 292 292 292
320 316 317 317 315 314 318 318 317 317 316 317 318 318 317 316 315 315 314 314 314 314 314 313 312 311 311 310 310 309 306 304 304 303 302 301 300 300 299 294 293 292 293 293 292 291 290 289 290
315 316 318 313 317 319 316 321 319 319 318 314 314 315 315 314 314 314 313 313 312 311 310 310 309 309 308 307 306 304 304 304 303 302 301 301 300 299 295 294 293 292 292 291 290 290 289 289 289
316 317 317 315 313 315 314 314 313 318 317 313 313 314 314 314 313 312 312 311 311 309 308 306 305 304 304 304 303 302 303 304 303 302 300 300 298 296 295 294 293 292 292 290 289 289 289 288 288
317 318 315 312 316 311 310 313 313 313 313 315 314 313 313 312 311 311 310 309 307 305 304 303 304 303 302 301 302 303 303 302 302 301 301 300 298 296 294 293 293 292 290 289 289 288 287 288 288

GFSSGP_850_thetae_024.txt.gz
Theta_e
309 309 316 317 316 314 315 317 328 331 333 333 335 336 337 339 337 338 339 338 337 338 337 337 336 334 332 331 330 327 325 319 315 314 314 314 312 309 310 308 307 307 307 307 307 307 307 308 307
308 315 316 317 314 315 322 320 333 333 332 333 333 335 337 341 339 339 339 338 338 337 337 336 334 333 332 330 325 323 319 316 315 314 313 313 309 310 310 308 307 307 307 308 308 308 308 307 307
310 316 316 311 313 316 320 330 332 330 330 330 330 332 338 340 340 338 339 338 337 336 336 335 334 333 332 326 322 318 315 315 314 313 313 311 308 310 310 309 308 308 308 309 309 309 309 309 309
313 316 314 312 314 314 321 329 330 329 330 330 329 331 335 337 338 338 337 336 335 335 335 335 334 333 327 320 316 316 315 314 312 313 312 308 309 310 310 310 311 313 314 314 313 313 312 312 313
317 315 309 312 316 317 319 329 329 329 329 330 328 329 335 339 339 338 336 336 336 336 336 335 334 325 317 316 316 315 313 312 312 312 310 311 312 314 315 315 313 313 312 311 312 314 315 315 312
315 313 311 325 323 322 325 329 329 329 329 330 333 333 336 339 338 337 337 336 336 336 335 334 321 316 316 315 314 313 311 311 311 312 316 316 316 315 313 312 312 312 310 310 310 310 310 310 310
312 310 313 324 326 322 323 329 329 329 330 331 333 331 339 338 337 336 336 336 335 334 328 316 316 315 314 312 311 310 310 311 313 318 317 318 317 314 313 313 312 312 311 310 311 311 311 310 310
316 310 313 317 327 326 322 327 330 329 328 331 334 335 337 336 336 335 334 334 332 321 315 314 312 309 308 308 308 309 310 313 318 318 318 318 316 315 314 313 313 313 313 312 312 313 312 312 312
315 311 311 322 326 326 325 319 329 327 327 326 326 335 336 336 332 333 333 326 317 314 313 312 309 308 307 308 309 311 315 318 319 317 318 318 317 316 316 313 313 313 313 314 314 315 314 313 312
313 310 312 319 324 325 324 321 326 327 326 324 327 335 336 328 325 320 317 315 315 316 317 317 317 314 314 315 315 316 316 317 317 316 317 317 318 316 315 313 313 313 314 315 315 315 315 313 312
312 312 311 317 324 326 322 322 324 326 326 324 331 336 333 324 319 314 315 316 317 320 319 317 319 320 320 319 317 318 318 320 320 318 315 316 317 317 316 313 313 314 314 314 314 314 312 311 311
314 313 312 314 324 321 316 321 327 327 326 327 327 328 325 319 317 316 316 316 320 324 323 319 320 322 324 324 322 321 320 321 321 321 317 314 315 316 315 313 313 314 315 314 313 311 311 312 312
314 313 312 313 314 319 318 317 325 319 325 326 328 328 324 321 321 319 317 317 322 325 326 322 319 323 325 326 325 325 324 324 323 323 319 316 313 315 313 313 314 315 315 312 311 311 313 313 313
314 312 312 312 312 312 312 312 316 318 326 324 326 326 324 324 323 322 321 320 324 326 327 326 320 324 325 326 326 326 325 325 325 323 320 319 317 316 315 314 315 314 312 311 312 313 313 311 310
312 312 311 312 314 313 315 315 314 320 326 324 325 325 325 325 324 323 322 321 324 327 328 328 323 326 326 325 326 326 325 325 324 324 321 319 318 318 318 317 316 315 314 313 313 312 309 308 307
312 311 311 313 314 313 312 312 312 324 325 322 322 323 323 323 323 323 323 323 325 327 328 328 325 326 326 326 325 324 325 323 322 323 321 319 319 319 318 317 315 313 312 311 309 308 307 307 306
309 312 314 316 314 314 313 313 311 323 324 323 323 323 323 322 323 322 322 323 324 326 328 328 325 325 326 324 322 323 322 320 321 321 320 319 318 317 315 314 313 314 310 309 308 308 307 306 305
313 313 313 314 314 311 311 313 313 313 325 323 324 324 325 325 325 325 325 325 324 323 328 327 325 324 325 325 324 322 321 318 318 318 318 317 316 314 314 314 311 310 309 308 308 307 307 305 302
313 314 314 313 313 313 314 315 315 317 319 319 320 322 323 324 324 325 326 325 325 326 328 326 324 325 324 323 321 318 317 319 319 315 314 314 313 313 312 311 309 310 309 308 307 305 300 297 295
314 314 315 315 312 314 316 315 313 316 318 318 320 321 323 325 327 329 328 328 328 328 327 324 323 324 321 321 320 319 318 314 313 312 312 312 312 312 311 310 309 308 308 307 300 295 294 293 293
317 316 317 316 315 313 315 316 315 315 318 319 322 325 327 326 326 327 326 323 322 319 318 318 319 320 318 316 314 313 313 312 312 312 312 312 312 311 309 307 306 303 301 298 296 294 293 293 293
319 318 316 315 314 317 313 319 317 316 317 317 318 322 322 321 323 322 319 316 316 315 314 314 314 314 314 314 314 314 314 314 313 313 312 311 309 308 305 301 299 299 298 297 294 292 292 293 294
319 316 316 315 314 314 315 317 314 316 319 317 317 318 319 320 319 316 316 315 315 314 314 315 315 315 315 315 315 314 314 313 312 311 310 308 303 303 302 300 300 299 299 294 292 292 292 292 293
316 317 315 315 314 316 318 315 314 316 317 316 316 317 317 316 316 316 316 315 315 315 315 315 315 315 315 314 314 313 312 311 309 305 302 302 301 300 301 300 300 299 299 294 292 291 291 290 290
316 316 317 319 317 318 316 316 314 314 314 316 316 318 317 316 316 316 316 316 315 315 315 315 315 314 313 312 311 310 308 305 303 301 301 301 301 300 300 300 300 299 296 294 296 292 291 290 289
316 317 316 323 319 317 316 320 317 313 315 318 318 317 317 316 316 316 316 316 316 316 315 314 313 310 309 307 306 304 302 302 303 303 303 302 301 301 300 300 299 299 297 296 294 291 290 289 288
317 314 314 315 312 313 315 317 316 314 313 315 317 317 317 317 316 316 316 315 314 313 312 310 308 305 303 303 302 302 302 303 303 302 301 299 300 300 300 299 298 297 297 294 292 291 290 289 288
316 313 315 311 315 317 315 316 316 316 315 313 313 314 314 315 314 314 313 313 312 311 310 307 303 303 302 300 301 301 300 301 301 297 296 295 299 299 298 296 296 296 295 293 292 290 289 288 288
315 315 312 312 310 312 311 314 311 316 315 314 312 313 313 313 313 312 311 310 310 309 306 304 303 301 300 300 300 300 300 298 296 294 293 294 295 293 293 296 296 296 294 292 291 289 289 288 288
314 315 311 309 312 308 308 310 310 310 313 313 312 313 312 312 311 310 310 310 307 304 305 303 302 301 301 300 299 298 296 295 293 293 293 293 293 292 293 295 294 294 294 290 290 289 288 288 288

GFSSGP_850_thetae_027.txt.gz
Theta_e
312 308 315 316 318 319 319 319 330 335 336 336 337 337 337 338 339 341 338 337 338 337 338 336 335 334 333 332 331 328 323 316 314 314 313 311 309 309 307 307 307 307 307 307 307 307 307 307 307
309 310 316 316 319 318 322 324 335 336 335 332 333 334 336 336 338 339 338 337 337 337 337 336 334 333 332 331 328 322 315 315 314 313 312 308 309 309 308 307 308 308 308 308 309 309 309 309 309
308 314 315 318 318 318 327 335 334 332 331 330 331 332 331 336 333 338 339 338 337 337 337 335 333 332 332 328 322 315 315 314 313 312 309 309 310 309 309 309 309 311 312 313 313 312 312 312 312
310 316 313 317 317 317 323 333 332 331 330 328 328 331 335 336 336 336 339 338 337 337 336 334 333 333 329 324 316 315 315 313 312 311 309 310 310 310 312 314 314 313 312 312 313 313 313 312 310
315 314 316 320 323 321 318 331 330 330 330 328 326 331 337 338 337 339 338 338 337 335 334 334 334 331 325 318 316 315 313 312 312 309 310 312 314 315 313 313 311 310 310 310 310 310 310 310 310
316 312 318 328 326 326 328 330 330 330 328 329 331 333 337 339 338 337 336 336 335 335 335 335 333 325 319 316 315 313 310 311 311 314 315 316 315 312 312 312 311 310 310 310 310 310 310 310 309
315 314 321 327 327 325 327 330 330 330 329 331 332 337 338 340 338 336 336 335 335 335 335 334 324 319 316 315 313 310 311 312 317 316 317 315 313 312 312 312 311 310 310 311 311 311 311 311 311
315 314 317 327 328 327 324 329 326 327 327 331 332 337 337 339 338 336 336 336 336 335 334 321 317 316 315 313 310 310 312 317 317 318 316 315 314 313 312 312 311 311 311 311 312 312 312 312 312
314 316 316 326 329 327 324 324 327 327 328 327 327 335 336 336 336 336 336 336 334 331 318 316 313 312 310 309 310 312 314 320 319 318 318 316 315 314 312 312 312 312 313 313 314 314 313 312 311
315 316 316 321 326 327 326 324 326 327 327 324 330 336 334 335 335 335 335 334 325 316 313 310 308 308 308 309 311 314 320 320 319 319 320 319 317 316 315 313 314 314 314 315 315 314 312 311 312
313 317 314 321 325 324 325 323 327 327 329 325 333 335 334 332 332 331 328 317 315 314 315 314 312 310 311 313 317 319 321 321 319 319 319 319 319 318 316 313 314 314 315 315 314 312 311 313 313
315 313 313 322 324 324 321 321 326 328 327 327 329 332 333 326 321 317 314 315 315 318 318 319 318 319 320 320 322 320 322 324 323 322 320 318 319 319 317 314 314 314 314 314 312 311 312 313 313
315 314 312 313 319 323 321 322 328 326 322 326 330 333 330 324 317 314 315 315 318 322 320 321 323 324 324 325 325 325 325 326 326 325 322 318 318 319 316 315 314 314 314 313 311 312 312 312 310
315 312 311 310 313 319 317 315 323 321 325 327 329 329 328 323 319 316 315 316 320 324 324 322 323 325 325 325 326 326 324 325 327 325 324 321 317 318 317 315 315 315 314 314 313 312 309 308 308
311 313 313 312 312 313 314 314 313 317 324 328 331 330 326 322 319 318 317 317 321 325 326 325 323 324 325 325 325 324 320 323 325 324 322 321 318 318 318 317 317 315 313 313 312 310 309 308 308
314 313 314 314 314 312 314 314 313 322 321 324 324 325 323 322 321 318 318 319 323 325 326 327 324 325 326 325 320 320 319 322 323 322 322 321 319 318 318 316 314 314 313 312 310 310 309 309 307
314 315 315 315 313 314 313 314 316 320 322 321 321 322 323 323 323 323 323 323 324 325 327 327 326 323 325 325 322 322 321 322 322 322 320 319 318 317 317 315 314 313 311 309 309 308 308 305 303
316 315 314 316 314 315 318 319 317 316 322 321 321 322 322 322 322 323 323 322 322 323 324 327 326 324 322 320 321 323 321 320 318 318 319 317 315 315 313 313 311 308 309 308 308 305 301 297 295
314 315 315 314 312 319 319 320 319 318 320 321 321 322 323 324 324 325 325 325 324 324 325 327 327 325 322 323 323 321 317 318 319 313 313 313 313 312 311 309 308 308 307 304 300 299 297 295 294
315 317 316 315 314 319 319 320 320 318 318 319 320 321 323 324 326 326 326 325 325 325 326 327 326 324 322 320 319 318 317 313 313 312 312 312 312 310 309 308 307 303 299 299 298 298 297 295 293
317 318 317 318 317 317 319 320 320 319 319 319 319 321 324 326 327 327 327 326 325 324 323 323 323 322 317 316 317 314 313 313 313 312 312 311 311 309 308 306 302 300 299 299 298 298 295 294 294
320 317 315 316 318 321 315 320 319 321 321 321 321 323 324 327 326 324 323 319 317 317 315 315 315 314 315 315 313 313 314 313 313 313 312 310 309 306 301 301 299 299 298 298 298 297 295 292 294
319 316 317 315 317 318 318 321 319 321 323 323 321 319 321 324 321 319 316 315 314 314 314 314 314 314 314 314 314 314 314 313 312 311 309 305 302 300 298 298 299 299 299 299 298 296 295 291 291
316 319 318 318 319 320 318 319 319 323 324 322 319 318 318 320 317 315 315 314 315 315 315 315 314 314 315 315 314 313 312 311 309 305 302 301 300 300 301 300 300 300 299 299 297 296 294 291 290
318 320 323 325 325 323 317 319 320 317 318 322 320 318 317 317 315 315 315 314 315 315 315 315 315 315 313 312 311 309 307 303 301 300 300 302 302 301 301 300 300 300 299 298 296 296 293 290 290
317 320 325 323 325 323 317 322 322 316 315 320 319 318 316 316 316 315 315 315 315 315 315 315 314 311 308 306 304 301 298 299 301 302 302 301 298 297 299 300 300 299 298 296 296 294 292 290 289
317 318 316 318 313 319 318 318 317 315 315 317 317 317 316 316 316 315 315 315 315 315 314 311 309 305 303 301 299 300 301 302 302 300 297 295 294 295 298 298 297 295 296 296 295 293 292 290 289
317 315 319 317 318 317 316 318 320 318 317 317 317 317 316 316 316 316 316 315 313 311 310 307 304 302 301 300 300 300 300 300 298 296 295 294 293 293 293 292 293 295 296 295 294 293 291 289 289
318 317 314 315 315 316 316 316 316 318 318 318 317 316 317 316 316 315 314 311 310 308 305 304 302 301 300 300 300 299 298 297 296 294 293 292 292 292 291 291 293 294 295 294 293 292 290 289 288
315 316 315 317 314 313 314 317 311 313 316 316 316 315 314 314 314 313 311 310 308 305 304 303 302 300 300 300 299 298 296 295 293 292 293 293 293 291 291 291 293 294 293 293 292 290 289 289 288

GFSSGP_850_thetae_030.txt.gz
Theta_e
315 310 310 318 322 323 326 327 332 339 341 338 339 338 340 341 342 345 341 341 340 339 336 335 334 333 333 332 331 330 324 316 314 314 313 309 309 307 307 307 307 307 307 308 308 308 308 309 308
311 308 316 319 321 323 325 324 334 340 337 334 334 337 336 337 341 339 339 338 339 338 337 335 334 334 332 332 330 325 317 314 314 312 309 309 308 307 307 308 308 309 310 310 311 311 311 312 312
309 312 318 321 321 322 325 333 337 334 331 329 332 335 333 335 338 340 338 339 338 339 338 336 334 333 332 330 326 318 315 314 313 310 309 309 309 308 309 310 313 313 312 312 312 312 311 310 310
312 315 317 320 321 321 330 336 333 332 330 330 328 331 330 330 334 328 337 338 338 339 339 335 333 332 331 327 319 316 315 313 312 309 310 310 309 311 314 313 311 311 311 311 310 309 309 309 309
315 317 321 321 321 321 330 334 334 333 330 328 330 332 335 332 328 328 333 337 338 338 338 334 333 332 328 320 317 315 313 313 310 310 310 312 314 314 313 311 310 310 310 310 309 309 310 310 310
317 317 320 323 327 326 329 333 333 330 329 329 329 330 338 336 333 334 337 338 338 337 337 334 333 330 324 319 316 314 313 312 310 311 315 316 313 313 312 311 310 310 310 310 311 311 311 312 312
318 319 322 327 329 331 331 332 331 329 328 330 331 334 339 339 338 338 337 338 337 337 336 335 332 327 322 318 315 312 313 311 314 316 317 315 313 313 312 311 311 311 311 311 311 312 312 312 312
318 319 326 329 329 330 332 331 327 325 328 331 333 333 340 338 338 337 339 336 336 335 336 334 332 329 324 316 313 312 313 318 318 318 317 315 314 313 312 312 312 312 312 312 312 313 312 312 313
317 320 324 329 330 330 328 328 327 327 329 330 329 335 337 337 338 338 337 337 335 335 335 330 331 330 327 324 312 313 317 319 320 320 318 317 325 321 319 312 312 313 313 314 313 313 312 312 314
318 321 320 323 328 328 326 326 326 329 329 328 334 338 338 337 337 337 337 336 335 335 328 329 329 322 314 319 313 317 322 326 326 326 323 327 320 320 314 313 313 314 314 314 314 313 311 313 314
319 321 320 325 328 327 326 325 324 328 330 330 333 338 338 338 336 336 336 334 335 332 330 325 313 311 312 320 322 324 327 328 325 322 324 323 322 320 323 317 318 314 315 316 314 313 312 312 313
319 319 319 326 326 324 325 324 326 328 328 329 332 337 336 336 335 337 337 333 330 328 325 312 310 310 312 322 324 325 328 327 327 325 322 322 325 320 319 319 315 315 315 314 312 312 312 313 312
319 318 317 320 323 322 324 325 326 328 326 330 335 336 336 332 334 332 329 327 325 324 324 316 314 316 319 322 323 322 325 327 327 326 324 321 322 319 318 316 316 315 314 313 313 313 313 312 310
319 317 316 316 320 323 325 325 328 324 329 334 335 334 332 328 325 325 325 323 323 325 325 321 320 323 324 325 326 326 325 326 326 325 323 320 320 319 318 317 316 316 315 314 313 313 311 310 310
316 316 315 315 316 323 324 323 320 321 327 332 332 331 330 328 325 323 321 321 323 326 325 322 323 323 324 325 323 320 319 319 319 321 322 321 321 319 318 317 316 316 314 313 312 310 310 310 310
316 317 317 316 317 316 323 321 319 322 326 330 331 331 330 328 324 322 322 321 323 327 328 324 323 323 324 325 320 320 321 319 321 322 322 322 319 318 318 317 315 313 312 310 309 309 309 308 307
317 318 317 317 317 318 321 318 319 322 325 327 329 328 327 325 325 326 324 322 324 327 327 326 325 323 325 323 320 318 321 322 322 321 320 319 318 317 315 314 312 310 309 309 308 307 305 304 304
319 318 317 317 318 318 319 321 320 323 325 325 326 327 326 326 327 325 324 326 327 329 326 326 326 325 324 322 321 321 322 321 319 318 318 318 316 314 313 312 311 309 308 306 305 303 302 302 301
318 319 319 318 320 320 320 322 322 324 326 326 326 326 326 326 326 323 323 323 327 327 326 326 326 326 324 322 323 322 319 318 317 317 314 313 313 312 311 309 308 308 307 304 301 301 301 300 301
319 319 320 318 319 323 323 324 322 323 326 327 326 326 326 327 327 326 326 328 327 327 327 326 326 326 323 321 321 319 317 317 315 314 313 312 311 310 309 309 307 306 303 303 300 300 299 299 299
321 321 320 321 321 322 323 325 324 322 323 324 325 327 327 328 328 328 329 329 328 329 328 328 327 325 320 318 317 317 317 314 313 312 311 311 310 309 305 302 302 301 299 300 301 300 299 298 298
321 320 320 321 322 321 322 323 326 325 324 325 324 325 328 328 329 329 329 329 328 328 327 327 324 320 317 316 317 317 316 316 314 312 311 309 308 304 302 299 298 298 300 301 300 298 299 297 297
322 319 321 321 322 322 322 322 325 326 326 327 327 328 329 328 327 326 325 323 321 319 320 323 320 317 314 314 314 315 314 313 311 310 308 307 306 304 302 301 299 299 301 301 300 299 299 297 296
320 322 322 322 323 323 322 322 321 326 326 328 327 326 327 325 323 321 318 317 317 317 318 316 315 314 314 313 314 313 313 311 309 307 306 304 303 303 303 303 302 302 301 300 299 298 297 297 295
322 323 322 324 324 322 322 322 320 322 323 326 326 323 324 320 319 317 317 316 316 316 316 316 315 314 314 313 311 310 308 305 304 303 303 303 303 302 301 302 301 301 300 300 298 297 297 296 295
322 322 321 318 321 321 322 323 323 321 320 324 325 322 322 319 318 317 317 316 316 316 316 315 315 313 312 309 305 301 299 304 303 304 303 301 300 300 300 300 299 298 299 298 297 297 296 296 295
321 321 322 324 319 324 322 323 322 320 320 322 324 321 320 319 318 318 317 317 316 315 315 314 312 310 306 302 302 299 301 300 302 300 298 299 299 298 296 297 297 297 297 297 297 296 296 295 294
321 320 322 323 323 319 318 319 319 322 321 322 324 321 320 319 319 318 317 316 316 314 314 312 307 304 302 301 299 302 300 299 298 297 298 297 296 296 295 295 295 295 296 296 296 295 295 294 294
321 321 319 320 321 318 317 317 321 321 322 322 322 321 320 319 319 318 317 315 314 312 310 307 304 302 304 304 300 299 298 297 297 297 296 296 295 295 294 294 294 295 295 295 295 295 294 293 292
320 321 319 319 318 320 320 318 316 319 321 321 321 321 321 320 319 317 315 314 311 309 307 305 302 303 302 300 299 298 297 297 297 296 295 295 295 294 294 294 294 294 294 295 294 294 292 292 291

GFSSGP_850_thetae_033.txt.gz
Theta_e
315 314 314 317 323 326 328 329 329 339 340 340 339 339 341 343 346 345 340 341 341 340 335 332 331 332 331 332 332 330 326 318 314 314 312 309 308 307 307 307 307 308 308 308 309 310 311 312 312
316 313 314 319 323 325 327 327 339 339 337 337 337 338 337 341 342 342 341 342 342 340 335 333 333 333 332 332 331 326 317 314 314 312 309 308 307 307 308 308 309 311 312 312 312 312 311 311 311
314 313 319 322 324 324 326 334 339 335 334 335 336 333 333 339 341 342 341 341 341 338 338 334 333 333 332 332 328 319 315 314 313 309 309 308 308 308 310 313 313 312 312 312 310 309 309 309 309
315 314 318 323 325 325 325 336 334 333 332 332 332 333 332 334 338 340 340 340 341 339 339 334 334 332 332 330 321 316 315 313 311 309 309 309 309 313 313 311 311 311 310 309 309 310 310 310 311
315 318 320 323 325 324 324 334 334 334 333 331 332 332 329 326 331 335 341 339 338 339 337 334 333 332 331 324 318 315 314 313 309 310 309 311 315 313 311 310 310 310 310 310 311 311 312 312 313
316 318 322 324 325 327 326 333 334 332 329 328 329 332 332 329 329 332 335 338 339 337 336 334 333 331 327 319 316 315 313 311 311 310 314 315 314 312 311 310 310 310 311 311 311 312 312 313 313
318 321 321 323 329 330 328 331 333 330 329 328 328 331 338 338 336 335 331 335 334 336 335 334 332 328 321 317 316 313 313 311 312 316 317 314 313 312 311 311 311 311 311 312 312 312 312 313 313
317 321 322 325 330 332 329 330 330 328 328 331 332 334 333 339 338 329 332 329 335 334 335 334 330 329 321 318 315 313 312 314 317 318 316 314 314 314 313 313 312 312 313 313 313 313 312 313 315
318 321 321 329 330 332 331 331 328 326 326 328 334 332 337 340 337 335 336 335 336 336 333 333 331 331 330 319 313 313 317 318 320 319 318 322 326 325 325 314 312 313 313 314 314 313 312 314 316
319 319 321 327 328 331 329 327 327 328 327 330 333 336 340 341 338 337 336 337 336 335 332 332 331 330 327 323 314 319 321 324 328 327 325 328 327 327 324 313 313 314 314 315 315 313 314 316 316
319 321 323 322 326 327 327 326 324 325 329 329 331 340 340 340 339 338 338 337 336 334 330 331 330 328 324 323 325 326 328 328 328 329 328 326 327 328 327 323 321 321 318 320 317 317 316 316 315
320 320 321 324 327 326 324 326 323 327 323 329 334 340 339 339 338 338 337 337 334 330 329 328 327 325 325 324 325 327 329 329 329 328 325 327 325 328 325 322 321 320 319 317 317 317 316 315 314
320 321 320 326 324 323 326 325 327 327 327 328 338 339 338 336 335 336 333 330 330 328 325 325 324 324 326 327 328 329 329 327 327 326 324 326 325 324 324 322 320 318 318 318 317 316 314 314 314
320 320 322 323 324 323 325 326 327 326 328 331 334 334 333 332 331 329 328 328 326 325 325 324 325 326 328 329 329 327 328 328 328 324 326 323 320 319 323 321 319 318 317 317 315 313 313 314 313
319 320 321 321 322 325 325 324 324 326 328 329 330 329 326 326 325 325 325 325 326 326 326 326 327 329 330 329 327 324 319 319 318 319 321 322 321 320 320 318 318 317 315 313 313 313 312 312 311
319 319 320 320 320 324 325 323 323 324 327 328 328 327 325 324 323 322 323 324 326 328 328 328 328 330 329 326 320 319 319 319 321 321 322 322 321 321 319 318 317 314 312 312 312 311 309 308 307
319 320 319 319 319 322 324 324 322 323 326 328 329 329 328 326 324 323 322 323 326 330 330 329 329 328 325 325 320 320 320 318 322 321 321 321 319 318 316 315 314 312 312 311 309 308 307 306 305
320 320 319 319 320 322 322 321 322 324 324 327 329 329 328 327 326 327 326 324 325 329 331 331 329 323 322 323 323 322 319 320 321 320 319 318 317 316 313 313 312 311 310 309 308 307 305 303 302
320 319 319 320 321 320 320 319 321 323 324 325 327 328 328 328 329 329 328 326 328 331 331 331 330 326 325 324 324 321 323 321 318 317 317 315 313 312 312 312 311 309 308 307 306 304 302 302 301
319 319 321 320 320 321 319 320 323 324 325 325 325 327 328 328 329 329 330 330 330 331 330 329 329 326 326 326 324 322 320 318 317 316 314 313 312 312 311 310 309 308 307 305 303 303 302 301 300
319 320 321 320 320 321 323 323 324 325 326 326 326 326 327 328 329 330 330 331 331 330 330 329 329 327 327 325 322 320 320 318 316 314 313 312 311 310 309 308 307 305 304 302 303 303 301 300 300
321 322 321 322 322 322 323 321 323 326 326 327 327 328 327 328 330 331 331 331 331 330 329 330 329 327 324 321 320 319 318 317 317 316 314 312 310 309 308 306 305 304 303 303 303 302 301 300 299
323 322 322 322 322 323 323 322 324 326 326 326 326 327 328 330 330 330 330 331 331 329 328 328 326 323 321 320 319 319 318 317 316 314 313 311 310 308 306 305 305 304 303 303 302 302 301 299 299
322 322 323 323 322 324 322 323 323 327 326 327 327 327 329 330 330 330 329 327 326 326 327 326 321 320 319 318 318 318 317 315 313 311 309 306 305 304 305 304 304 303 302 302 302 301 299 299 298
322 323 325 324 324 324 323 323 321 322 325 326 328 329 329 329 327 324 322 320 321 322 323 323 319 318 318 317 317 316 313 310 307 307 305 305 304 303 302 302 301 301 301 300 300 300 298 298 298
323 322 324 322 321 321 324 320 323 324 323 325 327 327 328 326 324 321 319 319 319 319 319 318 318 317 317 315 313 310 307 306 306 306 305 302 301 301 301 299 299 299 299 298 298 298 298 297 297
322 322 323 324 326 323 319 321 325 324 323 324 327 326 326 324 322 320 319 319 319 319 319 318 318 316 315 312 308 307 305 305 304 302 301 300 300 299 297 297 297 296 296 297 297 297 298 296 296
322 322 322 322 323 321 320 319 323 323 322 324 327 326 325 323 321 320 320 319 319 319 319 318 316 314 310 308 307 306 307 303 301 300 300 299 298 297 297 296 296 296 296 296 296 297 296 296 296
323 322 321 322 323 322 319 320 319 320 322 323 325 325 324 323 321 321 320 320 320 318 317 315 313 310 308 307 307 305 303 301 300 300 299 298 297 297 296 295 296 296 296 296 296 296 296 295 294
322 322 322 322 320 321 324 319 319 319 320 322 322 324 324 323 322 321 321 320 319 318 315 313 310 308 308 306 304 303 301 300 300 299 298 297 297 296 295 295 296 296 295 295 294 295 294 294 293

GFSSGP_850_thetae_039.txt.gz
Theta_e
311 312 314 317 313 314 317 320 336 341 340 338 341 342 342 342 343 345 341 341 338 332 327 329 333 331 328 330 331 329 322 314 313 309 308 307 307 308 308 310 311 311 310 309 309 309 309 311 316
311 318 318 318 311 314 316 326 338 339 338 336 333 337 341 344 343 342 340 339 335 327 327 329 330 328 331 331 330 323 314 313 310 308 307 307 308 309 312 311 311 309 309 309 310 310 310 310 320
311 317 316 309 310 314 317 333 334 338 337 334 332 333 337 342 342 342 339 338 330 326 328 328 328 331 332 330 324 315 313 311 308 308 307 308 310 312 311 310 309 310 310 311 312 313 313 313 314
314 315 316 311 313 316 318 331 333 334 334 333 331 332 335 339 339 340 339 338 328 327 327 328 331 332 331 326 316 314 313 309 308 308 309 311 312 310 310 309 310 311 311 312 313 313 313 313 314
315 316 310 311 314 319 331 331 333 332 331 333 332 331 333 339 340 340 339 336 333 329 329 331 332 331 327 318 315 314 311 308 308 309 311 312 310 310 309 310 310 311 312 312 313 313 313 313 314
316 315 312 313 315 318 331 329 328 328 330 331 332 330 330 332 335 338 339 338 334 331 332 332 331 328 324 316 315 312 310 308 309 311 312 310 310 310 310 310 310 311 312 313 313 313 313 315 315
314 311 311 313 314 329 333 332 331 330 330 330 332 335 330 329 330 335 337 337 335 333 332 330 324 327 319 316 313 311 309 310 311 313 312 311 310 310 310 310 311 312 312 312 313 312 314 316 316
316 311 312 313 316 332 330 330 330 329 329 331 332 333 332 331 330 329 330 331 332 328 328 323 326 323 317 315 311 311 309 311 314 312 313 313 312 311 312 311 311 312 313 313 313 313 314 316 316
316 312 312 314 327 328 330 330 327 329 328 329 334 335 334 332 332 327 331 330 328 329 325 328 328 320 316 313 312 310 312 316 313 317 323 318 320 323 315 312 312 313 313 316 317 316 316 316 316
314 310 314 318 326 326 327 329 328 328 326 334 332 331 322 332 333 326 331 327 327 326 325 329 323 318 315 312 311 313 317 315 318 325 325 323 324 322 321 320 319 319 319 319 317 317 317 317 315
315 314 315 321 327 325 326 325 326 328 325 330 332 329 331 329 327 329 329 325 322 323 324 325 327 320 313 311 316 318 319 320 320 322 327 325 322 323 325 322 322 320 320 318 317 318 317 317 314
314 316 317 327 326 326 325 326 325 325 327 331 333 334 333 331 330 332 331 326 324 326 329 328 326 321 313 314 321 324 326 324 327 325 328 326 324 325 325 323 322 320 319 319 318 318 318 316 315
315 316 324 328 327 326 325 324 323 324 335 337 335 335 336 334 333 331 331 330 328 331 330 328 327 324 321 325 328 326 328 326 324 322 323 325 327 327 324 322 321 320 319 318 318 318 317 315 313
318 318 324 325 326 326 325 325 323 322 329 334 330 333 334 334 331 331 330 331 331 331 331 329 323 324 325 327 327 330 328 325 321 322 324 328 327 326 323 319 320 319 319 318 318 316 314 312 310
321 319 322 322 324 323 322 324 325 325 330 334 333 335 335 333 333 331 330 330 330 329 324 322 321 323 326 329 328 328 325 322 323 322 320 322 324 322 322 321 321 319 318 318 316 313 311 310 308
319 317 319 320 324 324 323 324 323 323 331 335 335 332 331 333 333 332 330 329 327 324 316 313 322 326 329 328 326 325 321 320 319 318 319 321 320 321 321 321 319 318 317 315 311 311 310 308 304
317 317 318 320 323 323 323 322 321 327 330 331 332 329 329 329 329 329 328 327 326 326 320 321 327 327 327 325 323 323 320 319 318 320 319 321 322 321 320 318 316 315 313 312 311 310 308 305 302
318 318 316 319 321 322 321 320 319 323 327 327 329 327 327 327 327 326 326 326 327 326 323 325 327 325 325 324 323 320 319 319 321 320 320 321 320 318 313 312 312 312 311 311 309 308 306 303 301
321 320 318 318 317 321 320 319 318 321 325 326 325 324 324 325 325 324 324 326 327 327 326 325 324 325 325 323 323 320 320 322 321 321 319 318 313 312 312 312 312 311 310 309 308 305 303 301 301
321 321 319 319 318 319 320 319 317 317 321 326 326 325 324 323 323 323 324 328 329 328 328 328 328 327 327 323 323 322 323 321 320 319 316 312 312 312 312 313 312 311 310 309 306 303 302 301 302
320 320 320 320 318 317 316 318 316 318 321 325 328 328 326 325 324 324 323 326 329 329 329 330 329 327 326 324 325 324 321 318 317 314 313 313 313 312 312 312 311 309 306 304 304 302 302 302 302
319 321 321 322 320 317 319 320 321 318 318 319 326 328 327 326 327 327 327 327 330 331 331 331 329 329 327 327 326 322 319 316 314 315 315 313 313 313 311 308 306 305 305 305 304 303 303 302 302
321 320 321 322 320 320 320 318 319 320 322 321 320 326 328 328 327 329 329 328 330 332 332 330 329 327 326 327 324 321 318 318 317 316 315 314 313 309 307 306 306 306 305 305 304 303 301 302 301
320 322 321 322 321 322 321 321 320 320 321 323 323 324 326 328 329 330 330 330 330 331 330 330 329 326 326 326 323 320 320 319 317 316 314 313 310 310 307 306 305 305 304 303 301 297 299 299 299
321 319 323 323 324 325 323 324 321 321 320 322 322 323 327 328 329 331 331 331 331 330 330 329 328 326 326 323 321 320 320 318 317 315 312 308 306 306 306 306 304 303 302 297 295 296 296 297 298
321 321 323 326 326 324 323 324 322 321 322 323 323 322 326 330 330 331 331 331 330 327 326 327 328 327 324 322 320 320 319 316 314 312 311 309 307 307 306 304 302 298 296 295 295 294 294 295 296
321 321 321 324 322 321 321 318 321 320 322 322 323 322 329 329 329 330 330 330 330 330 330 329 325 322 321 320 319 319 319 317 314 310 307 307 307 303 301 299 297 297 295 294 294 295 295 296 297
320 319 321 320 321 322 320 319 323 322 322 323 325 328 329 330 330 330 329 329 330 328 327 326 323 320 320 319 319 318 316 312 309 306 308 304 301 301 300 298 296 295 294 294 296 296 296 296 295
320 319 319 319 321 321 320 318 318 319 319 320 324 328 329 328 328 327 326 324 323 322 322 324 322 319 319 318 317 314 311 309 307 306 303 301 300 300 298 297 296 295 294 296 296 296 294 292 294
320 322 322 317 319 318 315 318 316 317 317 320 321 326 328 328 327 325 322 320 320 320 320 320 320 319 318 317 315 311 309 308 305 304 301 301 300 299 298 297 296 295 295 295 295 295 293 292 293

GFSSGP_850_thetae_042.txt.gz
Theta_e
314 311 314 315 311 310 314 316 328 339 339 339 341 342 342 342 343 341 341 339 335 335 339 339 338 336 328 330 330 327 315 312 309 308 307 308 309 310 311 310 309 309 309 309 309 314 321 318 316
312 314 318 318 308 311 312 316 335 337 337 333 335 340 341 344 342 340 339 340 327 333 339 339 337 330 329 330 329 319 313 310 308 307 308 309 311 311 310 309 309 310 311 312 312 313 320 316 318
311 312 316 307 306 310 312 327 334 337 336 333 331 336 339 341 341 340 340 336 327 332 338 337 333 328 330 330 322 314 312 308 307 307 309 311 311 310 309 310 311 312 313 313 313 313 314 315 317
314 314 314 308 310 312 315 326 334 336 333 332 333 331 337 339 340 341 340 338 336 335 337 335 328 331 331 325 314 313 309 307 308 309 311 311 310 309 310 310 311 312 313 313 313 313 313 313 315
314 314 309 309 310 316 330 330 331 331 331 332 330 330 336 341 340 340 337 333 328 335 334 329 331 331 327 316 314 311 308 308 309 311 311 310 310 310 310 311 312 312 313 313 313 314 315 315 315
315 311 310 311 316 332 331 331 328 328 329 331 330 330 331 338 338 337 335 329 333 333 330 331 331 325 317 314 312 309 308 309 311 312 311 310 310 310 311 311 312 313 313 313 313 314 315 316 315
313 309 310 312 314 330 332 331 330 330 328 331 330 331 332 336 337 337 336 334 330 330 332 330 326 321 318 315 311 308 308 310 312 311 310 311 311 311 311 312 312 312 313 313 313 313 315 316 316
316 309 311 311 313 326 328 330 330 329 329 331 332 331 328 331 334 334 333 331 330 329 325 322 320 319 316 314 311 308 309 313 312 311 311 311 311 311 311 312 312 313 313 313 313 314 316 316 316
315 312 312 313 320 329 329 329 328 329 330 334 334 333 330 332 331 330 331 332 330 326 324 322 322 317 317 313 310 309 313 313 312 311 312 313 312 313 311 312 312 313 315 316 316 317 317 317 317
312 311 313 313 324 325 329 329 326 328 332 333 333 331 331 330 328 329 331 329 327 324 322 322 326 319 315 312 310 312 314 312 313 317 317 319 321 319 318 317 318 318 318 318 318 317 317 317 317
313 312 313 320 324 325 326 325 327 327 325 329 329 329 330 329 328 329 330 325 324 320 326 328 322 318 314 312 311 315 314 321 322 323 324 322 322 323 322 322 320 319 319 319 318 317 317 317 315
313 314 314 323 325 325 324 325 325 326 327 329 328 328 330 327 328 328 325 320 321 323 328 325 321 317 313 311 315 316 316 320 325 327 326 324 325 326 324 322 320 320 319 318 318 317 318 317 314
313 314 321 326 326 325 326 324 324 333 334 330 330 330 327 327 329 324 323 320 321 324 327 326 322 315 312 317 319 320 323 324 324 326 327 326 324 326 324 322 321 320 319 318 318 318 317 316 312
318 319 324 326 325 325 324 324 321 332 334 333 331 330 328 329 330 326 324 323 324 326 326 327 321 314 315 322 324 325 325 325 324 324 326 323 325 325 325 323 321 319 318 318 318 318 314 311 310
319 322 323 324 324 321 322 322 323 330 332 334 334 332 333 332 331 330 327 325 328 327 329 327 324 323 325 327 326 326 327 327 326 323 322 323 326 325 325 321 321 320 319 318 318 314 311 310 309
317 319 321 321 322 322 320 321 323 324 333 330 327 333 333 332 331 330 329 329 328 329 329 327 324 323 325 326 327 329 328 326 324 322 319 319 321 323 322 321 321 320 319 317 313 311 310 309 305
315 316 318 322 322 321 321 321 320 323 329 333 331 333 333 332 331 330 330 329 330 330 329 326 323 324 325 328 328 328 326 324 321 318 319 319 320 321 321 320 319 317 314 312 311 310 309 306 302
317 318 317 317 321 321 321 320 319 324 325 333 333 332 332 331 332 330 330 330 328 326 317 322 322 324 328 329 328 326 324 320 318 319 319 319 321 321 320 318 313 312 312 311 310 309 308 303 301
320 320 320 317 318 321 321 318 317 322 327 329 332 329 330 332 332 330 330 329 326 324 314 315 321 325 325 327 326 324 324 321 319 321 320 320 320 319 313 312 312 312 311 310 309 308 303 301 300
320 321 319 316 317 321 319 318 316 316 323 326 328 326 326 329 328 330 329 327 325 326 323 317 318 320 325 325 324 322 321 319 321 321 320 319 316 312 312 312 312 312 311 310 307 303 303 301 301
320 320 319 318 317 315 318 317 317 317 319 324 325 327 326 327 328 327 326 325 326 326 326 325 324 323 325 325 324 323 322 322 322 320 318 316 313 312 312 312 312 310 307 306 304 304 303 303 302
318 318 319 320 319 317 315 316 317 316 316 322 324 323 323 325 326 325 325 326 326 326 327 327 327 326 326 326 323 323 323 324 322 319 315 313 313 312 313 312 309 307 307 306 305 304 304 303 301
319 320 319 320 320 318 319 316 316 317 318 316 321 325 323 323 323 324 324 325 327 327 328 328 329 329 328 327 324 325 324 321 318 315 315 314 313 313 313 310 307 306 306 305 305 304 302 299 298
319 320 319 320 319 320 320 319 318 317 319 319 319 324 325 324 323 323 324 324 327 328 329 330 330 329 328 326 325 326 324 319 317 316 316 315 314 311 310 309 307 306 306 304 302 300 296 294 295
319 318 319 319 321 320 322 321 319 318 318 318 320 322 324 325 326 325 325 327 328 330 329 329 330 328 328 326 327 325 322 319 319 319 317 315 312 311 310 307 305 304 304 302 298 294 293 293 294
320 318 319 321 322 322 321 323 321 318 319 320 321 321 322 325 326 327 329 328 328 329 330 330 330 329 328 325 326 324 321 320 319 317 316 313 311 307 305 305 305 301 298 297 294 293 293 294 294
320 320 319 321 319 318 321 318 319 319 322 321 321 322 325 327 326 328 329 330 330 330 330 329 329 329 326 326 324 321 320 318 316 314 311 307 305 306 307 302 301 299 297 294 293 292 294 295 295
319 317 320 318 321 324 319 318 321 321 324 322 321 322 328 329 330 330 330 330 330 330 328 325 326 327 327 324 321 320 319 316 313 310 308 307 307 307 301 301 298 297 296 294 292 294 295 295 295
318 318 318 317 317 319 318 315 313 319 320 321 321 323 328 329 329 330 330 330 330 329 328 328 327 325 325 323 321 320 318 317 314 310 307 306 303 301 304 301 298 297 296 294 293 294 295 295 293
318 319 318 314 317 316 313 316 315 315 316 322 325 326 328 328 328 328 329 329 329 329 329 328 327 324 321 321 319 318 318 316 312 308 306 305 305 304 300 299 298 298 297 294 293 294 295 294 292

GFSSGP_850_thetae_045.txt.gz
Theta_e
314 311 313 314 311 309 313 315 315 335 338 340 341 341 341 341 339 339 340 337 331 338 340 338 338 337 332 327 328 324 313 310 307 307 308 309 311 311 309 309 309 310 315 320 317 316 316 321 324
312 312 318 315 307 310 311 312 317 330 336 339 336 339 341 342 339 339 338 335 334 339 340 338 337 336 327 329 327 317 312 308 307 308 309 311 310 309 309 310 311 311 314 319 316 316 316 316 317
312 312 316 306 305 309 310 314 329 335 336 333 333 338 338 338 339 337 338 338 338 339 340 338 336 331 328 329 321 313 309 307 307 309 311 311 309 309 311 311 313 313 313 313 314 315 316 317 318
314 314 311 307 309 310 312 316 331 333 331 331 333 329 338 340 341 339 339 337 341 339 339 338 334 328 330 327 314 311 307 307 309 311 311 310 309 310 311 312 313 313 313 313 313 314 314 314 315
313 313 308 307 310 315 329 329 331 329 330 330 329 332 334 337 340 340 337 336 340 338 338 336 330 330 328 318 312 308 307 308 310 311 311 310 310 311 312 313 313 313 313 314 315 315 315 315 315
314 310 308 310 313 328 330 330 328 329 331 330 331 329 334 337 336 338 337 334 335 337 336 331 330 329 318 313 310 307 308 309 312 311 310 309 310 311 312 313 313 313 314 314 315 316 316 316 316
311 308 309 311 312 315 331 329 328 329 328 329 330 329 333 336 335 336 335 335 335 335 332 331 330 320 314 310 308 307 308 311 311 310 310 310 310 311 312 312 313 313 313 314 314 316 316 317 317
315 308 311 310 312 312 327 330 330 328 328 331 331 329 331 333 334 335 334 332 330 331 330 325 319 315 312 309 308 308 309 312 310 310 310 310 311 311 312 312 313 313 313 313 315 316 317 317 317
314 310 309 312 313 318 328 328 329 331 332 332 333 330 330 332 333 332 332 329 326 329 325 322 320 319 314 312 309 309 313 311 310 310 310 310 311 311 312 312 313 313 313 315 317 317 318 318 317
311 308 312 311 316 325 327 328 327 330 332 329 330 329 331 332 331 330 329 327 322 322 321 320 319 318 315 312 309 312 313 311 311 311 312 316 313 312 312 313 313 314 316 317 318 318 318 317 317
312 312 311 313 319 324 326 327 326 327 328 330 331 330 332 330 331 332 329 327 324 322 322 320 321 316 316 312 310 315 313 317 316 320 323 322 320 320 318 319 318 318 318 318 318 318 317 317 316
313 313 314 316 324 324 324 325 324 325 327 330 330 331 330 330 331 331 328 325 323 322 320 321 316 315 315 312 313 314 314 321 324 324 324 323 321 322 322 321 320 319 318 318 318 318 317 317 314
311 312 321 318 324 324 324 324 329 333 331 327 326 328 329 328 329 324 325 324 322 321 326 325 319 318 315 311 316 317 325 325 326 326 325 320 324 324 323 322 320 320 319 318 318 317 317 316 311
317 321 324 324 324 324 322 323 326 332 330 328 328 328 329 327 328 322 322 320 321 322 325 323 320 317 314 312 317 317 324 324 324 326 325 324 322 324 324 323 321 320 319 318 318 317 316 311 310
318 323 322 323 322 320 322 321 324 332 329 330 329 329 328 327 326 321 320 320 323 323 325 324 321 317 313 316 318 318 323 325 325 322 323 322 322 324 325 324 321 320 319 318 317 317 312 310 309
316 320 325 323 322 322 319 321 322 332 331 331 328 327 329 329 327 324 322 322 323 324 325 325 318 314 314 322 325 326 326 325 324 324 323 323 324 326 325 322 320 320 319 318 317 312 310 309 306
313 319 318 324 321 320 320 320 319 333 331 331 333 332 331 330 330 327 324 324 325 324 325 326 322 319 319 325 326 327 327 327 327 325 321 319 321 325 322 321 321 320 318 316 312 310 310 308 301
318 317 316 322 320 321 321 319 317 326 331 329 333 334 333 332 331 331 328 325 326 325 325 327 324 323 324 326 326 326 328 328 326 322 318 319 320 321 321 321 320 318 313 311 310 310 308 302 300
317 318 318 317 317 321 321 319 317 321 329 331 330 333 333 332 330 330 329 328 327 329 328 329 326 323 324 325 327 327 328 327 324 318 319 320 320 321 321 319 315 311 311 311 310 308 303 302 300
319 319 319 318 316 320 319 319 316 318 324 330 331 331 331 332 331 330 329 329 329 329 329 328 326 324 323 323 326 328 327 325 320 319 320 320 320 320 318 313 311 311 311 310 307 305 303 302 302
319 319 319 319 316 317 317 317 316 315 320 328 330 331 330 331 331 331 330 329 329 329 326 322 321 320 321 324 327 327 325 324 320 320 320 320 318 316 313 312 311 312 311 307 306 305 304 303 303
319 318 318 318 318 318 316 318 315 313 316 322 327 328 329 328 330 331 331 329 329 328 325 322 316 316 320 324 328 327 326 322 321 322 321 319 317 313 312 312 312 311 307 306 306 305 304 303 301
319 318 318 319 318 317 317 314 314 315 315 318 322 325 327 327 329 331 330 328 327 328 325 324 319 317 320 324 328 327 325 323 322 323 320 318 315 313 312 312 311 307 306 306 305 305 303 299 296
319 319 317 317 317 318 318 317 316 316 316 317 318 323 323 325 326 327 328 328 328 327 325 325 324 325 324 326 327 326 323 322 323 320 319 315 314 313 312 311 308 307 306 304 304 301 298 295 293
318 317 319 318 318 319 319 319 317 317 315 315 315 320 323 323 324 326 326 326 326 325 325 325 326 326 327 327 327 326 325 324 323 320 316 315 315 313 312 310 307 305 303 305 301 299 297 293 292
320 317 318 320 319 317 320 321 319 317 317 317 319 319 322 323 322 324 325 325 324 325 325 326 327 326 328 329 328 327 324 325 323 320 317 316 314 313 311 309 310 304 303 300 299 297 293 292 293
319 319 316 319 317 317 317 318 316 317 320 319 319 320 322 323 324 323 323 323 324 324 324 326 328 328 328 328 328 326 325 324 323 320 317 315 313 311 308 307 305 305 300 301 295 294 293 293 295
318 316 318 316 319 321 318 316 318 319 319 321 319 321 323 323 324 325 324 324 325 327 328 328 329 328 326 327 327 325 324 323 322 319 317 315 313 311 310 307 306 304 301 297 296 294 293 294 294
318 317 316 316 315 317 318 317 311 317 318 321 320 321 325 327 326 326 326 327 328 328 329 329 329 327 326 327 325 324 324 322 321 318 316 315 312 310 307 306 304 300 298 297 296 294 293 293 294
317 317 315 315 316 314 313 315 313 313 315 319 322 323 326 327 327 327 326 328 329 329 330 329 328 324 325 326 325 323 321 319 319 315 313 311 308 306 304 304 299 298 297 297 295 293 293 294 294

GFSSGP_850_thetae_048.txt.gz
Theta_e
314 311 312 314 311 308 312 313 313 320 335 339 340 341 339 339 338 337 338 337 336 338 339 335 335 332 329 326 327 322 313 309 308 307 308 309 311 310 310 311 312 314 315 316 318 323 325 325 320
312 314 317 314 307 309 310 311 314 319 335 332 335 337 339 341 337 336 337 337 335 339 339 336 335 331 327 327 326 315 310 307 307 308 310 311 309 309 310 313 317 318 317 316 316 316 318 318 318
311 316 316 305 304 308 309 311 326 334 334 332 334 336 337 338 335 335 337 336 338 340 339 336 335 330 327 328 322 312 308 307 308 310 310 309 309 310 311 314 317 317 316 316 316 316 316 317 318
311 313 310 307 308 308 309 317 325 332 330 330 329 331 336 337 338 336 337 337 336 339 338 337 334 328 329 327 314 309 307 308 310 311 309 309 311 312 313 313 313 313 313 313 313 314 314 316 316
313 313 308 307 308 310 323 328 330 329 330 329 330 334 334 335 340 339 338 339 335 337 337 337 331 329 328 318 311 307 307 309 311 310 309 311 312 313 313 313 313 313 314 314 314 315 315 315 315
313 309 307 309 309 314 329 329 328 329 330 326 330 330 333 334 338 339 337 337 338 338 337 335 329 329 319 313 308 307 308 311 311 309 310 311 312 313 313 313 313 314 315 315 315 316 316 316 314
310 306 308 309 310 311 326 329 327 328 329 329 329 330 333 335 335 336 336 336 336 335 335 333 330 324 314 310 308 307 309 312 310 309 310 311 312 313 313 313 314 314 314 315 316 316 317 317 315
314 307 310 309 310 311 324 329 329 328 329 331 330 330 332 334 334 335 336 336 332 333 334 331 323 315 310 308 307 309 312 311 310 309 311 311 312 312 312 313 313 313 313 314 316 317 317 317 316
313 308 309 311 313 314 328 327 328 331 332 331 331 330 331 332 333 333 333 332 330 329 326 324 319 312 309 308 309 311 312 311 310 310 311 311 312 312 312 313 313 313 314 316 317 318 318 317 316
310 308 310 310 310 317 327 327 327 330 330 330 330 331 331 332 334 330 329 329 328 326 321 319 313 313 315 313 309 311 312 310 310 310 311 311 312 312 312 313 313 313 315 317 318 318 318 317 316
310 310 310 312 314 320 326 326 326 329 329 330 329 331 329 329 329 326 324 326 326 324 322 318 318 317 317 310 310 309 312 310 310 311 312 311 312 312 312 313 315 316 317 318 318 318 317 318 317
313 311 312 313 317 324 324 326 324 325 326 329 329 331 329 328 327 326 322 322 321 320 320 319 319 317 314 312 309 309 311 311 312 316 320 317 317 317 318 319 318 318 318 318 318 318 317 317 316
311 311 318 319 323 324 324 324 329 330 329 329 330 329 327 329 328 327 325 323 322 322 321 319 320 315 313 310 309 314 313 316 321 324 324 322 321 321 321 321 320 319 319 318 318 318 317 317 311
319 322 323 324 324 324 323 325 327 330 329 329 329 329 330 330 329 328 326 324 323 319 320 319 316 315 313 311 311 314 315 323 324 324 325 322 323 324 323 322 321 320 319 318 317 317 317 313 310
317 324 323 323 322 321 323 320 327 330 328 327 329 329 330 329 328 324 324 324 319 320 322 317 316 316 315 312 313 315 319 325 326 326 325 325 322 322 323 323 322 321 319 318 317 317 315 311 309
317 319 324 323 321 319 318 320 323 330 329 328 327 329 329 328 325 322 321 321 320 322 326 322 319 318 315 312 314 316 324 324 324 325 323 323 322 322 324 324 322 320 319 318 317 317 311 310 309
312 316 320 323 321 320 319 318 322 331 330 329 328 329 328 328 327 322 320 320 321 322 324 323 322 320 314 313 316 317 318 323 325 324 322 323 320 321 325 323 321 320 319 319 317 312 310 309 303
318 317 315 322 321 321 320 319 320 331 330 330 328 328 328 328 327 324 322 321 321 322 324 325 322 316 313 315 318 321 325 326 325 325 324 321 319 322 324 322 321 320 319 316 312 310 309 304 301
316 317 317 316 316 320 320 319 316 324 329 329 331 329 328 329 329 329 327 323 321 323 324 325 325 321 317 316 324 326 327 327 326 326 325 318 319 319 321 321 320 319 315 311 311 309 305 303 302
318 318 317 317 316 318 318 318 316 318 327 328 331 331 331 330 331 330 330 328 325 324 323 323 325 324 322 323 325 326 326 326 326 326 322 318 320 320 320 320 318 315 311 311 309 306 305 304 303
318 318 318 318 316 317 317 317 316 314 321 327 328 327 329 328 330 330 329 329 327 326 326 325 324 326 325 322 323 324 326 326 325 324 320 319 320 320 320 318 314 312 311 309 306 306 305 304 303
319 317 318 317 317 317 315 317 314 313 317 321 326 328 328 329 330 329 329 329 328 327 327 327 327 325 324 323 322 323 323 326 324 324 321 319 320 319 317 314 312 311 310 307 306 306 305 302 300
318 317 318 318 316 316 316 315 314 313 314 315 321 327 328 328 328 329 329 329 329 328 328 327 327 327 325 324 323 323 325 327 325 322 320 321 318 316 314 312 311 310 309 307 306 305 303 305 299
318 318 315 315 315 318 317 315 316 314 315 315 315 323 328 328 329 329 330 330 330 329 328 328 327 326 325 324 323 322 323 324 324 321 322 321 317 315 313 312 312 311 309 307 307 305 308 299 296
316 316 317 316 318 319 317 318 317 316 315 313 314 318 323 329 328 329 329 329 330 329 328 328 328 326 322 319 321 322 324 325 324 321 322 320 317 315 313 312 312 311 308 310 306 306 301 301 301
318 316 317 319 318 317 318 319 318 317 318 318 316 316 318 322 326 328 328 328 329 329 328 328 327 326 325 321 322 322 326 326 323 323 323 319 317 315 314 314 312 310 313 309 307 306 301 295 293
318 318 315 317 315 316 316 316 313 316 319 319 318 317 317 318 322 325 327 326 327 327 327 327 325 326 325 325 325 326 326 326 325 323 324 320 317 315 315 316 313 312 310 307 305 298 295 293 293
317 315 317 314 320 320 316 316 315 316 317 319 319 320 319 320 321 322 323 323 325 325 325 325 324 324 325 325 326 326 327 325 324 322 321 321 319 318 317 314 310 309 306 303 298 297 295 294 294
317 316 314 314 313 317 317 316 310 314 316 317 318 320 321 322 321 322 323 323 323 323 324 323 324 324 326 327 327 326 325 323 321 321 321 320 319 317 314 309 308 306 302 298 297 295 296 294 293
315 316 314 315 316 314 312 315 312 310 311 315 318 321 323 325 325 325 325 324 324 324 324 325 326 327 328 328 326 324 324 323 322 320 320 319 317 315 309 308 303 300 298 297 295 298 294 293 294

GFSSGP_850_thetae_051.txt.gz
Theta_e
315 312 311 315 315 315 316 317 315 318 327 338 339 340 340 338 339 341 337 338 339 338 339 336 331 328 327 326 324 319 313 310 308 308 308 309 310 311 311 311 312 315 320 323 323 323 320 316 315
312 313 316 314 315 315 316 314 317 324 331 331 334 337 338 339 336 335 337 338 339 338 339 335 330 328 327 326 322 315 310 308 307 308 309 311 310 311 311 313 315 316 318 319 320 318 316 316 317
311 316 316 314 312 315 316 314 320 333 332 331 334 335 337 337 335 334 336 338 338 338 338 336 330 328 327 325 318 311 308 307 308 310 310 310 310 312 315 316 316 315 315 315 315 315 317 317 317
310 314 310 313 313 312 313 314 328 331 330 330 330 335 335 335 337 335 337 338 338 338 337 335 330 328 326 319 314 309 307 308 310 310 309 309 312 316 317 317 315 314 313 314 314 316 316 316 316
312 312 314 312 311 311 313 326 331 330 330 331 330 334 335 336 338 336 338 338 337 338 337 335 329 328 326 314 311 307 307 309 310 309 310 311 312 314 314 313 313 313 314 314 314 314 315 314 314
313 310 314 313 313 313 321 329 329 330 329 329 331 333 334 333 336 337 339 338 338 337 337 334 329 328 318 310 307 307 309 311 309 310 312 313 313 313 313 313 314 314 315 316 316 316 316 313 312
314 313 313 312 313 313 321 329 328 329 330 329 330 333 334 335 337 337 337 336 337 335 335 334 329 319 314 309 308 309 311 310 309 311 312 313 313 313 314 314 315 315 315 316 316 317 316 315 312
313 313 312 312 313 314 323 329 328 328 332 330 330 332 333 335 333 334 336 335 334 334 335 331 326 320 315 310 310 315 311 310 309 311 312 313 313 313 313 313 313 314 314 316 317 317 317 316 314
312 314 315 314 313 316 327 329 328 330 331 331 330 331 330 335 334 333 333 332 333 331 331 328 321 319 312 311 311 313 311 309 310 311 312 312 312 313 312 313 313 313 315 317 317 317 318 317 315
313 314 315 313 313 315 326 327 329 331 330 330 331 332 332 332 332 332 331 328 328 325 320 317 316 315 312 311 314 312 311 309 310 311 312 312 312 312 313 313 313 314 316 317 317 317 317 318 316
310 315 314 314 312 317 324 326 326 330 331 330 331 331 330 329 330 329 328 328 327 325 322 320 315 314 312 311 315 315 311 310 310 311 311 312 312 312 313 313 313 315 317 318 318 318 317 317 317
314 312 313 313 316 322 326 325 325 328 327 328 331 330 328 328 328 326 326 322 321 321 319 316 313 313 315 316 315 312 311 310 310 310 311 311 312 313 312 313 316 317 318 318 318 318 317 317 316
312 312 315 317 320 323 325 325 326 329 329 329 330 329 328 327 326 324 325 323 320 317 314 315 315 316 317 315 312 311 311 310 310 311 312 311 312 313 317 318 318 318 318 318 318 318 317 317 316
315 322 323 322 323 323 325 328 327 329 329 329 329 328 327 327 326 323 322 322 320 318 318 318 318 317 314 313 310 312 311 311 312 316 320 319 320 320 320 320 320 320 319 319 318 318 317 317 313
316 324 324 324 322 322 324 324 326 328 329 329 329 328 327 327 326 326 324 322 321 320 319 318 313 312 311 312 310 312 312 313 319 323 324 323 322 323 322 322 322 320 320 319 318 318 317 314 310
319 320 325 324 322 320 318 322 328 329 329 328 328 328 326 327 327 327 325 324 320 319 319 320 317 315 312 310 310 314 314 320 323 324 324 323 322 321 322 323 323 322 321 319 318 317 315 310 309
316 320 321 324 322 320 320 321 327 330 328 328 328 328 328 328 328 324 324 322 318 319 318 316 316 317 316 315 313 313 314 318 324 324 321 322 322 321 321 321 323 321 319 318 317 316 311 310 306
320 319 318 321 322 321 321 322 326 330 329 329 328 328 328 327 327 321 322 320 318 321 323 321 319 319 319 317 313 313 316 322 324 323 323 322 323 320 319 322 322 320 320 319 317 313 310 308 305
317 318 318 317 319 320 321 322 321 330 330 330 328 328 329 327 327 323 320 320 319 320 324 324 324 323 321 316 313 313 317 316 318 324 323 323 322 318 319 321 322 321 319 318 314 310 310 306 306
318 319 319 317 317 318 319 320 318 327 331 330 330 328 328 328 328 327 323 321 320 321 321 322 325 324 320 315 313 316 318 320 323 324 325 324 321 318 319 320 321 319 318 315 311 310 307 306 305
319 319 319 319 318 317 319 320 318 318 325 329 329 330 329 329 327 329 328 327 325 322 322 322 324 324 324 319 316 316 322 324 325 325 324 324 320 318 320 320 319 318 315 311 311 309 306 305 304
320 317 318 318 319 320 316 321 317 316 319 323 330 329 329 327 327 328 329 329 329 327 325 323 323 323 325 325 322 321 322 324 323 323 324 323 319 319 320 320 317 314 312 311 311 307 306 305 305
320 317 318 318 319 319 317 319 319 315 316 319 321 328 329 327 326 326 327 328 329 327 326 326 325 325 325 327 327 324 323 323 324 324 324 321 319 319 320 319 315 313 312 311 308 306 306 309 305
317 318 317 317 319 322 319 319 320 319 318 317 317 321 326 327 325 326 326 328 328 328 328 327 327 327 327 327 326 325 324 323 323 323 325 323 320 319 319 316 314 312 312 310 307 307 307 306 308
317 319 322 322 323 323 319 320 322 319 318 317 319 317 319 324 327 326 327 327 328 329 329 328 327 327 327 327 326 325 323 323 324 325 324 323 321 319 318 315 313 312 311 312 309 309 306 307 304
319 319 323 321 322 320 318 321 320 318 316 318 318 316 316 318 324 328 327 327 328 328 329 329 329 328 327 327 326 326 321 322 324 326 324 323 321 320 318 316 314 313 313 312 307 306 306 302 296
319 321 317 319 317 323 320 318 318 316 318 320 320 318 317 316 318 322 327 328 328 328 328 328 329 328 328 327 327 326 323 321 321 322 324 322 321 319 317 316 313 313 312 305 306 306 301 295 294
318 317 321 319 322 322 318 318 319 318 319 318 320 320 320 320 319 319 320 323 325 327 326 327 328 328 327 325 324 326 325 323 323 323 324 323 322 318 316 314 311 309 303 306 305 297 296 297 298
319 319 316 317 318 321 321 320 317 317 318 318 318 320 321 321 321 321 321 322 322 323 323 324 325 325 326 325 324 324 324 324 324 324 323 323 321 318 316 312 310 307 306 304 297 297 300 299 295
317 320 319 323 320 317 318 319 315 315 313 313 317 319 322 323 323 323 322 323 323 323 323 323 323 323 323 324 324 325 324 323 323 323 321 320 320 317 316 310 307 306 305 299 300 302 298 294 294

GFSSGP_850_thetae_054.txt.gz
Theta_e
315 314 311 316 318 318 320 320 320 322 326 335 339 337 335 340 343 341 338 342 342 341 338 330 329 329 334 336 334 329 325 320 314 309 308 308 309 310 311 312 317 321 322 321 320 318 315 315 316
312 311 315 317 318 319 319 320 320 326 331 335 337 340 339 339 338 339 338 339 340 340 338 334 328 327 327 327 325 323 317 312 309 307 308 310 311 311 312 316 321 322 322 321 318 315 316 316 315
311 314 318 318 318 318 319 319 320 332 335 334 337 338 339 338 339 337 337 338 340 339 338 336 327 327 327 325 322 315 310 308 307 308 310 311 311 311 314 317 319 320 322 317 316 316 316 315 315
313 315 315 317 317 318 317 319 326 333 333 334 335 338 337 338 337 336 338 339 340 339 339 336 328 327 326 322 315 310 308 307 308 310 311 311 312 315 316 315 316 317 315 316 316 315 315 314 314
313 315 318 317 317 317 317 319 328 333 332 332 334 337 337 338 337 337 339 339 341 339 338 335 328 327 320 313 310 308 307 308 310 310 311 313 315 316 315 315 314 314 315 315 314 315 314 313 313
316 315 317 317 317 316 318 322 330 333 331 331 333 333 337 335 336 337 339 338 338 338 337 335 329 326 319 317 309 308 309 310 310 310 311 316 316 315 314 313 314 314 315 315 316 315 313 311 310
317 317 317 317 317 317 321 328 330 331 330 331 332 333 337 336 336 337 338 337 337 336 336 334 328 327 316 318 309 311 314 310 309 310 312 314 313 313 314 314 315 316 316 317 317 316 315 312 310
316 317 317 317 316 318 322 327 330 330 332 333 333 333 337 335 337 335 338 337 336 335 332 329 327 325 314 312 311 310 314 310 310 312 313 313 313 314 315 315 315 316 316 317 317 317 316 314 310
314 317 317 317 316 319 324 323 330 332 333 333 334 334 333 334 335 334 334 335 334 334 331 329 327 316 312 315 312 312 309 312 313 313 313 313 314 315 316 315 314 315 317 317 317 318 318 316 312
316 318 317 318 318 318 319 323 327 332 333 333 334 332 331 332 333 331 332 331 332 332 330 329 320 318 317 314 313 312 312 313 313 313 313 316 317 319 315 313 314 315 317 317 317 317 317 316 313
317 318 318 317 317 317 319 322 328 331 332 332 334 331 331 331 332 331 329 329 328 329 328 321 317 313 313 315 314 315 316 313 312 312 313 313 313 313 313 314 315 316 317 317 317 317 317 317 316
318 318 318 318 318 319 321 327 329 330 331 330 333 331 330 330 329 329 327 325 323 321 319 316 316 316 318 314 312 312 311 313 311 312 312 312 312 313 316 318 319 316 317 317 317 318 317 317 317
318 319 321 319 321 323 327 328 328 331 332 333 330 329 329 329 328 325 324 321 319 318 317 317 316 314 314 314 315 314 313 311 313 312 312 312 314 313 315 317 317 317 317 317 318 318 318 316 317
319 323 326 324 325 326 327 329 329 332 332 332 331 331 329 328 327 325 322 321 319 319 318 317 315 315 316 315 316 314 312 312 312 311 312 312 312 312 314 316 318 318 318 318 318 318 317 316 314
319 324 327 327 326 327 327 329 327 332 332 332 331 330 329 328 326 325 325 323 320 318 317 314 315 316 316 316 315 319 318 318 314 315 311 312 314 315 318 320 320 320 319 319 319 318 317 316 312
321 325 322 328 327 324 325 324 328 331 332 331 331 330 329 329 326 325 324 323 321 321 319 318 318 318 319 320 316 320 319 313 318 313 319 321 320 320 320 321 321 321 321 321 319 317 315 314 309
321 321 322 325 324 324 325 324 327 331 331 330 330 329 329 328 329 327 325 323 322 322 321 320 320 318 319 321 314 311 315 314 315 321 323 323 323 322 322 322 322 322 322 320 318 317 314 311 308
320 320 321 323 323 325 325 325 324 331 329 329 330 329 330 330 328 327 326 324 324 323 321 320 321 320 317 320 313 313 315 317 318 322 323 323 323 323 322 321 321 322 321 319 317 316 316 310 307
321 321 320 322 322 322 322 323 323 329 330 329 331 330 330 330 329 327 326 324 323 323 323 323 323 322 324 323 322 319 316 319 317 321 324 322 322 322 322 321 321 322 320 318 317 316 312 309 307
322 321 321 321 321 321 322 322 323 327 331 330 330 330 329 330 329 326 326 325 323 323 324 324 324 325 326 325 324 321 320 321 319 321 321 322 323 322 322 320 321 322 321 319 316 314 310 309 307
322 322 321 321 321 321 322 322 323 324 328 329 330 330 328 328 330 329 326 326 325 324 325 326 327 328 328 326 325 322 321 321 318 316 317 322 323 323 320 319 320 321 320 318 316 313 310 310 308
321 321 321 321 322 322 321 322 321 323 325 328 329 331 330 327 328 331 330 327 326 325 324 324 325 326 328 328 325 323 321 321 321 319 322 323 323 323 319 319 320 320 319 317 315 311 310 309 307
321 321 321 322 322 322 322 322 322 320 322 323 325 328 330 330 328 329 331 331 329 328 326 326 326 326 327 328 327 326 323 322 324 324 324 323 324 322 319 319 320 319 319 316 312 311 310 308 308
321 322 322 323 323 323 322 322 322 321 322 322 321 323 327 329 330 328 330 332 332 332 331 330 328 327 327 327 325 326 327 325 326 322 322 323 324 323 320 319 319 318 317 315 312 311 311 308 309
322 322 324 325 324 324 322 322 322 322 322 322 323 323 322 325 329 330 329 330 332 332 333 331 329 329 328 327 326 326 326 326 326 325 321 323 324 324 322 319 319 316 315 314 312 312 309 307 307
322 323 324 324 324 323 321 322 322 322 321 321 323 322 320 322 325 329 329 330 331 332 333 330 329 329 329 327 326 326 326 326 326 325 323 324 324 323 320 319 318 315 315 312 311 308 306 306 305
322 323 322 323 323 325 322 321 321 321 321 322 322 323 321 321 324 325 327 330 331 332 332 331 331 331 331 328 328 327 326 325 326 324 322 323 324 324 321 319 318 317 313 311 311 307 305 303 294
322 322 323 323 324 324 321 321 319 320 319 320 321 322 324 323 322 323 325 328 330 331 331 331 331 331 331 329 328 327 326 326 326 323 322 321 322 323 322 320 316 315 311 309 308 305 305 301 300
322 322 322 322 322 323 322 321 321 320 320 320 322 322 323 325 324 324 323 324 325 328 329 329 329 329 330 329 327 326 325 324 324 324 324 322 322 322 321 318 317 314 309 307 304 304 302 302 301
322 322 322 324 323 323 324 322 320 320 320 320 321 321 323 326 327 325 326 326 326 326 327 327 327 328 328 329 328 326 324 324 324 324 323 322 321 321 320 320 316 311 308 306 305 301 301 300 300

GFSSGP_850_thetae_057.txt.gz
Theta_e
316 315 317 317 320 320 320 321 322 323 325 326 331 329 329 327 336 340 337 344 345 343 340 332 338 340 340 338 337 336 335 335 326 317 309 308 308 309 311 315 324 324 322 322 319 315 315 315 314
320 317 317 318 320 319 321 321 322 322 327 330 332 333 335 334 340 341 337 344 345 343 339 336 333 339 337 337 336 335 335 326 317 310 307 308 310 311 313 317 323 326 321 318 315 315 315 314 314
318 317 319 321 320 319 319 321 322 325 330 329 331 334 337 338 339 340 340 339 338 343 339 337 331 336 336 336 336 334 326 317 310 307 308 310 311 313 317 321 324 327 318 316 315 315 315 314 314
316 317 317 318 319 320 320 320 321 327 329 330 330 335 339 341 341 341 340 342 343 343 337 335 330 333 336 336 331 325 318 310 307 309 311 311 313 317 321 322 323 324 316 316 315 315 314 314 313
316 317 319 320 319 320 320 319 321 327 330 331 331 332 339 340 340 337 341 342 342 341 339 335 328 330 330 327 324 317 311 308 309 311 311 312 315 318 318 320 322 316 315 315 315 314 313 311 309
318 317 318 318 319 319 319 320 323 329 331 331 331 332 340 340 339 337 339 342 340 339 339 334 328 328 326 321 315 311 308 308 311 311 312 315 316 316 316 315 315 315 315 316 315 313 311 310 309
318 320 319 319 319 319 320 326 327 330 330 330 331 332 339 335 335 339 339 338 337 335 330 332 329 327 321 322 319 313 314 313 313 312 314 316 315 315 314 314 315 315 316 316 315 314 311 310 308
317 319 319 318 319 320 324 325 328 329 330 332 332 334 336 335 338 339 337 337 337 334 333 331 328 325 320 317 318 314 319 318 314 314 316 316 314 314 314 315 316 316 317 317 317 317 314 310 309
317 318 319 319 319 320 322 324 327 331 330 330 336 337 334 334 336 335 337 336 336 335 333 330 328 328 325 315 312 314 317 317 316 317 315 314 314 314 316 316 316 317 317 317 318 318 317 312 310
318 319 319 319 319 320 320 321 323 330 331 332 336 333 332 333 333 332 333 333 333 331 329 329 328 326 320 318 316 317 317 316 316 315 314 314 315 320 316 315 316 317 317 317 317 318 316 314 312
319 319 320 319 319 319 320 320 324 329 331 325 334 331 330 330 330 330 330 330 331 330 329 328 325 321 322 317 314 314 315 318 315 316 319 316 317 322 316 315 315 316 317 317 317 317 316 317 313
319 319 319 319 319 321 323 324 328 328 331 332 335 331 329 328 330 326 328 328 329 327 327 324 320 316 315 316 320 320 319 315 313 313 314 316 319 319 314 314 316 316 317 317 317 317 318 317 316
320 320 320 322 321 322 325 328 328 329 332 335 332 332 332 331 330 327 324 325 323 322 320 319 315 317 319 319 314 312 312 313 312 313 318 313 318 319 318 320 320 319 319 318 317 318 318 316 315
321 320 323 324 322 323 326 327 327 330 334 333 332 331 330 330 328 323 321 320 319 318 317 316 316 317 316 312 313 313 314 313 318 320 315 314 321 320 321 321 321 320 319 318 318 317 316 314 313
320 321 325 325 324 326 326 325 325 332 333 332 331 331 330 329 327 326 322 319 319 317 317 315 315 317 316 314 312 313 316 320 320 317 314 318 322 321 321 320 321 320 319 318 317 318 316 314 312
320 322 324 324 325 325 325 327 322 331 331 330 329 327 330 329 327 327 324 323 319 319 318 317 317 316 315 314 315 318 320 318 316 319 322 321 320 316 317 322 320 319 319 319 318 318 316 315 313
321 322 324 326 327 325 325 326 328 329 329 329 329 328 329 330 328 326 326 324 321 320 318 317 317 318 316 316 317 320 321 317 320 320 323 319 314 317 319 321 321 321 320 320 320 317 317 315 313
320 322 323 326 324 323 325 326 325 329 329 329 330 330 329 330 329 327 325 324 323 320 319 320 320 318 320 319 320 321 321 322 320 321 323 320 323 324 322 323 324 322 321 321 320 318 317 315 313
321 321 322 324 324 325 323 323 324 327 329 328 330 330 330 331 330 328 325 324 323 323 322 322 321 321 322 322 322 321 320 320 321 322 324 324 323 325 325 324 324 322 321 318 320 319 316 314 312
320 321 321 322 322 322 323 323 323 326 329 328 330 331 329 330 330 328 327 326 325 324 322 322 321 321 322 321 321 321 320 320 322 323 325 324 324 324 324 324 324 321 320 320 320 318 316 314 312
322 322 322 322 323 323 322 322 323 323 327 328 328 330 329 329 330 329 328 326 326 325 324 323 324 324 324 324 323 322 321 320 321 323 324 321 322 322 322 322 324 321 320 319 320 317 316 314 312
323 322 321 322 322 322 323 324 324 323 325 328 328 328 329 328 330 329 328 328 326 325 326 326 326 325 326 327 326 325 323 321 321 323 324 322 317 318 320 322 322 321 320 319 320 318 316 314 313
322 322 322 322 322 323 324 322 324 322 322 324 327 328 328 327 329 329 328 328 328 327 326 326 327 327 328 328 327 327 325 323 323 324 325 322 318 321 323 323 322 320 319 319 318 316 315 313 312
322 322 322 323 323 324 323 324 323 324 322 322 323 325 327 329 327 329 330 329 328 328 328 327 327 327 327 327 329 328 327 326 323 324 327 326 324 323 323 322 320 319 319 318 317 315 313 313 311
322 323 325 327 325 325 323 323 323 324 323 322 323 323 324 327 329 327 329 331 330 330 329 329 329 328 328 328 328 329 329 329 328 326 327 325 324 325 322 322 322 319 319 316 314 314 313 311 310
323 323 326 328 328 326 324 322 323 323 321 321 322 324 324 324 327 329 328 329 331 332 332 332 331 331 330 329 330 330 330 330 330 329 328 327 326 324 323 323 323 318 315 314 314 313 310 310 307
322 324 323 325 326 326 324 323 323 322 322 322 322 323 324 324 324 327 329 329 330 332 333 334 334 333 332 331 330 329 323 330 330 328 329 328 325 324 322 323 322 320 317 313 315 314 309 307 306
322 324 324 324 327 327 323 323 322 321 320 320 321 322 324 324 324 325 327 329 330 331 333 335 335 334 333 332 331 331 331 330 328 327 327 326 323 322 322 322 322 319 315 315 315 309 307 306 306
323 324 324 324 324 327 326 323 322 321 321 320 320 321 322 325 326 325 326 327 329 331 333 335 335 334 333 333 332 331 330 329 326 326 327 325 323 322 322 322 320 317 316 314 311 307 306 305 304
323 323 323 325 326 326 325 326 322 322 321 321 321 320 322 324 325 326 326 326 327 330 332 333 333 333 333 333 332 330 329 328 328 327 326 326 323 323 322 321 319 316 315 312 308 307 305 303 303

GFSSGP_850_thetae_060.txt.gz
Theta_e
315 315 317 320 318 319 320 319 320 321 327 330 331 330 331 329 331 337 330 326 331 333 336 338 339 340 339 337 335 334 334 334 330 320 310 308 308 314 327 327 323 323 320 317 314 314 313 312 312
318 322 320 317 318 319 319 320 321 323 329 328 326 328 326 326 338 338 335 328 326 327 337 339 340 340 339 338 336 334 334 333 324 313 308 308 309 320 326 323 321 321 318 314 314 314 313 313 313
317 319 318 320 320 319 320 320 321 322 326 329 329 326 331 337 341 342 341 339 335 335 340 338 340 340 339 338 336 335 335 328 317 308 308 309 311 318 325 325 321 318 314 315 314 314 314 314 312
318 317 317 318 318 319 320 321 321 322 325 328 327 332 325 332 339 342 342 341 342 342 340 338 340 341 339 337 336 335 332 322 310 308 309 311 314 319 324 325 319 315 315 315 314 314 313 310 309
318 317 319 319 319 320 320 320 320 320 327 327 326 329 328 324 340 339 341 341 340 339 340 338 340 341 337 337 335 334 325 313 308 309 311 312 316 321 324 323 315 315 315 315 313 312 310 309 308
319 318 318 318 319 320 320 320 320 322 327 327 327 325 325 328 333 337 340 341 341 339 338 336 338 337 336 336 334 326 314 308 309 311 313 316 320 322 322 319 315 315 316 315 313 311 309 308 306
318 319 319 319 319 320 322 323 324 327 326 327 325 327 333 333 333 337 336 336 337 336 335 327 333 333 332 331 324 314 309 310 313 314 317 319 320 321 320 315 315 316 316 316 314 311 309 308 307
318 318 318 319 319 320 323 323 324 325 327 324 322 331 327 324 335 334 336 335 335 334 331 327 327 324 327 326 321 319 319 319 315 318 322 321 320 317 315 315 316 317 317 317 317 313 309 308 308
317 318 319 320 320 320 321 321 321 322 327 329 335 335 333 331 333 333 334 333 334 333 331 328 326 327 325 326 321 317 317 317 318 322 320 317 317 316 315 316 316 317 317 318 318 316 311 310 309
318 318 319 320 320 319 320 321 321 325 328 324 331 332 333 332 332 331 332 331 332 331 330 328 328 327 325 324 319 314 314 316 321 319 317 316 316 315 315 316 317 317 317 318 318 317 314 313 312
318 319 319 319 319 319 319 320 320 322 323 321 325 328 330 331 330 330 330 330 331 330 329 328 328 326 324 321 315 315 313 315 319 316 314 316 316 316 315 315 316 317 317 317 317 317 316 314 312
319 319 319 319 320 319 320 322 325 326 323 321 331 331 330 330 329 327 329 328 327 328 327 327 325 324 321 317 315 314 314 318 318 319 319 319 318 316 315 315 316 317 317 317 318 317 317 316 313
320 320 319 320 321 320 320 323 327 328 328 331 332 332 331 331 327 325 324 326 326 325 323 324 324 323 321 314 315 314 316 319 318 318 316 316 315 316 315 314 315 317 318 318 318 318 318 316 314
320 320 320 323 325 324 322 325 323 323 326 333 332 332 331 329 327 322 322 323 322 322 322 323 321 320 317 316 315 315 318 315 314 314 315 315 316 317 317 320 320 319 319 318 318 318 317 314 316
320 320 321 323 322 323 325 326 325 322 323 330 331 331 329 329 325 322 320 321 320 320 319 318 317 317 316 314 318 317 312 312 313 315 315 316 319 316 321 322 321 321 320 319 318 318 316 315 312
321 320 321 324 323 322 326 326 325 323 323 329 329 329 330 328 327 325 321 320 319 320 319 317 316 316 316 318 318 313 313 313 315 317 317 316 321 321 319 320 320 321 320 319 318 318 317 315 313
320 320 322 325 324 325 327 326 325 323 324 328 327 326 330 329 328 325 323 321 319 318 317 316 317 317 318 317 315 312 314 315 318 318 320 320 315 318 317 322 322 321 320 319 319 319 317 317 314
321 320 322 324 326 326 325 325 327 327 327 329 327 323 330 329 327 326 324 322 320 318 318 317 316 315 315 314 315 318 320 317 317 318 321 323 320 316 315 318 321 322 321 321 320 319 318 317 316
322 321 321 325 324 324 325 324 326 326 326 327 329 327 329 331 329 326 325 323 321 319 318 316 316 316 315 316 317 320 322 321 316 320 319 321 319 319 322 323 322 323 322 322 321 320 319 317 315
321 319 320 322 324 324 323 323 323 327 327 327 328 330 329 330 329 326 324 324 321 318 319 319 317 316 317 319 318 322 320 317 315 318 320 321 321 321 322 322 324 324 323 323 319 320 320 318 316
321 321 321 322 323 323 323 322 322 324 326 326 329 331 328 331 330 328 325 324 322 321 320 321 318 319 321 324 321 321 320 319 319 320 320 323 321 320 321 322 321 323 324 321 319 319 319 317 315
323 322 322 321 323 322 323 323 324 324 325 326 327 330 329 329 330 329 327 325 325 323 323 322 321 321 321 322 322 321 322 322 321 320 322 322 320 321 322 323 322 320 320 321 320 319 319 316 315
322 323 323 322 321 322 322 324 325 324 324 326 328 327 330 328 330 330 328 327 326 326 324 323 322 322 323 323 324 324 323 322 321 321 323 324 324 322 319 321 319 320 320 322 321 320 319 314 314
322 322 323 323 322 325 323 324 324 324 325 324 326 326 328 329 330 330 329 328 327 326 326 325 324 325 325 325 324 326 327 325 323 323 323 324 324 323 319 318 319 322 323 322 321 320 318 314 314
322 322 325 330 328 328 323 323 326 325 323 325 325 325 327 329 328 330 330 329 329 328 326 326 325 326 326 327 328 328 326 328 326 324 324 324 325 325 323 322 322 322 322 321 320 319 315 314 314
322 323 326 327 331 330 327 325 323 324 324 323 322 322 325 327 329 328 330 329 329 329 328 327 327 326 327 328 328 328 329 328 327 326 325 325 325 325 325 323 322 322 322 320 319 318 314 314 313
321 325 324 326 327 330 328 326 324 323 322 322 322 323 324 324 327 329 328 330 330 329 329 329 329 328 328 328 328 328 327 322 329 328 327 328 326 327 326 324 324 322 322 320 317 314 313 313 314
321 321 326 326 329 329 325 323 324 322 322 320 321 323 325 324 324 325 329 329 331 331 331 330 330 330 330 330 330 329 325 327 327 326 329 327 328 327 325 324 323 322 321 318 314 315 314 314 311
320 322 325 325 326 329 330 326 323 323 321 321 322 321 322 324 325 325 326 329 329 331 332 333 333 333 334 333 333 331 330 330 328 328 327 325 326 325 325 321 321 320 319 316 315 314 313 310 308
321 323 323 328 326 328 330 327 323 324 323 322 322 320 322 323 325 326 326 327 330 330 332 335 336 336 335 334 333 332 331 330 327 326 325 324 324 322 322 320 320 319 318 315 314 312 309 306 305

GFSSGP_850_thetae_063.txt.gz
Theta_e
314 315 316 319 316 311 312 315 316 324 328 329 331 327 328 329 336 337 334 333 340 335 335 339 341 338 335 332 331 332 332 332 326 314 309 309 312 324 316 321 322 318 315 313 313 312 311 317 322
315 319 322 322 312 311 313 315 317 326 328 329 327 327 326 338 338 338 339 339 330 331 326 326 328 339 335 331 331 332 332 330 321 309 309 310 325 324 319 321 319 316 314 313 312 312 312 318 322
316 321 322 312 312 314 314 316 316 321 328 327 327 328 335 333 329 331 326 327 336 327 327 330 335 339 337 335 333 333 333 328 315 308 309 318 325 319 319 319 317 314 313 313 313 313 312 317 321
317 318 318 313 313 315 316 316 318 320 326 326 330 330 329 336 335 331 324 331 338 328 331 337 339 338 338 334 333 333 332 324 310 308 310 325 323 319 319 317 314 314 314 313 313 310 310 318 320
320 320 312 313 314 315 316 318 323 327 328 326 327 329 325 326 335 335 333 338 339 340 339 337 338 340 339 335 333 333 328 315 308 309 312 326 326 323 317 315 314 314 314 313 310 309 309 318 319
319 318 313 314 315 316 318 322 326 327 327 327 326 326 325 330 330 332 331 338 338 338 338 338 339 339 339 336 334 330 320 309 308 311 317 326 326 323 315 314 315 315 314 312 309 308 307 314 318
315 311 312 313 315 317 321 322 326 326 324 325 324 324 321 324 326 331 331 334 335 335 334 333 326 330 331 335 328 322 314 312 321 316 322 325 324 320 314 315 316 315 314 311 309 308 307 310 316
317 311 312 314 315 316 321 322 325 324 322 325 325 324 325 324 330 333 332 333 334 335 332 330 328 325 323 323 323 321 316 317 324 322 323 325 324 321 315 315 316 316 316 313 309 308 308 310 314
318 311 312 314 317 317 320 320 320 326 329 328 326 331 329 325 331 332 335 331 333 333 332 328 326 325 325 323 323 322 318 318 321 324 325 325 325 320 316 316 316 318 318 315 310 309 309 309 311
314 311 313 315 315 316 318 317 321 327 325 323 324 325 330 331 330 331 331 331 331 331 330 328 325 325 325 324 322 322 312 316 322 323 322 321 321 317 315 317 317 318 318 318 315 312 311 311 311
317 313 315 316 318 319 317 322 324 324 322 322 325 329 331 331 330 330 328 329 330 329 329 328 327 326 326 324 322 321 314 314 319 322 321 318 317 315 316 317 317 318 318 318 317 315 313 312 310
316 317 317 318 322 321 318 324 324 323 324 324 329 330 329 329 328 328 327 327 327 328 328 328 328 327 324 323 322 318 314 317 319 318 317 315 315 315 315 316 317 317 317 317 318 318 316 315 310
317 317 319 320 321 323 323 325 325 323 322 324 330 330 329 328 325 325 324 325 327 327 326 327 327 324 323 318 315 318 320 318 315 317 318 318 316 315 315 314 314 317 317 318 318 318 318 316 312
318 319 318 320 322 322 323 323 323 323 324 326 330 331 330 328 326 322 324 324 324 324 324 324 324 323 319 315 314 313 314 317 318 317 315 315 316 317 314 314 314 316 318 318 318 318 318 317 316
320 318 317 320 322 321 324 324 324 322 325 329 328 328 328 327 323 322 322 322 323 323 322 323 324 321 317 317 315 316 318 320 317 314 315 317 317 318 314 313 318 319 320 319 318 318 317 317 317
318 317 317 318 321 322 323 323 324 323 322 326 329 329 328 326 325 321 321 320 320 321 321 323 322 318 315 314 314 319 317 316 314 314 315 317 316 314 314 319 321 321 320 320 319 318 318 317 315
317 318 317 321 321 323 323 323 324 323 324 323 322 326 328 325 325 322 320 320 320 319 319 319 317 316 315 315 315 316 316 313 314 316 318 314 314 314 320 320 321 321 321 321 319 319 318 317 315
318 318 317 321 322 322 323 323 322 323 324 324 324 326 328 326 326 323 321 319 318 318 318 317 317 316 314 314 317 317 315 313 313 318 318 315 315 315 318 320 319 321 321 321 320 320 319 317 316
319 319 318 321 322 324 323 322 324 323 325 325 326 325 329 327 326 324 321 319 318 317 317 317 318 317 317 318 318 314 312 313 313 316 315 319 319 320 317 314 317 319 320 321 321 321 320 318 317
320 320 317 320 322 322 320 319 325 325 326 324 326 328 330 328 326 326 323 319 319 318 317 317 317 317 318 316 314 313 316 314 314 314 318 319 320 321 318 316 318 320 322 322 322 322 321 320 318
320 319 318 319 322 321 320 319 324 325 323 323 326 326 329 328 326 326 323 321 319 318 317 316 316 316 316 316 317 318 320 320 320 316 319 319 320 319 319 318 319 320 322 323 322 322 321 319 319
319 320 322 321 321 320 319 320 322 324 325 325 328 328 329 328 326 325 323 323 317 316 316 316 316 315 316 318 318 319 321 321 318 314 314 316 318 319 320 320 320 321 321 322 321 321 322 320 320
320 321 322 322 320 319 318 320 320 322 321 323 329 328 329 330 329 325 324 324 323 318 317 316 316 316 319 320 322 322 321 320 317 318 320 319 319 320 321 321 321 321 322 323 321 320 321 321 319
320 321 321 321 320 320 320 320 319 321 321 322 325 329 327 329 329 328 325 324 323 323 322 318 316 317 317 320 322 323 322 321 321 321 321 321 322 322 323 323 323 322 322 322 320 321 322 321 320
320 321 322 323 323 321 324 326 321 321 321 322 324 329 326 322 330 329 327 325 324 324 324 323 321 318 321 323 322 322 324 324 323 322 322 321 321 322 322 323 323 321 320 319 322 323 322 320 319
320 320 323 325 325 325 326 327 322 321 321 323 323 325 326 327 329 329 329 328 327 325 325 325 324 323 322 322 324 324 323 325 327 325 324 323 323 323 323 324 324 322 321 322 322 321 320 320 316
322 321 320 323 326 325 326 324 322 322 321 320 320 321 326 328 329 329 329 329 328 327 326 326 326 325 323 324 325 326 326 327 326 327 326 325 324 324 325 324 324 323 322 322 322 320 319 317 315
320 319 323 324 328 329 326 325 325 323 321 319 318 322 324 326 328 330 329 329 329 328 328 327 327 327 325 325 325 326 328 329 328 328 327 326 326 325 325 325 325 323 322 321 320 319 316 315 314
319 319 319 322 325 324 323 323 321 322 322 318 317 321 324 325 324 326 329 330 329 329 329 328 328 328 327 327 326 327 327 327 327 326 324 324 320 325 325 325 324 322 321 319 319 318 315 314 314
319 320 319 321 325 325 321 321 321 319 319 318 318 321 322 323 324 324 326 328 329 329 329 329 329 329 328 329 328 328 329 328 328 326 324 325 325 324 325 323 321 320 320 319 318 315 314 313 310

GFSSGP_850_thetae_066.txt.gz
Theta_e
313 314 316 319 312 308 311 313 314 314 322 328 329 326 330 334 336 338 333 338 339 337 338 337 337 337 330 327 330 328 329 327 320 311 310 310 311 310 317 321 319 314 312 313 313 318 321 322 325
314 317 321 321 311 311 310 311 313 314 320 328 328 328 335 335 333 332 335 332 338 335 336 339 338 337 333 331 330 329 330 327 315 310 310 311 312 314 319 319 316 313 312 311 313 319 321 322 322
316 320 321 312 308 310 311 312 313 325 326 328 326 329 332 332 332 332 327 331 336 332 330 331 335 332 330 327 330 330 329 320 311 311 313 318 314 317 318 317 313 312 312 312 314 321 321 321 322
316 317 316 311 312 312 314 315 315 324 326 326 328 329 326 333 336 334 334 338 337 331 334 329 327 330 329 331 328 329 328 316 310 314 326 319 317 317 317 313 313 313 313 313 315 321 320 321 321
319 319 310 311 311 311 314 315 325 327 326 325 326 327 326 325 326 332 334 336 338 335 327 331 329 331 335 332 332 331 328 312 310 327 330 321 318 317 313 313 314 313 312 310 315 320 319 320 321
319 314 312 313 314 314 313 321 326 326 326 324 325 325 324 321 326 329 331 336 337 337 336 337 337 326 323 335 332 332 332 324 316 327 328 320 318 315 313 314 314 313 310 309 311 318 317 320 321
315 309 311 312 313 312 316 324 324 323 324 324 324 324 322 322 324 330 336 334 337 337 335 334 331 327 322 322 331 324 318 309 320 327 327 323 318 314 314 315 314 312 309 308 308 317 316 317 318
317 309 312 311 312 313 315 322 325 323 325 324 324 327 326 325 324 327 336 337 336 334 334 333 332 327 325 321 324 320 318 316 322 326 327 325 317 315 315 315 314 311 309 308 307 313 316 316 316
316 311 310 311 314 314 317 318 326 328 327 328 328 330 331 330 326 327 333 335 334 331 332 331 330 329 325 323 323 322 322 321 324 325 326 325 316 315 316 315 316 314 310 308 308 309 314 316 315
313 309 311 312 313 314 323 322 326 324 322 323 324 325 330 330 329 330 331 334 331 330 330 330 328 326 324 323 323 323 317 321 322 323 323 323 316 315 316 317 318 317 314 309 309 309 310 313 313
313 313 315 315 315 318 322 324 326 322 322 323 323 327 330 330 330 329 329 329 329 328 328 327 326 325 325 324 323 320 321 317 317 321 323 322 316 316 317 318 318 318 318 316 313 311 311 310 309
315 315 315 316 318 322 321 323 323 323 323 324 327 326 330 330 329 329 327 328 330 329 327 327 325 325 324 323 323 319 316 322 322 321 322 319 315 316 317 318 318 318 318 318 317 316 313 311 309
315 315 317 318 320 322 324 326 323 322 323 329 329 329 329 328 328 326 326 326 327 327 327 327 326 326 324 322 321 317 325 322 323 321 317 317 315 316 315 316 317 318 318 318 318 318 316 313 310
317 317 318 318 320 322 322 323 322 323 324 328 330 329 328 328 327 325 323 324 325 326 325 327 326 325 324 322 319 317 320 319 320 319 316 315 315 314 315 314 315 317 317 318 319 318 319 316 313
317 317 315 316 319 320 323 324 322 322 324 330 330 331 330 329 327 323 322 322 323 324 324 325 326 324 324 322 320 314 317 318 318 317 316 315 315 315 314 314 314 316 317 318 318 318 319 318 317
316 316 316 316 319 320 320 319 322 321 328 328 328 330 329 328 325 322 321 321 322 323 322 323 323 323 320 317 317 320 318 317 318 317 317 318 317 317 314 314 317 318 318 319 319 318 319 318 317
315 315 316 317 318 320 321 321 322 321 323 327 327 328 327 327 325 322 320 320 320 321 321 322 322 322 315 316 320 320 320 319 316 315 316 315 315 316 315 318 318 318 318 320 320 319 319 318 317
315 316 316 315 318 321 323 322 321 322 322 324 323 326 327 327 326 323 320 320 319 319 321 321 322 319 317 314 315 317 320 317 316 315 314 315 316 315 316 316 315 315 320 320 321 320 319 319 318
316 317 316 316 318 321 321 320 321 322 322 324 322 322 326 327 326 323 320 320 319 317 318 320 320 318 316 315 316 316 316 316 315 314 314 318 317 315 314 313 314 317 318 318 320 320 320 320 318
316 317 317 316 321 321 320 318 319 321 322 324 324 324 326 327 326 324 321 319 319 318 318 318 318 316 315 314 315 316 315 315 314 314 316 318 319 319 315 314 315 313 315 320 321 321 321 320 319
317 317 318 317 317 319 320 318 323 323 323 324 324 325 327 328 327 325 321 319 319 318 318 318 317 317 315 315 315 317 316 315 314 314 316 317 316 317 318 318 318 315 318 320 320 322 322 322 321
318 318 319 320 320 320 318 318 320 324 324 322 323 325 327 328 327 326 324 319 319 318 318 318 318 318 317 316 318 317 314 314 314 313 315 315 313 315 316 317 317 317 319 319 319 321 322 322 322
319 319 319 321 320 318 319 317 316 321 324 323 323 324 327 328 328 326 325 321 317 318 317 318 318 318 318 317 315 314 314 313 313 314 315 312 313 317 318 318 318 317 319 320 320 321 322 322 321
318 319 320 319 318 320 319 318 317 317 320 321 323 324 326 328 327 327 326 324 317 317 317 317 317 317 316 315 315 316 317 317 316 314 313 313 312 315 316 317 319 319 320 320 320 322 322 321 320
318 318 319 321 320 321 319 322 321 318 317 320 326 326 325 327 326 327 326 324 322 317 316 316 316 316 315 316 318 316 317 318 318 317 316 316 318 319 320 320 321 322 323 323 322 323 322 321 320
318 318 320 324 321 321 323 325 322 320 319 320 327 327 327 327 327 326 326 327 324 321 318 316 316 315 316 316 318 319 320 321 321 321 321 321 321 321 321 321 322 323 323 323 323 322 321 320 322
319 319 320 321 324 322 321 322 320 319 321 319 321 327 326 327 328 327 325 326 326 323 322 321 318 316 315 315 316 319 320 322 323 323 323 322 322 321 321 322 322 323 323 322 321 321 321 321 320
318 318 321 321 325 326 324 323 323 322 320 318 315 322 326 326 325 327 327 327 327 326 323 322 322 322 320 318 317 321 321 321 322 322 323 325 323 322 322 322 323 324 323 323 321 320 319 320 319
318 318 318 320 323 324 322 321 318 320 319 319 316 321 323 324 326 325 328 328 328 327 324 324 324 323 323 323 322 321 323 323 324 324 324 325 324 323 319 320 320 323 323 323 320 320 318 318 316
317 319 318 319 323 322 320 322 319 318 318 318 317 321 324 324 325 327 328 328 328 328 326 326 325 324 323 322 322 323 323 324 325 326 326 321 318 321 324 321 320 325 324 322 320 318 317 316 314

GFSSGP_850_thetae_069.txt.gz
Theta_e
313 314 316 319 310 308 312 311 312 313 314 327 328 327 331 332 335 334 334 338 340 340 338 335 331 325 325 327 328 327 327 328 325 318 314 316 315 312 311 317 322 319 313 311 313 315 317 320 320
314 317 321 318 309 309 308 309 313 312 319 326 328 330 333 332 333 334 334 337 339 340 338 337 334 332 327 329 330 329 326 327 321 314 314 316 314 317 321 319 315 312 312 314 315 317 321 322 321
316 319 319 309 306 310 310 311 312 323 325 327 326 330 331 331 334 332 329 333 338 337 338 337 337 337 331 331 328 328 329 323 316 313 316 316 318 320 318 314 313 313 314 316 316 319 320 322 322
317 317 314 311 312 311 312 314 314 317 324 325 327 328 327 333 333 332 331 327 335 338 338 339 338 336 332 330 330 330 331 322 313 313 315 317 320 318 315 313 311 311 314 318 318 319 320 321 320
319 317 309 310 311 311 311 313 315 324 324 324 327 325 327 327 328 330 333 334 335 336 334 332 334 335 334 332 330 331 331 321 312 313 317 322 318 315 312 312 311 312 316 319 319 320 320 321 320
317 313 311 311 311 312 311 317 326 326 326 325 325 324 325 321 323 327 329 333 337 336 334 331 331 331 329 325 326 331 331 322 322 321 321 320 316 313 312 313 313 313 317 320 319 319 320 321 319
313 309 311 311 311 312 313 324 324 324 323 323 325 324 322 322 323 327 331 333 333 333 335 332 332 328 326 327 325 331 329 329 328 323 319 318 314 313 313 313 311 312 318 319 318 319 320 320 319
316 308 312 310 312 312 313 325 323 322 323 324 324 327 326 327 325 332 331 332 333 333 333 332 331 327 325 324 324 328 327 328 330 321 319 317 314 314 313 311 309 309 316 318 317 317 317 318 318
315 310 310 312 312 312 317 320 325 327 326 325 327 328 328 329 329 331 331 331 332 331 330 330 330 327 327 326 321 324 329 329 329 325 320 315 314 314 312 310 309 307 309 317 317 316 316 314 315
311 308 311 311 311 313 318 322 325 324 322 323 323 323 326 329 330 330 330 329 330 330 330 330 329 329 328 324 323 323 322 323 325 324 321 315 314 313 311 310 308 307 307 312 316 316 316 315 314
312 312 312 314 315 314 320 323 325 323 321 322 322 323 325 328 329 329 329 329 329 328 328 327 326 326 324 324 323 323 320 321 323 324 319 315 315 313 314 311 309 308 308 309 312 314 313 313 312
313 313 314 315 317 318 320 323 323 322 323 322 323 324 327 328 330 329 328 327 328 328 327 326 326 324 323 323 322 320 321 321 322 321 319 315 315 316 317 317 314 313 311 310 310 310 310 310 309
313 313 316 318 318 318 322 324 322 322 322 323 326 327 329 329 329 328 326 326 326 328 325 326 326 325 324 323 321 318 317 320 321 320 319 315 316 317 318 318 318 318 317 318 316 313 311 311 310
314 316 316 317 317 322 322 322 323 322 322 326 329 328 328 328 327 326 325 323 325 325 324 325 326 325 324 323 322 320 319 318 320 322 318 315 317 317 317 318 318 318 318 318 318 318 317 311 310
316 314 313 314 316 317 321 322 321 322 322 325 330 329 328 328 327 326 323 321 322 322 323 324 325 326 324 323 320 318 317 317 320 321 320 315 316 316 317 317 317 317 318 318 319 319 318 314 313
315 314 315 315 317 317 319 317 318 322 323 325 329 330 329 328 328 325 321 321 320 322 324 324 324 324 323 322 317 323 324 324 324 321 317 315 315 315 315 315 316 315 316 318 318 319 319 318 318
313 312 314 315 314 318 318 318 318 322 325 328 327 329 329 328 326 325 321 319 320 321 323 323 322 323 322 320 321 324 323 322 319 318 317 315 315 314 314 314 314 314 316 318 319 319 319 319 318
313 315 315 314 314 319 320 319 319 322 321 324 327 328 327 326 326 325 321 319 319 320 321 322 322 323 322 319 317 319 320 320 319 317 315 315 315 316 315 315 317 317 318 318 319 320 319 319 318
314 315 315 314 314 319 319 319 318 320 321 321 322 326 326 327 326 324 321 319 319 318 319 321 322 322 320 319 318 321 319 319 319 317 317 317 317 316 316 317 318 318 317 315 317 320 320 319 318
314 314 314 314 315 318 318 319 317 319 320 321 322 322 324 325 326 325 322 319 319 318 318 320 321 322 317 318 320 319 317 318 316 315 317 318 316 315 315 318 319 317 315 314 317 320 321 320 319
314 314 315 315 315 317 319 317 319 320 321 322 323 323 323 324 326 326 324 319 319 318 318 319 319 320 317 316 320 319 319 318 316 315 315 315 314 315 315 318 317 316 315 316 317 320 321 321 320
315 314 316 316 317 318 316 317 316 320 321 322 322 324 324 325 326 326 325 322 319 319 318 318 320 318 317 316 314 315 317 318 316 315 314 314 315 316 318 319 319 318 318 318 316 318 320 321 322
316 316 317 317 317 317 317 315 314 319 323 322 321 323 323 324 325 326 326 326 318 318 318 318 318 318 316 315 314 315 316 315 315 315 314 314 315 316 315 316 317 316 317 320 319 319 319 320 321
317 317 318 317 316 319 318 317 316 316 320 321 322 322 324 324 325 326 327 326 322 318 318 318 318 318 317 315 314 315 315 316 316 316 316 313 314 315 315 313 313 315 318 319 320 321 321 321 321
316 317 318 318 318 320 317 317 316 316 315 318 319 322 323 324 325 326 326 327 325 319 317 317 318 318 318 318 316 316 317 317 316 315 315 314 314 315 314 311 312 314 316 318 320 321 322 321 322
315 316 318 322 320 319 320 324 321 318 318 320 320 320 323 324 326 326 325 327 327 324 316 315 316 317 318 318 317 316 315 314 314 314 314 314 314 313 312 312 313 317 319 320 322 322 322 322 322
317 317 317 318 320 321 320 319 318 318 318 317 320 322 323 324 326 326 325 327 328 326 321 316 315 315 317 316 316 316 315 316 316 316 316 315 315 317 318 319 319 320 320 321 320 322 322 322 322
316 317 319 318 322 324 320 321 320 319 319 316 317 324 325 325 325 326 325 326 328 327 325 320 316 315 316 316 315 315 316 316 316 317 318 320 321 322 322 321 321 321 321 321 322 323 321 320 320
316 317 317 319 319 322 322 320 316 319 319 316 314 321 326 326 326 326 327 327 327 326 326 324 320 317 316 316 315 315 316 317 318 319 320 321 322 322 323 323 320 322 322 323 323 323 321 320 317
316 317 317 318 319 320 318 321 316 317 317 317 317 319 320 325 326 326 328 327 326 325 325 326 324 320 319 317 316 315 315 315 316 318 320 321 322 323 318 316 316 321 322 321 320 323 322 320 318

GFSSGP_850_thetae_072.txt.gz
Theta_e
313 314 316 318 308 306 310 311 311 312 314 323 328 326 328 330 332 329 335 339 340 342 341 337 332 326 329 327 327 328 327 326 328 333 331 329 327 322 319 325 330 330 329 323 314 312 312 310 310
314 318 320 316 307 307 308 309 311 311 315 325 330 329 332 332 332 334 335 338 340 341 340 335 331 328 328 327 327 329 327 325 328 326 324 325 324 319 318 326 327 324 319 316 322 316 317 315 314
315 319 318 307 305 309 310 310 310 315 320 326 325 330 331 331 333 334 335 339 340 340 339 334 326 328 330 329 328 326 327 326 324 319 317 317 317 316 323 322 318 314 313 326 322 320 320 319 317
316 316 312 310 312 310 311 311 311 312 319 325 326 326 327 331 331 332 331 332 338 341 338 336 333 329 329 329 330 329 329 327 320 316 312 312 313 319 318 314 313 312 313 316 319 320 320 317 309
318 316 308 310 311 310 309 311 320 321 323 323 327 324 326 326 327 325 331 330 328 337 339 337 333 332 328 329 330 329 329 329 326 317 318 311 318 316 322 323 316 313 315 318 319 320 319 316 310
316 312 310 311 311 311 310 313 325 325 324 325 324 324 324 323 323 323 327 330 332 331 337 337 335 334 333 330 330 327 329 330 330 323 314 313 317 315 322 324 315 313 316 317 319 320 319 317 310
312 308 310 311 311 312 312 323 323 324 322 322 323 324 322 322 323 325 328 329 329 330 333 335 333 331 332 328 328 325 330 330 329 317 318 319 315 314 317 314 316 316 317 318 320 320 319 317 315
316 307 311 309 311 312 313 324 324 322 321 324 324 322 324 324 326 327 332 330 331 330 332 335 332 331 329 329 328 325 325 330 329 318 322 318 315 312 312 314 317 317 317 318 319 319 318 318 315
314 309 310 312 311 312 316 320 323 324 323 324 326 327 328 329 328 330 330 331 333 333 333 333 331 329 328 326 324 324 324 328 325 324 321 315 313 313 313 314 317 317 317 318 318 318 318 316 314
310 308 310 310 310 312 313 318 320 324 323 323 323 325 324 328 328 328 329 329 331 329 330 331 330 329 329 327 324 326 328 326 322 322 319 315 313 313 311 313 317 317 317 316 316 316 315 314 312
309 310 310 312 314 313 312 320 323 323 321 321 322 322 324 329 328 328 327 328 329 330 330 328 328 328 329 326 323 327 327 325 326 319 317 313 313 311 308 307 310 316 316 316 315 315 314 313 311
312 311 312 314 315 315 317 320 323 323 322 322 322 322 324 329 330 329 329 328 327 328 327 326 326 327 326 323 323 323 325 326 323 319 317 314 312 309 308 306 306 310 314 314 313 312 312 311 310
311 312 314 316 316 315 316 320 322 322 323 322 322 324 326 329 329 327 327 326 327 326 327 325 325 324 324 323 323 323 325 323 321 320 316 314 311 309 308 308 308 308 310 310 311 310 310 309 309
312 313 314 315 315 315 321 320 322 322 322 322 324 326 328 329 330 327 325 324 327 324 325 324 325 324 324 323 323 322 323 323 321 320 315 315 315 314 310 309 309 310 310 310 311 311 310 309 309
314 314 311 312 313 314 321 319 321 321 321 323 326 328 328 328 328 326 326 322 323 322 322 323 324 325 324 323 321 320 321 321 321 319 315 315 316 317 317 317 315 317 317 317 318 318 314 310 310
314 313 312 312 315 316 319 316 315 318 321 324 324 328 328 328 328 327 325 320 320 321 322 323 324 324 323 323 319 321 321 323 321 321 315 314 316 315 317 316 317 318 318 318 318 319 318 315 314
311 311 312 312 313 316 317 317 315 321 322 322 324 328 329 328 328 326 323 319 319 321 322 323 324 323 324 322 320 318 320 320 320 318 316 315 315 316 317 317 317 317 317 318 318 319 319 318 318
312 314 312 313 314 314 315 317 317 319 321 324 326 327 327 328 327 325 323 319 319 320 321 322 323 322 323 322 320 319 318 318 321 318 316 315 315 315 316 315 316 316 317 318 319 318 318 319 318
311 313 314 312 312 315 313 314 315 316 320 320 322 325 326 327 326 324 323 319 319 320 320 321 322 322 322 321 318 319 320 321 319 320 316 315 315 315 314 314 314 317 317 318 319 319 320 319 319
313 314 313 312 313 313 313 315 316 317 318 320 320 321 323 326 325 325 324 320 320 319 319 320 321 322 322 321 320 322 322 321 321 320 317 315 315 315 315 315 315 317 318 318 319 319 319 320 320
313 313 313 314 312 314 315 316 315 316 318 320 321 321 321 323 325 325 325 322 319 318 318 320 321 322 322 321 319 318 319 321 318 317 316 315 316 315 315 316 315 317 318 318 318 318 319 319 320
313 312 313 313 315 316 315 317 314 314 316 320 321 322 322 322 322 324 325 324 319 319 317 318 320 320 322 320 319 318 319 319 318 317 316 316 317 317 316 316 315 314 317 319 319 317 315 317 320
313 313 313 314 315 316 316 314 314 316 318 316 318 321 322 323 323 324 325 325 323 318 318 319 319 321 321 317 318 320 319 316 317 317 315 316 318 318 317 315 314 314 316 320 320 320 319 319 319
315 316 316 316 315 317 316 315 315 314 317 316 319 320 321 322 322 324 325 325 325 319 317 318 320 321 319 317 317 320 318 316 317 316 315 315 314 315 314 314 315 315 315 315 317 318 318 320 320
315 315 317 318 318 320 315 315 317 315 314 315 316 318 321 322 322 323 324 325 325 323 317 317 318 320 319 317 316 315 316 318 318 316 315 315 315 315 314 314 315 315 314 313 314 316 318 320 321
315 315 317 321 320 318 318 320 319 316 316 318 318 319 319 320 322 323 324 325 325 326 320 316 317 318 319 318 317 315 315 315 316 317 316 315 316 316 314 314 315 315 314 312 313 314 317 320 321
315 315 315 316 318 320 318 318 316 316 316 315 315 318 320 319 321 322 324 325 325 325 326 318 315 316 318 318 318 316 315 315 316 316 316 316 316 316 315 314 314 314 313 313 317 319 320 319 318
315 314 318 316 320 322 319 320 318 318 317 315 314 319 322 321 322 322 324 325 326 324 326 326 318 315 316 317 318 317 317 315 315 315 316 314 314 315 314 314 313 315 319 321 321 321 321 318 319
315 316 316 316 316 319 320 318 315 316 317 317 315 315 320 323 323 323 323 325 326 325 325 327 325 319 315 315 316 317 317 317 316 315 315 315 315 315 315 316 320 322 321 322 321 320 321 322 322
314 315 315 317 318 318 317 318 315 315 315 315 317 319 319 320 324 324 324 324 325 325 325 326 327 325 322 317 315 315 315 315 314 314 315 315 316 316 319 320 321 321 320 320 318 319 322 321 322

GFSSGP_850_thetae_075.txt.gz
Theta_e
312 313 315 318 315 313 314 315 313 315 315 318 324 327 327 329 331 332 334 338 339 339 336 331 328 329 331 331 330 329 331 332 333 332 331 326 323 323 322 322 327 333 332 330 327 323 322 319 319
314 319 318 315 314 316 316 312 314 315 315 321 330 330 332 332 332 333 336 338 338 340 340 335 329 327 329 329 327 328 330 330 329 333 331 326 326 323 321 321 328 330 330 325 313 313 314 313 315
316 319 317 314 313 317 317 314 315 314 315 323 326 327 331 331 332 333 334 337 338 342 341 339 336 327 329 330 329 330 330 328 327 332 331 327 325 323 321 324 330 329 325 317 320 318 312 311 311
318 316 312 317 317 315 316 316 314 314 317 323 326 327 327 329 330 333 332 334 336 337 339 336 333 332 330 329 330 332 330 331 331 331 328 325 323 320 319 324 327 323 319 327 326 316 317 315 311
317 315 315 315 315 314 313 313 314 321 323 324 326 326 326 323 328 327 331 330 329 336 337 335 331 328 327 328 328 328 330 331 332 328 325 321 320 314 315 325 326 325 327 327 322 318 311 307 308
317 313 317 316 315 314 314 313 322 325 324 325 324 324 324 323 325 325 324 328 331 331 332 334 333 327 327 325 328 328 328 328 326 325 318 315 314 316 318 321 325 323 321 322 320 315 308 306 306
316 315 315 314 315 315 315 320 324 324 324 323 323 325 322 322 321 322 325 326 329 332 331 331 331 329 329 326 327 328 330 330 328 325 322 316 316 320 318 320 316 318 319 319 318 316 309 309 306
315 315 314 314 315 316 314 322 322 323 322 322 323 325 326 322 322 326 326 327 329 332 331 330 330 330 329 328 328 328 328 327 331 328 324 319 318 318 318 316 317 318 319 319 318 316 314 312 309
314 316 316 316 314 316 313 319 318 321 323 323 324 323 327 326 327 327 327 331 329 330 332 332 331 330 330 329 329 330 327 324 327 330 325 319 317 316 320 314 317 318 319 320 319 318 315 312 310
314 316 316 314 313 315 314 315 316 323 324 325 325 325 326 325 327 328 329 328 330 330 329 332 331 331 330 329 328 326 325 325 328 328 323 317 316 317 314 316 318 318 319 320 319 318 315 312 309
311 316 313 313 313 313 314 316 320 323 322 322 322 322 323 327 327 328 327 327 328 329 330 331 331 330 329 328 329 327 325 324 329 326 323 317 314 314 315 316 318 318 319 320 318 317 314 311 309
314 313 313 314 314 313 315 318 322 323 321 321 321 321 323 327 326 327 327 327 328 329 329 329 327 326 328 328 327 325 327 327 324 320 318 315 313 313 314 316 317 316 316 316 315 314 312 310 309
313 314 312 313 314 314 314 318 319 321 320 322 322 322 324 328 327 327 328 328 327 325 326 326 325 324 325 326 323 327 327 327 323 321 317 314 313 312 312 311 316 316 315 315 314 313 312 310 309
313 312 313 314 314 313 316 318 321 321 320 322 323 324 326 327 327 327 327 326 324 324 324 325 324 324 324 323 326 326 326 325 319 316 316 313 313 311 308 311 313 315 314 314 312 311 310 309 310
313 315 314 314 314 315 318 319 322 320 321 322 324 325 327 328 326 327 326 325 326 323 322 322 323 325 323 323 323 325 325 324 318 315 316 313 311 310 307 307 310 311 311 310 310 310 309 310 310
315 313 315 313 315 316 319 320 318 318 320 323 327 327 327 328 327 327 326 325 320 322 321 324 323 324 323 323 322 323 324 322 319 317 313 311 313 308 308 309 312 312 310 311 312 309 310 310 310
313 314 313 314 313 318 319 319 318 320 321 323 324 327 328 328 327 327 327 324 318 323 322 322 323 323 323 322 321 323 324 319 318 317 312 314 310 308 315 315 315 316 317 317 316 315 316 313 312
315 315 314 315 316 316 316 317 318 316 319 321 323 325 328 328 327 326 326 323 318 321 322 323 323 322 323 322 321 321 322 321 320 315 312 311 315 317 317 316 317 318 318 317 316 318 318 318 318
313 314 314 314 314 315 315 314 317 317 319 321 322 324 326 327 326 327 325 322 319 320 322 322 322 322 322 322 319 321 321 323 317 318 312 316 316 316 318 317 317 317 317 317 317 318 318 318 318
314 315 315 315 314 314 316 316 317 318 319 320 321 322 325 325 327 326 324 323 319 319 321 321 321 321 322 323 320 319 320 321 319 319 315 316 316 316 317 316 314 314 315 318 318 319 319 319 318
315 316 316 314 314 315 316 317 320 319 318 319 320 320 321 323 325 325 324 323 320 319 319 321 321 321 322 322 322 320 319 319 319 320 315 315 315 315 315 314 314 314 316 318 319 319 319 319 319
316 314 315 315 315 314 317 319 319 319 319 318 319 321 321 321 322 325 324 324 323 318 318 320 320 322 321 322 322 319 320 319 319 318 316 315 316 315 314 314 314 316 315 317 316 316 317 319 319
315 314 315 315 315 315 315 318 318 316 320 320 320 320 321 321 321 323 324 324 324 319 317 319 320 322 322 321 321 321 321 320 321 319 317 315 315 316 315 315 315 316 315 316 315 317 319 319 320
315 316 316 317 317 320 318 319 320 320 320 320 319 319 319 321 322 322 323 324 324 320 317 318 320 321 321 321 321 321 319 320 320 318 317 316 315 315 315 316 315 316 317 315 317 316 317 317 317
315 317 318 321 321 320 318 319 320 319 318 318 319 319 318 319 322 322 323 324 324 324 317 317 319 320 321 321 319 319 319 319 320 318 317 316 316 315 316 318 317 316 316 316 316 315 315 316 317
316 317 320 319 323 321 316 320 320 319 318 316 317 318 317 317 320 322 323 324 324 324 321 316 318 319 321 320 318 318 320 319 318 317 318 317 316 316 317 318 317 317 316 315 315 315 313 313 315
317 318 318 318 319 322 320 320 319 320 319 318 318 317 319 318 318 321 322 323 324 324 324 319 315 317 319 319 317 316 318 319 318 316 316 317 316 315 315 314 314 315 314 315 315 315 314 318 319
317 317 319 318 320 321 320 321 321 320 321 319 320 318 316 321 319 321 322 323 324 324 324 325 317 314 316 318 318 317 316 316 318 318 317 317 317 316 315 315 315 316 316 315 314 314 314 320 321
316 317 317 318 319 320 321 321 320 321 320 320 320 318 319 318 322 321 322 323 323 324 324 325 325 318 314 315 317 317 317 316 316 316 316 317 317 316 316 315 315 316 315 314 314 316 320 321 321
315 317 318 320 319 320 320 321 317 319 319 319 319 318 319 320 318 323 323 323 323 324 325 325 325 325 323 316 314 316 317 317 316 315 314 315 315 315 315 314 314 314 314 314 314 318 319 320 320

GFSSGP_850_thetae_078.txt.gz
Theta_e
312 313 314 318 320 318 317 318 319 320 320 319 322 325 329 330 329 331 335 336 338 340 341 335 333 333 332 333 334 334 335 335 334 330 327 323 321 320 320 318 324 333 334 332 329 327 329 329 329
313 316 318 318 320 320 320 319 320 320 319 320 324 330 331 330 333 336 337 335 337 340 341 340 333 332 332 332 332 335 335 335 334 331 328 324 323 323 321 320 329 334 333 331 327 324 324 323 325
315 318 320 320 320 320 320 320 321 320 318 320 327 329 331 330 334 336 336 334 337 339 342 339 331 329 331 331 335 335 335 335 334 330 329 325 323 324 323 323 330 334 332 330 323 317 313 314 314
317 317 317 320 320 320 320 321 320 321 319 322 326 329 331 333 335 336 335 333 334 339 340 340 335 327 329 329 329 333 335 335 333 330 329 325 325 323 325 324 329 331 327 319 312 311 312 314 315
317 318 320 319 320 319 319 319 319 325 323 326 328 326 328 330 330 331 332 331 333 337 340 336 336 331 328 328 328 331 334 333 334 331 328 326 325 323 324 330 329 329 323 314 312 312 311 310 312
319 319 319 319 320 319 319 319 322 325 325 326 326 326 327 328 326 332 328 330 331 333 336 339 335 335 331 328 328 331 333 331 329 332 330 327 325 324 324 330 326 323 324 317 316 314 312 310 307
320 319 319 318 319 319 319 320 323 322 323 324 326 326 326 327 328 326 322 324 325 330 332 335 333 329 331 330 328 330 330 332 331 329 330 328 325 324 325 327 324 325 327 320 315 307 307 306 306
318 319 319 318 319 320 319 320 322 322 322 325 325 323 325 328 324 322 324 325 328 334 334 331 331 331 330 328 328 329 328 330 329 328 326 326 325 324 326 326 325 320 321 321 312 307 306 306 306
317 319 320 319 319 319 318 320 320 322 322 325 326 325 329 326 325 329 326 326 328 333 334 331 330 328 329 328 327 328 329 328 329 329 328 325 322 325 325 323 319 317 319 317 311 311 308 306 306
318 319 319 319 319 319 319 318 319 322 322 324 326 328 328 328 331 331 330 329 329 330 331 332 330 330 329 329 328 328 329 328 328 329 327 323 321 325 326 316 319 318 319 317 315 313 310 308 307
317 318 319 318 318 318 318 319 319 321 321 321 322 323 329 330 330 331 331 330 329 330 330 330 331 328 329 330 329 329 329 328 329 327 328 325 322 322 324 317 319 320 319 318 316 313 314 316 316
316 317 317 317 317 317 318 318 320 320 321 323 322 325 328 329 329 330 330 331 329 329 330 330 329 329 329 329 329 328 328 328 325 327 326 324 324 326 321 318 323 321 321 319 317 317 318 317 316
317 317 317 317 317 316 317 318 319 319 320 324 324 325 327 328 330 330 330 330 327 328 328 329 329 327 325 325 328 328 327 326 325 326 324 319 319 321 318 317 322 322 323 321 320 320 317 311 311
317 317 317 316 316 317 317 318 320 319 322 324 326 326 328 328 330 329 329 328 329 328 324 326 325 326 323 325 325 325 327 326 325 322 319 318 316 315 317 316 317 320 323 322 320 319 315 313 314
316 317 317 317 316 317 317 318 320 320 323 324 325 326 328 329 330 329 329 328 327 326 325 324 326 323 324 324 325 326 325 324 321 318 316 315 314 313 313 315 316 316 317 317 318 318 315 314 314
317 317 319 318 317 316 319 320 322 321 324 324 327 327 329 330 330 329 327 327 324 324 322 323 324 323 324 323 325 325 325 323 319 317 314 313 314 313 314 314 315 315 314 313 313 316 314 314 314
318 319 320 319 317 319 321 320 322 322 322 323 325 328 329 330 330 329 327 326 325 323 322 322 324 323 324 323 323 324 324 322 317 315 313 311 310 309 310 309 310 311 311 310 310 310 310 313 313
320 320 320 319 318 318 320 321 319 320 320 322 324 327 329 330 330 329 327 326 324 321 321 322 322 323 323 323 322 323 323 319 316 314 314 311 312 315 314 310 310 310 310 313 313 313 310 312 312
319 319 320 319 317 317 318 319 319 319 321 323 324 326 327 329 330 328 327 325 322 319 320 321 323 323 323 322 322 323 321 318 315 315 314 314 311 315 309 311 314 313 316 318 318 316 313 314 314
319 318 319 318 318 317 317 317 318 320 321 322 323 325 326 328 330 327 326 325 323 319 320 322 322 323 323 322 321 323 321 317 319 316 311 308 309 310 310 313 315 317 317 318 318 317 316 317 316
319 319 319 318 318 317 318 318 317 318 321 322 323 324 324 327 329 327 325 324 323 319 320 323 321 323 323 322 321 321 322 320 320 315 310 308 310 315 314 316 317 317 316 315 317 318 318 318 319
318 318 318 318 318 319 318 319 319 320 321 322 321 324 324 325 328 328 325 324 323 321 318 320 321 322 321 322 321 321 321 322 316 315 311 314 316 317 317 316 316 317 314 314 316 318 319 319 320
318 317 317 318 319 319 319 318 320 320 322 322 322 322 324 324 326 327 326 325 323 322 318 320 321 322 322 321 321 321 321 321 316 317 314 316 316 316 316 316 314 314 314 314 317 318 319 318 320
317 317 317 318 319 321 320 319 321 321 322 322 321 321 323 325 325 327 326 325 324 323 319 320 322 322 321 323 322 322 321 320 319 319 316 315 315 315 315 316 315 314 314 316 315 316 317 317 319
316 318 322 323 323 322 320 320 321 322 322 322 322 321 322 324 325 327 326 325 324 323 321 318 321 321 321 322 322 321 321 321 320 319 319 316 315 315 315 316 315 314 315 316 315 316 317 318 317
317 320 322 322 325 324 321 322 322 322 322 322 322 321 322 323 325 326 326 326 325 323 321 316 321 322 320 322 320 321 321 321 321 320 320 318 315 316 315 316 316 315 316 316 317 317 317 319 315
318 319 318 320 321 322 322 322 322 321 321 322 322 322 322 323 325 326 326 326 326 324 323 316 318 322 322 321 321 321 321 320 320 320 320 318 317 316 316 316 315 315 317 318 317 317 318 319 319
319 319 321 321 323 324 322 322 322 322 321 322 323 324 322 323 323 325 326 326 326 325 323 321 315 319 322 321 321 321 320 320 320 320 320 319 317 317 316 317 318 318 317 318 318 319 319 319 320
318 319 320 320 321 323 324 323 322 321 322 322 323 322 322 323 325 325 325 326 326 326 324 323 319 316 320 321 322 320 320 321 320 320 319 319 319 318 318 318 318 318 319 318 318 319 320 320 316
317 318 319 321 321 321 322 323 321 322 323 323 323 322 322 322 324 326 326 326 326 326 325 324 323 321 318 318 321 319 319 320 320 319 319 318 318 318 319 318 318 318 318 318 318 318 316 315 315

GFSSGP_850_thetae_084.txt.gz
Theta_e
312 311 315 319 322 323 323 323 322 322 322 322 322 324 325 325 325 338 342 340 335 347 344 343 341 336 335 334 336 338 336 330 327 328 327 324 322 320 320 324 326 328 327 331 330 330 328 327 329
312 318 318 320 324 322 324 323 322 323 323 322 322 322 324 325 330 337 344 342 340 345 345 345 342 337 335 333 334 336 337 332 329 328 328 325 322 322 325 327 328 329 329 331 329 329 328 328 328
317 320 320 324 325 324 325 324 323 323 322 321 322 325 325 330 334 337 337 330 334 342 341 344 343 340 336 334 332 333 335 335 331 329 328 325 322 323 328 327 329 331 329 324 329 329 328 326 328
319 321 321 322 322 323 325 324 323 323 322 321 322 323 327 329 331 338 336 337 338 330 338 337 338 340 335 333 332 332 336 336 333 330 330 325 322 325 323 327 331 333 330 325 321 327 328 327 328
320 321 323 324 323 324 324 323 322 322 323 323 323 324 326 333 329 326 332 330 336 337 334 334 334 334 337 333 333 334 334 335 334 334 331 325 323 324 323 328 333 333 332 327 314 320 325 323 321
320 321 322 323 324 325 323 322 322 322 323 324 324 323 327 335 334 330 324 334 330 326 325 330 331 334 336 331 331 331 331 328 324 324 332 327 322 328 327 330 333 333 332 326 312 317 316 314 315
321 322 322 324 325 324 323 322 322 323 324 323 325 325 324 333 334 332 324 323 323 322 330 329 331 336 335 333 331 328 329 328 324 325 324 328 325 329 328 327 333 332 330 321 312 312 312 311 317
319 321 322 323 323 323 323 322 322 323 323 324 323 321 324 334 332 329 325 325 324 323 332 340 334 334 335 333 331 330 329 325 326 325 328 331 329 328 327 328 330 330 328 313 311 312 312 309 317
319 320 321 322 323 324 323 322 321 321 322 321 322 323 324 331 330 334 333 334 330 324 326 330 336 334 333 332 329 329 325 325 325 328 332 331 329 329 328 324 325 328 318 312 312 310 309 308 313
320 321 321 322 323 322 322 322 321 321 322 322 322 323 326 330 333 333 335 336 334 328 328 330 332 333 332 331 330 327 327 328 329 325 331 331 326 327 326 329 329 324 315 314 310 309 307 307 309
319 321 321 322 322 321 321 322 321 321 321 321 322 324 326 331 331 331 332 334 333 330 331 330 333 331 332 331 330 330 330 329 330 331 328 329 327 327 324 324 326 323 318 307 308 307 307 307 314
320 320 321 321 321 321 320 320 321 320 321 321 321 322 323 323 330 329 331 332 334 332 330 332 331 330 330 330 330 330 329 329 330 331 330 328 327 327 326 324 326 325 314 307 306 307 309 307 318
320 320 320 320 320 320 320 320 320 320 320 320 320 322 324 324 327 329 330 332 333 331 331 330 330 331 330 329 329 329 329 329 329 330 330 329 329 328 324 324 325 324 313 308 307 317 317 311 319
319 320 320 320 320 320 320 320 320 319 319 319 320 323 324 326 327 328 330 331 332 332 331 329 329 329 329 329 327 327 328 329 330 329 329 329 328 327 324 325 323 324 313 310 317 320 318 317 319
319 320 320 321 320 321 320 321 320 319 319 319 321 323 326 327 328 328 330 331 332 331 331 330 328 327 327 327 327 326 325 325 329 329 329 328 327 327 325 324 323 319 315 313 321 320 319 319 319
320 320 320 320 320 321 320 320 321 321 320 320 321 324 326 327 328 329 329 331 332 330 330 330 327 327 325 326 324 324 325 325 326 326 327 328 327 328 324 320 319 321 321 319 322 320 319 318 319
319 320 320 320 321 322 322 321 322 321 321 322 324 324 326 327 328 329 330 331 331 330 329 329 326 325 325 324 324 324 325 325 325 325 326 327 327 324 322 320 318 323 321 322 321 318 317 317 318
320 320 320 321 322 323 322 321 321 322 323 324 324 324 325 327 329 330 331 331 331 329 328 327 326 325 325 324 324 324 324 322 323 324 323 325 324 323 320 320 321 322 320 322 319 317 316 317 317
320 320 320 321 322 323 323 321 322 323 323 324 323 323 323 325 328 330 331 331 330 330 327 326 325 324 323 324 323 323 323 321 321 320 321 322 320 319 319 318 319 320 320 321 318 317 316 316 316
320 319 320 322 322 322 322 321 322 322 322 322 322 322 323 324 326 330 332 331 330 329 327 326 324 323 323 323 323 323 323 322 322 321 319 321 319 318 318 317 314 316 318 317 313 314 313 312 315
317 320 320 321 322 323 322 322 322 322 323 322 322 321 322 323 326 331 332 332 331 329 327 324 324 323 323 323 323 323 322 322 320 319 318 318 319 318 315 314 315 314 313 314 315 314 312 315 315
318 319 320 321 322 324 323 323 323 324 324 324 323 322 322 322 325 330 333 332 331 329 327 324 325 323 322 323 323 322 321 321 320 318 318 318 316 313 313 314 314 313 313 315 316 311 312 316 315
320 319 320 321 322 323 322 322 323 323 323 324 323 321 323 323 323 328 333 332 332 329 327 325 325 323 324 323 323 322 321 320 317 316 315 314 313 313 314 315 314 314 313 315 313 313 317 320 320
319 321 320 321 322 324 322 323 324 324 324 324 324 323 323 323 324 325 332 332 331 330 327 324 324 325 324 323 322 323 322 319 315 314 314 313 312 314 312 315 313 312 314 316 316 317 319 319 319
318 320 323 324 324 325 321 323 323 324 324 324 325 324 323 323 324 325 331 331 330 329 327 325 323 324 324 323 323 322 322 321 318 315 313 312 311 312 311 312 314 314 314 315 318 318 317 317 317
318 319 324 327 328 325 322 323 324 324 324 323 323 323 323 323 324 326 330 331 330 329 328 325 323 324 324 323 322 322 321 321 320 317 314 314 312 313 313 314 315 315 313 314 317 316 318 317 317
319 320 318 321 321 327 329 324 324 323 323 323 323 323 323 323 324 325 328 330 330 329 328 325 324 325 324 322 322 322 323 322 321 319 316 314 314 314 314 314 313 313 315 316 317 317 317 317 316
318 319 321 321 326 332 327 326 325 324 323 323 324 326 324 324 323 324 325 330 330 329 329 327 324 325 324 324 325 322 322 323 322 321 317 315 314 313 310 310 311 312 312 317 317 317 316 317 316
317 320 321 322 323 332 333 328 325 325 325 325 326 324 324 325 326 325 326 330 330 330 329 328 325 324 325 324 323 322 322 322 322 321 321 319 317 313 310 308 310 313 317 317 316 315 316 316 316
319 319 319 325 329 325 326 328 324 324 323 324 324 322 323 323 324 327 327 328 330 330 330 328 327 324 326 326 324 322 323 322 323 322 321 322 321 317 313 310 311 314 316 317 316 316 315 315 317

GFSSGP_850_thetae_087.txt.gz
Theta_e
311 311 314 317 315 314 316 317 318 319 319 322 323 322 322 323 328 341 340 332 329 338 342 340 341 337 335 335 336 337 335 330 326 328 326 323 321 319 318 317 319 322 320 320 321 319 323 326 329
311 316 317 318 316 317 318 319 319 319 321 321 321 321 322 332 338 341 342 336 336 339 336 338 340 339 335 334 334 336 337 333 328 328 329 323 321 320 318 319 323 324 329 331 331 325 323 328 329
311 319 320 314 316 318 317 320 318 320 321 320 321 322 324 334 338 339 330 327 337 340 327 337 337 339 337 335 333 334 336 336 330 327 329 325 322 320 323 323 327 329 331 331 332 328 329 329 327
318 320 320 317 318 319 320 320 320 320 321 321 321 323 328 332 329 324 324 321 325 329 335 334 336 335 337 337 335 332 333 335 333 331 330 326 322 322 325 323 328 330 330 333 331 327 328 327 326
316 319 316 316 317 319 320 320 321 321 321 321 322 322 332 335 329 322 322 322 321 324 326 331 334 335 335 335 334 333 335 336 334 332 332 335 324 324 325 325 329 331 329 331 328 327 327 327 326
317 320 316 316 318 319 319 321 322 322 322 323 323 323 331 336 330 325 324 323 326 325 324 323 328 332 335 335 335 333 334 335 333 330 331 327 333 327 326 328 331 332 330 324 328 328 327 325 326
315 314 315 315 318 320 321 321 320 321 321 322 324 323 335 335 330 327 325 323 326 330 324 323 325 333 335 335 332 333 333 332 331 329 326 324 327 330 325 329 332 332 331 321 326 326 323 321 326
318 314 316 317 318 318 320 322 322 322 322 324 323 320 331 333 331 330 327 323 323 323 324 332 333 334 336 336 333 331 330 330 328 325 324 324 325 329 326 326 325 332 331 320 320 320 315 324 325
318 315 315 316 317 319 321 320 321 322 322 322 322 321 322 331 331 329 326 326 331 330 324 328 335 333 334 334 333 330 330 329 326 326 326 326 325 332 329 325 327 326 329 319 314 315 313 325 323
315 314 316 317 318 318 320 320 320 320 320 321 321 321 327 328 330 326 329 333 333 332 330 325 334 333 333 332 331 329 328 325 325 326 327 327 329 327 326 325 326 329 326 312 313 314 314 322 322
316 315 316 317 319 320 318 318 320 319 317 320 320 325 327 328 329 331 332 332 334 333 332 325 329 332 332 331 331 329 326 326 328 326 326 328 330 328 326 324 324 328 319 312 312 313 312 318 316
315 316 317 318 319 319 317 319 317 318 319 320 320 321 325 327 330 330 331 332 333 333 332 326 327 332 330 331 330 330 328 327 329 330 326 324 328 328 325 325 325 325 316 313 313 310 309 311 320
316 316 318 318 319 319 320 317 318 319 319 319 319 320 322 324 325 330 330 331 332 331 330 325 328 329 330 329 330 330 329 329 329 329 326 329 328 327 327 325 324 323 317 309 310 307 307 317 320
318 318 318 318 318 319 318 316 318 319 319 319 319 319 322 323 324 328 329 330 331 331 330 329 325 330 330 330 329 329 329 329 329 330 329 329 328 327 327 325 324 324 318 307 307 307 311 320 320
319 317 317 317 318 317 319 316 317 319 319 319 319 319 322 323 325 327 329 329 330 331 329 330 329 325 328 329 328 327 327 329 329 329 331 329 328 328 327 325 324 325 319 307 311 312 314 319 319
318 317 317 318 317 318 318 317 318 320 320 319 319 319 322 324 326 327 329 330 331 330 329 330 329 327 325 326 326 327 326 325 328 329 329 329 329 329 327 326 324 323 312 311 319 317 313 317 319
317 317 316 317 317 317 317 317 318 320 319 319 318 319 323 324 326 328 329 330 331 331 328 330 330 327 323 324 324 324 323 323 325 326 329 329 329 329 327 326 324 319 310 320 320 318 319 319 318
318 318 315 316 317 318 317 317 318 319 319 320 321 323 323 324 326 328 329 330 330 330 330 329 328 326 323 324 323 324 322 323 322 324 325 326 328 328 327 325 320 318 314 320 320 319 319 318 318
318 319 319 317 318 319 320 320 318 317 318 319 322 324 324 324 326 328 329 330 330 330 330 328 327 326 324 324 323 323 321 323 322 322 324 324 324 325 325 323 322 318 316 321 320 318 318 318 318
315 318 319 319 319 319 319 320 316 317 317 319 321 322 323 323 326 329 330 331 331 330 329 328 327 325 323 324 324 323 321 322 321 322 324 326 326 325 325 321 318 317 321 321 319 317 317 318 317
314 314 314 318 318 319 320 320 321 319 319 321 321 322 322 323 326 329 330 331 331 330 329 328 327 323 323 323 325 323 321 321 320 320 322 323 323 323 321 320 322 321 321 320 317 316 317 317 317
314 315 317 320 321 323 319 322 321 320 320 319 320 321 321 321 325 330 331 331 331 330 329 328 325 321 322 323 324 322 321 322 321 321 321 322 323 323 321 320 321 320 320 320 317 315 313 314 314
315 317 319 320 322 322 321 322 321 321 321 320 320 320 322 321 325 330 331 331 331 331 330 328 325 320 320 322 323 321 321 321 321 320 321 320 319 320 320 320 318 316 315 317 313 313 313 315 314
316 319 321 320 322 326 323 322 321 320 321 321 321 321 322 321 327 328 330 331 331 331 330 327 325 319 323 322 323 321 321 321 321 321 318 320 318 318 318 316 315 315 315 314 313 314 314 313 314
319 321 326 325 326 324 321 321 321 320 321 321 321 320 321 321 324 331 332 332 331 331 330 328 326 320 322 322 322 322 320 321 321 321 319 318 318 317 314 314 314 313 313 313 314 315 313 313 315
319 321 325 325 326 326 321 322 320 320 320 321 322 322 322 323 324 331 332 332 331 331 330 329 326 319 323 322 321 321 321 321 321 320 320 318 317 314 314 315 315 314 314 313 313 314 315 315 318
319 320 318 321 321 326 325 325 321 320 321 320 319 322 322 324 327 331 332 331 331 330 329 328 327 321 322 323 322 321 321 321 321 320 319 317 316 314 314 314 315 315 313 312 313 316 316 317 318
317 318 322 321 324 328 327 326 325 323 321 321 321 320 324 324 326 329 329 331 330 330 329 328 328 323 318 322 322 322 321 321 321 321 320 317 316 315 314 313 313 313 312 314 314 314 316 317 317
316 319 320 320 323 330 331 330 325 324 322 323 319 321 323 325 326 325 330 330 330 330 329 329 328 324 321 321 322 322 322 322 322 321 321 320 317 315 315 314 313 312 312 314 315 313 315 316 317
316 317 320 325 323 325 327 327 324 323 322 319 318 319 320 321 326 326 328 330 330 330 329 329 328 326 322 324 322 322 323 321 322 322 322 321 320 318 316 314 314 314 314 314 315 313 314 316 316

GFSSGP_850_thetae_090.txt.gz
Theta_e
312 313 312 316 314 311 314 315 316 316 319 321 321 320 322 327 326 329 334 336 331 334 338 336 339 337 336 336 336 334 330 327 328 329 324 322 322 323 325 323 320 317 316 319 324 331 332 329 329
311 313 317 317 313 315 315 316 317 317 320 320 321 321 332 338 338 337 336 326 327 328 330 332 334 338 336 336 336 336 334 330 327 328 326 323 322 320 318 318 317 317 318 321 324 329 331 328 329
311 315 319 311 311 314 316 318 317 318 320 320 320 321 330 336 335 333 326 325 325 324 326 331 330 334 337 334 334 335 336 334 329 327 328 323 321 319 317 317 320 320 320 322 330 330 327 328 328
312 318 319 315 317 316 316 318 319 318 319 320 320 326 331 333 333 327 321 323 322 321 323 324 329 330 334 336 335 333 334 336 332 327 328 324 322 320 318 317 322 326 329 330 330 325 328 328 328
316 317 314 315 315 315 317 318 319 318 319 320 322 323 333 334 330 324 327 327 323 322 325 326 329 329 330 334 336 334 333 335 334 329 329 328 327 327 326 322 326 329 330 331 328 329 328 327 327
316 315 314 315 316 317 316 319 319 320 321 321 321 330 335 334 328 329 324 324 323 326 327 326 330 333 334 333 334 334 333 333 334 332 330 331 331 328 331 328 329 329 330 331 328 328 327 326 325
313 311 314 314 315 317 318 320 318 319 320 321 323 326 336 337 331 327 326 323 324 324 327 324 324 330 335 335 335 333 333 334 334 333 331 331 329 327 328 331 329 329 328 329 327 327 326 326 326
316 311 316 313 316 316 318 319 321 320 321 323 323 330 335 335 332 329 329 327 324 324 324 322 322 327 333 336 334 333 333 334 333 332 330 327 329 327 327 329 331 330 328 327 327 327 326 327 327
316 312 312 315 315 316 317 317 321 321 322 323 322 324 322 327 332 332 331 326 324 327 326 325 323 327 336 336 335 332 331 332 331 329 327 326 325 326 325 329 330 332 329 323 327 326 325 327 325
313 310 314 314 314 315 317 317 319 319 320 320 321 321 321 326 330 331 329 325 329 331 331 330 325 328 333 333 335 334 331 330 329 325 325 326 325 325 330 329 324 326 326 319 326 323 325 324 323
313 316 314 315 316 316 316 316 318 317 317 320 321 323 326 329 330 330 326 328 330 332 332 331 326 328 332 332 332 331 330 329 325 326 326 326 326 325 328 327 323 325 327 318 320 318 325 321 322
314 314 314 315 316 316 314 317 316 317 318 319 319 322 327 330 329 327 327 329 330 332 332 330 326 326 330 331 330 330 329 327 326 327 326 329 327 329 327 326 324 324 328 315 316 314 324 321 321
314 315 316 316 316 316 317 316 316 316 319 319 319 321 326 327 326 326 329 329 330 333 331 329 322 324 330 329 329 329 329 328 327 329 324 328 325 327 325 324 322 322 326 314 315 315 323 322 320
316 316 316 316 316 316 315 315 315 317 319 319 319 319 321 324 326 328 330 330 331 332 330 327 321 325 327 329 329 329 330 329 329 329 325 325 326 328 326 324 323 326 323 312 313 312 321 319 320
317 316 316 316 316 314 317 316 314 318 319 319 319 319 319 321 324 324 329 329 329 330 330 328 324 325 328 329 329 329 329 329 329 329 329 326 324 328 326 326 325 323 318 314 312 309 315 318 320
317 316 316 317 315 315 316 317 316 319 318 319 319 319 319 318 322 325 327 329 329 330 330 329 326 327 325 327 327 327 328 328 329 329 329 328 328 328 327 326 325 324 318 310 309 307 310 320 320
315 316 316 316 316 315 313 316 315 318 318 317 319 319 319 318 322 325 326 327 328 329 329 329 326 328 327 324 323 325 326 327 327 328 329 329 328 328 327 327 325 323 318 308 307 307 319 320 320
316 316 315 314 316 315 315 315 314 316 317 317 318 318 319 318 322 324 327 328 328 329 330 329 327 329 327 324 322 323 323 325 324 325 328 329 328 328 328 328 325 324 319 307 309 314 319 319 319
315 316 316 316 317 317 317 316 316 316 318 317 316 318 318 318 320 325 327 328 329 330 330 329 328 328 327 323 322 322 322 322 322 323 323 324 329 329 327 328 325 324 309 312 314 312 313 318 319
313 314 316 317 317 318 318 318 317 318 318 317 316 319 319 319 322 325 328 329 330 329 330 330 329 327 326 324 320 322 321 323 321 321 323 323 325 328 327 326 325 323 308 320 318 318 318 318 319
312 313 314 315 317 317 318 318 318 319 318 318 318 321 321 322 322 325 329 329 330 330 330 330 329 326 326 323 323 323 321 320 320 320 321 323 324 325 327 327 325 318 312 318 319 319 319 318 319
314 313 314 315 320 320 319 324 320 319 319 319 317 318 320 321 321 323 329 330 330 330 330 330 328 327 325 321 323 321 322 320 320 320 322 322 324 324 324 326 321 317 313 320 319 320 318 318 318
315 313 314 316 320 320 321 323 321 319 320 320 320 320 321 320 320 324 329 329 329 330 330 329 328 327 324 319 322 322 321 320 320 320 320 321 321 321 321 321 319 317 316 320 319 318 316 317 317
315 315 318 318 321 322 320 322 322 321 320 320 320 320 321 321 319 322 326 330 330 330 330 329 328 326 322 319 324 322 323 321 321 321 321 322 321 322 322 321 321 317 321 318 319 317 317 317 316
317 319 323 323 324 320 320 323 321 320 320 320 320 320 321 320 320 327 329 330 330 330 330 329 328 325 321 318 321 323 322 321 321 321 321 321 322 322 321 321 322 319 321 320 319 317 316 316 316
315 319 325 323 324 322 320 321 320 319 319 320 320 320 321 319 323 328 328 329 330 330 330 330 328 325 321 317 320 323 323 321 321 320 321 321 320 321 321 320 320 319 319 320 318 316 313 313 313
316 319 318 321 322 323 321 322 321 321 321 321 320 320 318 318 327 329 329 330 330 330 330 330 328 325 322 316 319 321 321 320 320 320 320 320 320 319 319 319 318 316 315 315 316 315 313 313 313
315 317 322 321 323 326 324 324 328 326 324 319 318 318 319 324 329 330 330 330 330 330 330 330 328 326 323 317 319 321 321 320 320 321 321 320 320 319 319 318 315 315 314 314 314 314 313 313 314
317 319 317 320 322 325 327 330 325 325 324 322 321 318 321 327 330 330 330 330 330 331 330 329 328 327 325 319 317 320 322 320 320 321 320 320 320 319 318 317 314 314 314 314 313 313 314 313 315
316 318 318 324 322 323 326 325 324 323 322 321 321 319 318 318 324 330 330 331 331 330 330 329 328 327 326 323 317 317 321 321 320 320 321 321 320 320 317 316 315 314 314 316 314 313 313 312 313

GFSSGP_850_thetae_093.txt.gz
Theta_e
313 313 312 315 313 310 314 314 313 315 318 320 321 320 320 326 322 322 321 330 332 332 329 330 335 336 335 334 331 328 328 329 328 324 324 331 334 335 334 332 331 327 323 326 331 328 330 330 333
311 312 315 316 311 313 313 314 316 315 318 321 322 331 331 336 334 324 325 321 324 325 325 326 333 336 335 335 334 331 328 328 328 327 324 327 329 331 330 329 327 324 324 327 330 330 332 329 331
311 313 318 310 309 312 314 316 317 317 318 319 319 321 330 334 333 328 324 320 324 323 322 323 326 332 336 336 335 335 332 328 327 329 325 324 325 326 324 321 319 320 325 330 329 330 330 329 330
312 317 317 313 314 313 314 316 318 317 320 319 320 326 331 331 331 329 321 322 324 325 324 325 327 328 335 335 335 335 336 333 328 327 327 323 323 321 320 318 318 321 326 325 329 328 328 328 328
313 317 313 314 313 314 315 316 317 317 317 319 322 326 332 333 333 324 321 321 322 322 324 326 327 330 332 335 334 334 336 336 333 329 327 324 325 324 322 321 324 324 322 326 330 327 327 327 327
313 314 313 314 314 315 315 318 317 317 318 319 320 331 334 335 333 323 322 323 325 324 325 328 329 332 333 334 335 334 335 336 335 330 328 327 329 327 326 324 323 326 329 330 328 327 328 327 327
311 310 313 313 313 315 316 318 316 317 318 319 323 331 333 335 333 325 326 323 322 323 324 325 327 332 334 334 335 335 335 336 335 333 331 328 329 327 326 325 325 329 329 329 328 328 328 327 327
314 310 314 312 315 315 317 317 318 317 318 321 322 331 335 333 332 331 328 326 326 325 325 325 324 323 329 335 336 335 335 333 333 334 332 330 330 328 326 325 324 331 328 329 329 328 327 326 325
315 310 311 315 314 315 316 315 317 318 319 322 322 323 325 328 334 332 330 328 326 324 323 324 324 323 325 331 336 335 334 334 333 333 333 330 330 329 328 324 325 330 328 328 328 326 326 325 325
312 310 311 313 313 314 314 315 316 316 316 318 320 322 322 326 331 332 330 328 326 323 327 329 329 326 326 330 334 335 333 332 333 333 331 328 328 328 328 326 325 325 328 324 327 326 326 327 326
313 314 312 314 316 315 313 314 315 315 313 317 319 320 323 326 330 331 331 330 326 327 330 330 330 327 327 329 333 332 332 332 330 329 327 325 326 325 326 325 325 326 327 326 326 326 327 327 325
313 311 315 315 316 315 312 316 313 314 316 317 318 319 321 325 329 328 329 329 325 329 330 331 329 324 326 330 332 333 332 330 329 327 326 326 326 326 325 325 325 328 325 327 327 326 326 325 324
313 314 315 315 316 315 316 313 313 315 317 318 317 318 319 322 325 327 328 328 327 330 331 330 327 321 324 329 329 331 330 329 327 326 327 327 327 326 328 325 324 326 325 325 327 325 323 322 323
314 315 315 316 316 315 314 314 314 316 317 317 317 317 319 321 322 327 329 327 328 330 331 330 326 320 322 328 328 328 329 328 327 326 327 325 326 326 325 327 325 322 327 322 326 323 322 322 321
315 315 314 313 315 313 316 314 312 316 317 317 318 317 318 321 325 325 325 326 328 329 330 329 327 321 319 326 327 328 327 328 329 328 328 326 325 324 322 323 325 323 327 319 318 324 321 321 320
316 315 316 315 314 315 314 317 315 317 318 317 318 318 317 317 320 322 325 324 328 329 330 329 328 324 321 325 328 328 328 328 328 329 329 326 324 324 326 325 325 321 326 317 316 322 321 320 320
314 315 315 316 314 315 311 315 314 316 316 315 317 317 318 318 317 321 324 323 326 328 330 329 329 326 324 324 326 327 325 326 327 327 328 328 326 325 327 326 324 323 326 317 317 319 322 320 319
315 315 314 315 315 315 315 315 313 315 315 316 317 318 317 318 318 318 322 324 326 329 330 329 329 327 326 326 325 324 323 324 326 327 329 328 328 326 327 327 325 325 324 316 315 313 321 320 320
315 314 315 314 315 317 317 315 315 314 316 315 316 317 317 319 320 318 321 324 326 329 330 330 329 328 327 327 325 323 322 322 323 325 326 328 326 328 327 328 326 326 324 317 314 312 316 318 320
311 312 312 314 315 315 315 315 315 315 315 316 317 317 318 318 316 317 321 325 326 328 329 329 329 328 328 327 324 322 321 321 322 322 323 324 326 327 327 327 327 326 325 315 311 308 313 319 320
307 309 311 313 314 315 316 316 316 317 316 317 318 318 319 317 316 318 322 324 327 329 329 329 329 329 328 326 324 322 320 320 320 321 321 321 322 324 325 327 327 327 325 316 309 308 319 319 319
315 311 312 313 317 315 317 317 316 316 318 317 318 319 320 320 317 319 322 325 326 328 329 329 329 329 328 325 324 319 321 321 321 319 320 320 322 324 323 323 326 326 325 318 309 308 319 318 319
315 314 314 312 317 319 319 319 316 317 318 318 318 319 320 320 319 319 321 323 326 328 329 329 329 329 327 325 324 319 321 321 319 319 320 321 321 322 323 322 326 325 324 316 312 312 315 315 318
315 315 315 317 318 319 316 319 318 317 318 318 319 319 320 320 319 319 320 324 328 329 329 329 329 329 327 325 322 319 321 321 320 319 320 320 321 322 323 325 323 324 325 313 316 317 316 316 317
316 317 314 320 320 319 317 319 318 317 317 318 319 320 320 319 319 318 321 325 328 329 329 329 329 329 327 325 320 319 320 322 321 320 321 321 320 320 321 322 323 322 320 316 316 316 315 317 315
315 317 319 320 321 321 317 318 319 319 318 319 319 319 320 320 320 319 320 324 326 329 329 329 329 329 327 324 319 318 321 321 320 321 321 321 322 321 321 321 321 320 319 318 318 317 319 317 318
315 317 317 321 321 322 320 319 320 323 323 322 321 319 318 319 318 319 321 324 325 328 329 329 329 329 327 324 319 318 322 320 320 320 320 321 321 322 322 322 320 320 319 317 318 320 317 317 317
315 316 320 320 324 326 321 321 326 325 324 322 321 316 316 320 320 322 325 325 325 328 329 329 329 329 327 324 319 318 321 321 321 320 320 320 320 321 322 322 321 322 319 319 320 318 317 317 316
315 317 316 318 321 325 325 326 326 324 322 322 321 320 318 318 327 327 327 326 327 327 329 329 329 329 327 324 321 317 319 320 320 320 320 320 320 320 320 320 321 320 320 319 318 318 319 317 316
315 316 318 320 323 321 324 320 323 322 321 319 320 320 319 321 327 328 328 327 327 328 329 330 329 329 328 325 323 318 318 319 319 320 320 320 320 320 320 319 320 319 318 316 316 315 315 316 314

GFSSGP_850_thetae_096.txt.gz
Theta_e
317 312 312 315 312 310 313 313 312 315 316 318 320 320 319 323 326 320 327 328 323 325 324 330 334 333 332 331 328 327 326 326 325 325 327 333 336 336 334 329 328 326 324 325 329 329 331 332 334
315 312 314 315 310 312 310 312 315 314 317 319 322 328 328 331 328 321 324 321 320 321 323 325 331 334 333 332 330 327 327 327 326 325 327 334 336 337 334 331 329 327 324 325 329 331 333 331 333
311 312 316 309 307 310 311 314 314 316 317 318 318 323 327 331 329 321 323 320 319 321 323 324 330 334 335 334 333 330 327 327 328 326 328 331 333 334 333 331 331 328 324 330 330 330 331 331 333
312 315 314 311 311 311 312 315 316 316 319 318 318 322 328 331 330 325 323 319 319 321 322 324 327 333 335 335 335 334 331 328 327 328 327 331 334 333 332 331 329 326 328 328 329 330 330 329 330
313 316 311 313 311 312 312 314 317 316 317 318 319 323 329 332 330 329 321 320 321 322 322 324 326 330 335 336 335 335 335 331 328 327 327 328 330 332 329 328 326 327 327 328 326 328 329 329 329
313 313 312 311 310 313 313 316 317 317 317 318 318 325 329 331 331 327 322 321 322 320 321 324 326 330 332 335 335 336 335 334 332 333 328 328 328 325 325 320 326 328 327 327 327 328 328 328 327
308 309 312 312 312 314 314 317 315 315 315 316 320 326 328 330 331 327 323 323 322 322 323 325 327 328 331 334 335 336 336 336 335 332 330 328 330 327 325 326 325 325 327 327 328 328 327 328 328
313 309 312 311 314 312 315 317 317 316 317 320 323 326 328 325 328 330 325 325 323 323 325 323 325 327 330 334 335 335 335 336 336 334 332 329 328 327 326 326 325 324 327 331 329 326 327 328 328
313 309 310 313 312 313 315 314 315 316 317 317 319 323 324 324 328 330 328 326 325 324 325 323 323 323 323 327 335 335 335 335 333 333 333 331 328 327 328 326 325 325 326 327 328 325 328 328 327
310 308 309 311 311 313 314 314 315 315 314 316 317 319 325 327 328 328 328 327 325 325 324 324 326 326 326 325 328 334 336 335 333 333 334 331 330 329 329 329 327 326 327 325 327 328 328 327 325
313 312 310 312 313 314 313 313 315 314 313 316 316 317 318 325 331 331 328 328 325 326 324 326 328 328 327 327 327 332 332 334 333 332 331 331 331 330 328 327 324 325 328 327 328 327 327 326 324
313 311 313 313 314 314 313 315 312 314 315 316 317 316 316 323 328 326 327 328 327 327 324 328 329 329 326 327 327 330 331 331 333 333 332 331 328 326 326 328 326 325 326 329 327 327 326 326 324
312 313 314 314 314 314 315 312 313 313 316 316 317 317 317 317 324 324 325 328 329 328 326 329 330 329 324 326 326 330 330 331 332 330 328 326 325 326 326 326 326 326 326 328 326 327 326 326 326
311 313 313 315 315 315 314 314 314 315 316 317 317 317 317 317 318 324 325 326 329 328 326 330 330 328 323 323 323 327 331 331 329 328 326 326 326 326 327 326 325 326 326 326 326 327 326 326 325
312 311 310 311 313 312 314 312 311 315 317 317 317 317 317 317 318 322 320 321 324 326 327 330 330 326 323 322 324 325 327 328 328 327 326 327 325 325 325 327 326 326 325 324 326 326 326 324 323
315 314 314 313 312 314 314 316 314 317 316 315 315 316 316 317 317 320 322 322 324 326 326 329 330 327 323 323 325 325 326 326 327 328 328 327 324 323 323 322 324 326 324 324 326 326 325 322 322
312 313 314 314 312 314 311 315 314 315 315 314 315 316 317 317 317 317 319 322 323 325 325 329 330 328 324 323 326 326 327 326 326 327 328 328 325 324 322 321 322 324 323 326 326 326 324 321 321
312 314 312 313 313 313 312 313 312 316 314 314 316 317 317 317 318 319 318 318 321 325 326 329 330 328 326 324 326 326 327 325 324 325 326 328 327 326 325 323 324 325 322 325 324 324 323 321 320
312 314 314 313 313 316 315 314 313 313 314 313 315 317 318 318 319 319 320 318 318 325 326 328 330 329 327 326 325 325 325 325 324 324 325 326 326 327 326 325 326 325 323 324 321 321 321 320 320
308 309 310 310 312 314 313 314 313 312 313 314 315 316 317 318 319 319 319 317 318 322 325 327 330 329 328 327 325 325 324 322 322 322 323 324 327 325 327 327 326 326 324 326 320 319 321 319 319
306 306 307 309 311 312 313 311 311 313 314 315 315 317 317 318 319 319 320 317 317 320 323 327 329 329 329 327 326 325 323 322 322 321 322 323 324 326 326 326 326 327 325 326 321 319 319 319 319
312 309 310 312 312 312 315 314 312 312 313 313 314 316 317 318 318 319 320 317 317 320 324 328 329 329 329 328 327 325 323 321 320 321 320 320 323 324 323 326 326 327 325 325 324 318 317 319 319
314 314 314 314 312 318 317 315 313 312 314 314 314 316 317 318 319 320 319 319 318 323 325 328 329 329 329 328 328 324 323 320 320 320 319 320 320 321 322 323 324 326 325 325 324 318 313 313 317
314 314 314 315 316 316 314 315 313 311 312 314 315 316 317 318 319 320 319 319 320 323 328 329 329 329 329 329 327 324 322 319 321 320 319 320 322 320 322 323 322 325 323 324 324 318 312 308 316
315 313 310 315 318 315 314 315 314 314 314 316 317 316 317 318 319 320 319 319 320 322 326 329 329 329 329 329 327 324 320 320 321 319 320 321 321 322 321 322 322 323 322 323 322 318 311 312 316
315 313 312 319 320 319 316 318 316 319 320 321 320 318 316 317 317 319 319 319 319 321 325 328 329 329 329 329 327 324 319 320 321 320 319 321 321 321 321 321 322 323 323 323 322 316 311 312 315
314 316 315 319 315 319 318 316 315 321 321 320 319 319 319 319 318 317 319 319 319 321 323 327 329 329 329 329 327 324 318 320 321 320 320 320 321 321 322 321 320 321 322 322 321 316 313 312 314
314 315 318 318 321 320 319 318 320 323 322 320 318 318 319 319 320 323 320 319 321 323 325 327 329 329 329 329 327 324 318 318 320 320 320 320 320 321 321 321 321 321 321 319 317 315 313 316 317
314 314 315 318 319 324 322 319 325 324 321 320 318 317 319 321 322 326 322 323 324 324 325 326 328 329 329 328 327 324 318 317 319 320 320 320 320 320 321 321 321 321 320 318 317 316 316 317 316
313 315 315 320 319 320 322 319 321 322 322 319 318 317 319 322 327 326 326 325 325 325 325 326 327 328 328 328 327 324 319 318 319 320 320 320 319 319 320 320 321 321 321 320 319 317 317 318 319

GFSSGP_850_thetae_099.txt.gz
Theta_e
314 313 312 316 318 318 318 318 315 317 317 316 318 321 326 326 333 328 327 329 323 321 321 325 329 332 332 331 329 330 331 332 334 336 337 337 336 335 328 328 328 326 325 327 331 332 333 332 332
316 312 313 315 317 316 317 316 318 318 317 318 320 326 328 327 326 324 327 320 321 320 320 322 327 332 332 331 329 327 328 327 327 330 333 337 336 332 329 329 328 326 326 327 329 332 332 332 333
316 312 315 317 316 315 316 315 319 318 317 317 319 324 326 329 324 325 323 320 320 320 320 322 327 332 333 332 331 328 327 327 326 326 332 336 335 332 332 330 329 328 327 328 330 329 330 332 334
312 314 313 316 316 316 315 318 317 318 317 317 318 321 326 328 325 323 324 321 321 320 321 323 326 331 333 333 332 330 328 327 328 327 328 334 335 336 333 331 330 329 328 328 329 330 332 332 333
312 314 315 316 315 315 315 315 316 318 318 318 319 322 329 327 328 324 325 321 320 320 321 321 324 328 333 334 334 333 330 328 327 328 327 330 333 334 332 331 332 329 325 327 329 329 331 332 332
313 314 315 313 314 314 315 315 316 317 318 318 318 321 326 326 328 326 324 320 320 321 321 321 324 328 332 335 334 334 334 331 329 328 330 332 331 331 329 326 328 326 327 325 325 329 330 329 329
314 316 315 314 314 314 315 315 316 317 317 317 318 322 323 326 328 329 324 321 322 321 322 322 323 325 330 333 335 335 335 334 332 329 329 329 330 329 328 326 326 324 325 323 323 327 328 329 328
310 315 315 315 314 315 315 315 317 316 317 317 320 323 324 325 327 328 324 322 322 322 323 324 324 324 328 330 331 334 335 336 335 333 332 330 329 329 328 326 322 323 326 324 323 326 326 328 328
312 313 314 314 314 314 315 316 315 315 316 316 317 322 324 325 328 331 326 323 323 322 324 325 326 326 325 331 331 332 335 335 336 336 333 332 329 329 327 323 324 326 325 325 325 323 326 326 328
313 314 313 313 314 315 315 314 315 315 315 316 316 317 317 318 329 332 327 324 324 323 324 325 323 325 324 327 327 331 335 337 338 335 334 333 331 329 327 325 326 325 325 326 325 328 326 325 329
312 314 311 312 313 313 314 314 314 315 316 316 316 316 316 316 324 331 330 326 325 324 324 325 324 325 326 326 326 327 330 333 334 335 334 332 332 330 328 327 326 328 326 327 329 325 326 328 329
314 312 313 313 313 314 314 314 315 315 315 315 316 316 316 317 317 322 329 328 326 326 326 326 325 327 328 327 326 325 329 332 332 333 332 331 331 330 329 328 329 327 327 327 326 325 326 327 327
314 313 313 313 314 313 313 314 314 315 315 315 316 316 317 317 317 317 321 329 330 328 327 326 326 328 329 327 326 326 329 331 331 330 332 330 330 330 330 329 328 326 328 328 326 325 326 327 326
311 312 313 313 314 314 314 315 313 314 315 315 315 316 317 318 318 317 318 321 327 329 328 328 326 329 329 326 324 325 328 331 330 329 330 331 329 328 325 325 325 327 325 326 328 326 326 326 325
310 311 311 310 312 313 313 315 315 315 315 315 316 316 317 317 316 317 317 318 321 326 329 329 326 329 329 325 323 324 327 330 330 331 330 328 326 326 326 325 327 327 327 326 326 326 326 326 325
315 315 316 315 313 313 313 316 316 316 315 315 315 315 316 317 317 317 318 318 320 324 328 330 326 329 330 325 322 323 324 326 330 329 328 327 326 326 324 326 327 326 326 326 326 326 325 325 326
312 316 315 316 314 315 314 316 315 313 314 315 315 316 315 316 316 317 318 317 318 322 326 330 328 329 330 325 322 324 325 326 326 325 326 327 326 325 323 326 326 326 326 325 327 327 325 325 325
311 314 315 316 315 315 316 316 315 315 315 316 316 317 317 317 318 318 318 318 318 318 323 328 329 328 330 325 323 324 326 326 325 325 326 326 328 325 323 322 322 323 326 324 325 325 325 324 323
312 314 315 314 315 315 317 317 317 315 316 316 315 316 316 317 318 318 318 319 319 319 318 326 329 328 330 326 324 324 324 326 326 324 325 326 328 326 324 322 321 322 324 324 324 323 322 318 320
310 311 311 311 312 313 314 314 315 314 315 315 315 316 315 316 317 317 318 318 319 319 319 319 327 328 330 328 326 325 324 325 326 325 324 324 325 326 327 326 323 324 324 323 325 322 323 322 319
308 309 309 310 309 312 313 314 313 313 312 312 313 314 315 316 316 317 318 318 319 319 318 318 322 327 330 329 327 326 325 324 324 323 323 324 325 325 324 327 326 325 325 323 321 324 323 321 321
309 308 308 310 313 314 315 316 314 314 313 314 314 314 315 315 315 316 317 317 318 320 317 318 323 326 329 329 328 327 326 322 321 321 322 322 323 324 326 324 327 325 326 325 322 323 323 322 320
312 313 312 313 315 316 316 315 313 313 314 316 316 316 317 316 315 316 316 316 318 319 317 318 323 327 328 330 328 327 327 324 322 321 321 321 320 322 324 324 325 324 327 325 325 323 321 321 320
314 315 315 316 316 316 315 314 314 315 315 318 320 320 318 316 316 316 317 318 319 319 318 320 322 325 329 330 329 328 327 323 322 320 320 320 319 320 321 323 323 323 325 326 326 324 321 319 320
314 313 315 316 317 315 314 316 316 316 318 321 320 319 320 320 320 317 316 318 319 319 320 322 321 324 329 330 329 328 327 323 321 320 321 320 319 320 319 322 323 322 325 324 324 324 324 322 318
314 313 315 315 319 319 317 319 317 322 321 320 319 319 319 321 321 320 317 317 320 320 323 323 321 326 328 329 329 328 327 323 319 320 320 320 321 321 322 322 323 322 321 321 323 323 322 321 318
315 315 315 315 316 317 316 318 316 322 322 322 320 319 320 322 323 323 320 316 320 321 322 321 322 327 328 329 329 328 326 323 318 320 320 319 320 319 320 320 321 322 322 322 323 322 323 321 318
315 315 317 316 319 320 319 320 321 323 324 322 320 319 320 321 325 324 322 318 316 321 323 323 324 327 328 329 329 328 326 322 318 320 320 320 321 320 320 320 320 322 322 322 322 321 321 319 316
315 316 314 315 317 320 321 321 323 323 323 323 320 318 320 318 323 325 323 320 319 321 324 322 325 329 328 329 328 327 325 321 318 320 320 320 320 321 321 320 321 321 320 320 320 319 319 317 315
313 314 314 316 319 316 319 317 321 321 321 322 320 320 318 316 318 323 324 324 324 325 324 324 324 326 327 328 328 326 325 320 317 319 320 320 320 320 320 320 320 321 320 320 319 318 317 316 315

GFSSGP_850_thetae_102.txt.gz
Theta_e
312 314 313 316 320 320 321 320 322 323 322 321 322 326 327 328 329 328 328 338 332 322 321 323 326 329 331 332 331 330 332 334 336 338 338 337 336 334 331 329 330 337 339 330 334 334 332 332 333
314 313 314 318 319 320 321 321 323 323 322 321 322 324 325 326 328 330 335 327 321 320 320 320 324 329 331 332 330 329 331 334 335 338 339 338 337 334 331 329 329 334 337 334 333 333 333 332 332
314 314 317 318 319 319 320 320 322 322 321 321 324 326 326 326 331 330 335 320 321 320 319 319 321 326 331 332 331 329 329 328 331 337 338 338 337 334 331 329 330 334 333 332 331 333 333 332 332
316 314 315 318 318 319 319 321 322 323 321 320 322 324 327 331 330 331 328 321 321 320 319 319 320 324 330 332 331 330 328 327 327 329 334 337 336 333 331 331 331 331 331 330 329 331 332 332 334
315 316 318 318 318 319 320 320 322 322 321 321 321 323 326 331 334 331 324 321 321 320 319 320 321 324 329 332 332 331 329 328 328 328 331 335 335 333 331 332 330 328 330 329 328 328 329 332 334
316 317 317 318 318 318 318 318 320 321 320 320 321 322 324 330 327 324 324 322 321 320 320 320 321 324 327 331 333 333 332 329 328 328 330 332 333 334 326 330 329 328 327 327 326 326 328 331 333
317 318 317 317 318 317 317 317 319 319 319 321 320 323 324 331 336 329 325 322 320 321 321 321 323 325 329 331 333 334 334 332 331 329 331 332 332 333 331 330 326 326 326 326 326 325 325 328 328
315 317 317 317 317 317 318 317 317 318 320 319 321 323 325 332 339 331 328 321 320 321 321 322 323 325 328 331 333 334 335 334 334 331 330 331 332 333 332 330 327 326 326 325 326 326 323 322 326
315 317 318 318 317 316 317 318 318 318 319 319 320 322 326 317 334 341 337 325 321 322 322 322 323 324 327 330 332 333 335 336 336 334 331 330 330 331 332 329 327 326 326 325 326 325 325 323 324
317 319 318 319 317 316 317 317 318 318 319 319 319 323 324 328 334 340 340 334 331 323 322 322 324 327 326 328 332 334 335 335 337 337 334 333 332 331 330 329 328 325 325 326 325 326 326 325 327
316 318 319 317 315 315 316 316 316 317 317 318 319 319 318 322 328 334 338 336 336 338 330 326 324 325 325 336 325 327 331 333 335 336 335 334 333 332 329 331 326 326 325 325 326 326 326 325 327
317 317 317 317 315 315 316 316 316 316 316 316 316 317 317 317 321 327 331 336 338 338 332 325 325 324 325 336 326 326 324 334 334 333 334 334 333 332 331 329 327 324 325 325 326 327 326 327 328
317 318 316 315 315 315 315 315 316 316 315 315 315 316 316 316 319 322 326 331 335 338 331 326 326 325 326 327 327 324 323 328 331 331 332 333 332 331 331 330 327 326 327 328 327 329 326 329 327
317 317 317 315 315 315 316 317 316 317 316 316 317 317 316 317 318 320 323 327 332 336 337 334 328 326 327 328 330 326 321 328 331 331 330 332 331 330 330 329 329 329 329 328 327 328 326 327 328
314 315 315 315 315 316 315 318 319 318 317 317 317 317 317 316 317 319 322 325 329 333 337 337 329 327 326 329 330 327 331 329 330 330 330 330 331 330 330 330 330 329 327 327 328 327 325 326 327
314 316 318 318 317 315 315 319 320 318 318 318 319 319 318 317 317 318 321 324 326 330 334 337 330 329 326 329 330 330 330 329 328 330 329 330 331 330 329 327 326 326 326 326 326 327 324 327 326
316 319 320 319 318 318 317 319 320 318 317 318 318 318 319 318 318 318 320 323 326 328 332 335 330 329 327 329 330 328 321 323 328 329 330 329 329 328 327 327 325 325 326 327 326 326 325 326 325
317 317 318 319 319 318 319 319 319 318 318 318 319 319 319 319 319 319 320 320 322 327 331 333 329 329 329 328 330 330 322 324 326 325 327 325 327 327 326 326 325 323 326 325 327 325 326 324 325
314 315 316 317 317 317 318 319 319 319 319 319 319 319 319 319 319 319 320 320 321 323 329 331 331 330 330 328 330 326 323 324 326 325 323 325 326 327 327 323 322 324 326 326 326 325 325 322 324
312 313 314 315 314 315 316 316 317 317 318 317 318 319 319 319 319 319 319 320 320 321 321 327 327 329 327 329 330 327 324 325 326 326 324 325 325 326 327 323 322 321 324 326 324 324 325 324 323
312 312 313 314 313 313 314 316 317 317 317 316 316 316 316 317 318 319 319 319 320 321 320 321 325 332 329 330 330 329 326 325 327 326 326 324 325 325 326 324 322 321 323 325 323 322 322 322 321
312 313 312 312 312 315 316 316 316 316 316 316 316 317 317 317 317 317 317 319 320 321 322 324 328 331 330 331 330 329 327 326 325 324 323 326 323 324 325 325 325 322 323 324 325 324 324 320 318
312 312 312 312 314 316 317 318 317 315 316 319 322 322 322 322 321 320 319 318 319 320 324 325 328 331 330 331 329 329 328 328 327 324 322 323 323 323 325 323 324 326 324 325 324 323 323 321 318
314 316 316 317 317 319 317 317 317 318 319 321 323 322 322 323 323 323 320 319 319 319 323 328 328 330 330 329 329 329 328 328 326 323 324 323 323 322 322 323 325 325 323 325 325 324 322 324 324
316 317 319 321 320 319 316 317 317 320 324 323 323 322 323 324 325 325 324 321 320 320 327 329 329 330 328 327 328 329 328 327 326 324 324 324 324 321 321 322 323 323 325 325 324 325 324 322 323
316 315 318 316 318 319 319 320 322 323 323 322 322 322 323 323 325 327 326 324 320 325 329 329 329 329 327 327 328 329 329 328 326 323 323 324 323 320 320 321 322 323 323 323 325 325 324 324 323
316 318 316 319 318 320 317 318 319 322 323 323 322 322 323 322 322 325 328 326 322 327 329 330 329 329 329 327 328 329 328 327 325 323 322 322 320 322 322 321 321 322 323 322 323 322 323 324 324
315 316 318 318 321 321 319 320 322 324 323 323 324 323 322 320 319 323 328 326 322 327 330 329 328 328 329 327 328 329 328 326 324 321 321 320 320 320 321 321 321 323 323 322 321 322 322 323 322
317 317 317 318 319 321 321 324 323 321 320 321 321 321 320 319 315 318 323 327 325 327 329 328 327 327 328 326 328 328 327 325 323 321 320 320 320 321 320 320 321 321 322 321 322 321 322 322 320
315 315 316 319 318 318 319 319 321 317 317 320 320 321 318 315 313 311 317 323 326 327 328 327 325 325 326 325 327 327 326 324 322 320 320 320 320 320 321 320 320 321 321 322 321 321 321 320 319

GFSSGP_850_thetae_105.txt.gz
Theta_e
313 313 318 317 321 322 322 324 324 325 325 324 325 328 328 329 331 333 334 341 344 343 320 322 323 326 328 331 332 332 331 330 332 336 337 336 335 334 331 330 332 339 339 338 335 335 332 332 334
316 320 317 318 321 321 323 324 324 324 325 324 324 326 326 328 328 332 336 341 338 337 321 321 322 325 328 330 331 330 329 332 335 337 338 337 336 335 332 331 337 338 337 335 334 333 333 333 334
319 318 318 320 321 321 323 325 324 325 324 324 325 325 326 327 328 330 335 335 335 337 334 320 320 321 327 330 331 330 329 332 335 337 338 338 337 336 333 331 334 336 335 332 332 332 332 332 332
319 318 317 320 321 322 323 324 323 324 324 324 324 327 326 329 330 330 333 334 336 337 338 320 320 321 326 331 331 330 329 329 330 335 338 338 338 335 333 331 330 331 332 332 331 331 331 332 331
318 318 319 319 319 321 323 322 323 324 324 324 323 325 326 330 330 332 335 336 336 337 339 320 320 322 325 330 332 331 329 328 328 329 334 337 337 335 333 331 331 331 332 331 329 328 327 331 333
318 318 320 320 320 321 322 321 321 323 323 323 323 324 325 329 333 334 336 337 338 340 335 321 320 322 326 330 332 332 330 329 328 328 329 334 335 335 333 332 332 330 328 329 328 326 326 325 330
319 320 319 320 320 321 322 320 321 322 323 323 322 324 324 328 332 334 337 339 342 336 323 321 321 322 324 328 332 333 332 330 329 328 329 332 332 333 333 331 330 329 329 327 326 327 326 326 328
318 320 320 320 320 320 321 320 319 319 321 322 322 323 325 333 335 340 338 340 343 337 322 322 321 322 323 325 330 332 333 333 332 330 329 331 332 333 334 331 330 328 328 326 326 327 327 327 328
318 320 320 320 320 321 320 320 319 319 319 320 322 323 329 328 333 340 338 340 342 343 337 329 330 326 323 325 326 331 333 334 334 332 331 331 332 332 333 333 332 329 328 326 327 326 328 327 326
321 322 321 321 322 321 319 319 320 320 320 321 321 322 324 327 331 338 338 339 340 342 343 342 342 343 339 328 331 328 330 333 335 335 333 331 334 333 333 333 332 330 327 326 325 326 327 326 326
319 323 323 323 321 320 320 319 319 319 320 320 320 321 323 323 326 332 336 337 337 338 341 342 343 343 342 340 341 339 338 337 338 335 336 334 334 334 333 333 332 330 328 327 326 326 326 326 326
321 321 321 321 322 320 319 319 319 319 319 319 318 320 320 320 321 325 330 334 336 337 340 341 342 343 342 340 340 328 335 336 336 334 334 335 335 334 334 334 332 331 329 329 328 326 326 326 325
321 321 320 320 320 320 318 319 319 319 318 318 318 317 318 319 320 321 324 329 332 335 338 341 341 343 342 340 340 338 336 327 326 334 334 333 334 334 333 332 332 332 331 329 326 326 326 327 325
320 320 321 320 320 319 319 320 318 318 319 319 318 318 317 317 319 320 322 324 327 332 336 341 341 342 341 340 339 336 330 323 321 331 334 331 333 333 333 331 331 329 328 327 326 327 328 327 325
318 320 321 320 320 320 319 320 320 319 319 319 319 319 319 318 318 319 321 323 325 328 332 340 342 341 340 339 339 338 337 334 321 328 331 331 331 333 332 330 331 330 328 326 328 329 328 327 329
318 319 320 320 319 319 318 320 321 320 320 321 320 320 320 320 319 318 320 321 323 325 329 337 341 341 338 339 339 338 336 335 330 330 330 330 330 331 331 331 330 330 329 329 329 328 327 326 327
318 319 319 319 320 320 320 320 320 319 320 320 320 321 321 321 320 319 319 320 322 324 327 334 340 341 338 339 338 338 336 335 333 332 332 329 330 329 331 330 329 329 329 327 326 326 326 326 327
320 319 320 321 322 322 322 322 321 320 320 320 320 320 320 321 320 320 319 319 321 323 327 331 338 341 339 337 338 337 336 333 328 330 330 330 329 329 330 330 328 327 328 325 326 325 327 326 326
319 320 321 320 321 322 322 322 322 321 321 321 320 320 321 321 321 321 321 320 320 322 327 331 336 340 337 329 333 336 335 330 324 322 324 330 330 329 329 329 327 326 325 324 327 326 326 325 326
317 318 318 317 318 319 320 320 319 319 320 320 320 321 321 321 321 321 321 321 321 322 324 330 334 337 337 328 332 336 335 331 326 323 325 325 328 327 328 328 327 324 322 323 326 325 325 326 325
315 315 315 315 316 317 317 317 317 318 318 317 318 319 319 320 320 320 321 321 322 322 323 326 332 334 337 333 335 336 333 330 327 326 325 325 326 327 328 327 327 323 322 323 325 325 325 325 324
314 314 313 313 315 316 316 317 319 319 319 318 318 318 319 319 319 318 319 319 321 321 322 324 328 332 335 336 335 335 334 332 329 328 326 327 328 327 327 326 327 324 321 323 325 324 324 324 323
312 312 312 313 315 315 315 317 318 318 317 320 322 324 324 324 324 324 323 322 319 320 321 323 326 330 334 336 335 335 334 333 331 331 327 326 326 328 327 325 325 325 321 322 324 323 322 323 322
311 313 313 313 314 317 317 318 319 319 320 321 324 323 324 325 325 326 325 324 321 321 320 322 326 329 332 335 334 335 334 332 332 331 328 325 324 328 326 325 325 326 325 322 323 324 323 322 323
312 315 318 319 320 318 317 318 318 322 324 324 324 324 324 325 325 326 327 328 325 322 321 321 327 329 331 334 334 335 333 333 332 330 328 328 325 326 326 324 325 324 325 324 324 324 324 324 323
315 315 316 317 318 317 318 318 319 323 324 323 323 323 323 324 324 324 327 330 328 325 322 321 324 329 330 334 334 334 334 334 332 330 328 327 326 324 324 324 324 324 324 325 324 324 323 323 323
316 316 315 319 321 322 321 320 324 323 323 323 323 323 324 322 321 321 322 324 330 327 323 323 329 330 331 334 333 333 333 332 331 330 327 327 327 325 323 322 323 324 323 323 323 325 324 324 322
316 316 318 319 319 318 316 318 327 323 321 321 321 323 323 321 319 316 316 323 328 327 325 330 332 331 332 332 331 332 332 332 331 329 327 326 324 323 322 322 322 323 324 323 323 324 323 323 323
317 318 319 319 321 324 319 326 322 320 319 319 321 322 321 319 317 312 311 321 326 328 330 332 332 331 330 329 328 330 330 331 330 327 326 324 322 325 323 322 324 323 322 323 323 322 321 322 322
315 316 317 319 320 319 322 323 319 318 317 319 321 320 318 315 312 309 309 316 321 327 331 330 328 330 328 327 327 328 330 329 329 326 325 325 324 324 322 322 322 321 322 322 322 322 322 321 322

GFSSGP_850_thetae_108.txt.gz
Theta_e
312 314 314 320 319 321 321 322 324 325 325 326 326 326 328 329 333 336 339 341 341 333 324 322 322 323 326 328 330 332 333 333 331 333 336 337 336 335 333 330 330 334 337 338 337 337 333 331 332
311 319 321 319 319 319 321 323 323 325 326 325 325 326 327 329 332 334 340 342 341 322 322 321 321 324 327 328 330 331 330 329 331 334 336 337 336 335 334 330 330 336 337 335 335 334 332 332 332
310 320 321 319 319 320 322 323 325 325 325 325 325 325 326 327 328 333 337 338 338 326 322 320 320 321 326 329 330 330 329 330 333 335 336 337 337 335 335 331 333 335 334 331 332 331 331 332 333
315 322 320 318 319 320 321 323 324 324 325 324 325 326 326 331 330 334 334 335 337 340 324 320 320 319 323 328 330 330 329 330 332 334 337 338 337 336 335 333 330 332 333 331 331 330 329 329 330
319 320 319 318 318 320 322 323 323 324 324 324 324 325 327 330 329 334 333 334 336 338 326 321 321 320 321 326 329 330 330 329 329 330 334 338 338 337 335 333 330 330 332 331 330 330 327 327 329
319 320 320 319 319 320 321 321 322 324 324 324 324 324 326 329 331 334 334 336 337 335 324 321 321 320 321 325 328 330 330 329 328 328 329 334 337 337 335 333 330 331 332 331 330 327 325 326 330
322 321 320 319 319 320 322 322 322 322 323 323 323 323 324 331 332 334 336 337 339 337 322 321 321 321 321 324 327 330 331 331 329 328 328 330 333 336 335 333 331 331 331 330 329 327 327 328 326
320 321 320 320 320 319 321 322 322 321 321 322 323 323 325 329 332 334 338 339 341 337 323 321 321 321 321 323 326 329 331 332 331 329 328 329 332 333 335 333 332 330 330 329 328 326 327 327 327
320 322 321 320 320 321 321 322 321 320 320 320 322 322 329 331 337 337 337 340 344 342 326 322 321 321 322 323 325 328 330 332 333 332 329 329 331 332 334 333 332 328 329 329 326 327 327 327 328
322 323 322 322 322 321 321 322 320 320 320 320 321 322 326 329 332 339 338 340 344 345 339 329 328 324 324 323 322 326 328 330 332 333 333 331 331 332 333 334 333 331 329 328 327 327 327 327 328
320 323 323 322 322 322 322 322 320 320 321 321 321 321 321 324 327 333 337 339 341 343 343 343 340 343 340 335 325 325 323 326 329 332 334 333 331 332 333 333 333 333 330 328 327 327 325 326 327
320 321 322 322 322 322 323 323 320 320 320 320 320 320 321 324 323 326 332 336 338 340 342 342 343 343 343 336 337 337 339 337 335 335 336 334 334 333 335 334 334 333 332 330 328 327 326 326 326
319 321 321 321 321 321 321 323 321 321 320 319 319 319 319 320 321 321 324 329 335 337 338 341 342 342 342 342 342 337 334 339 335 335 334 333 334 334 334 334 334 333 332 331 328 328 326 326 326
318 319 321 321 321 321 322 322 321 320 320 320 320 319 319 319 318 319 320 322 328 333 336 338 341 342 343 340 342 340 332 332 329 331 337 334 333 334 334 333 333 332 331 331 329 329 327 326 326
316 318 321 321 321 322 321 322 321 320 320 320 320 320 319 318 319 318 318 320 322 327 332 337 338 341 343 342 340 340 332 329 326 322 334 339 335 332 333 333 332 332 331 331 330 329 326 326 327
317 318 320 321 321 322 321 323 322 320 320 320 320 320 320 320 320 320 319 319 321 324 327 338 337 338 340 341 340 338 337 336 329 327 320 332 332 330 332 333 332 330 331 329 329 327 326 328 328
317 320 320 320 321 321 320 322 321 320 320 321 321 321 321 321 321 321 320 319 320 322 324 335 337 335 336 339 340 339 338 336 334 331 323 327 329 329 328 331 332 331 331 330 329 328 328 329 327
317 318 319 320 320 321 321 321 320 320 320 321 320 321 321 322 321 321 321 320 319 320 322 332 337 335 334 337 340 339 338 336 335 332 328 322 325 329 329 330 331 330 330 330 328 328 327 326 327
316 317 319 319 319 321 321 321 321 322 321 321 321 321 321 321 321 321 321 321 319 319 321 326 338 335 334 337 340 340 338 337 335 333 330 325 322 328 329 329 330 331 329 328 328 327 325 325 326
312 316 318 320 322 321 322 323 322 322 322 322 322 321 321 321 321 321 322 322 320 319 320 325 338 337 334 338 337 339 338 336 334 331 327 323 324 329 328 328 330 328 328 327 325 323 325 326 327
312 314 319 320 320 319 318 320 320 320 320 319 319 320 321 321 321 321 321 321 322 321 321 323 329 339 336 337 337 338 338 337 335 331 326 323 325 328 326 327 328 328 327 324 322 323 326 327 326
311 314 317 317 317 315 317 317 318 319 319 319 318 318 319 319 320 320 319 319 320 323 323 322 323 330 338 337 337 335 337 336 334 331 329 326 323 323 327 327 328 327 327 323 322 324 325 325 325
311 314 316 315 315 314 315 316 318 319 319 319 320 324 324 324 324 324 324 324 323 322 321 323 324 327 334 335 335 333 337 336 333 330 330 327 325 323 327 330 328 326 326 323 322 325 324 325 325
312 313 313 313 313 315 315 316 316 317 318 320 325 324 324 325 326 326 326 327 327 324 323 322 324 324 329 336 333 334 337 335 333 331 331 328 327 325 328 327 327 326 325 325 321 325 323 323 324
311 312 316 318 318 317 315 315 316 321 323 324 324 324 324 324 324 323 324 325 328 330 331 322 322 325 327 334 333 334 337 336 334 332 331 329 324 323 329 327 326 325 326 323 322 323 323 322 323
311 312 318 316 317 317 315 318 317 321 323 323 324 324 323 323 321 321 320 320 322 326 329 329 322 322 326 330 335 334 337 336 333 333 332 330 322 319 322 326 326 327 325 325 324 322 323 324 323
312 314 315 318 320 322 318 323 323 322 323 324 323 323 323 321 319 317 315 315 319 323 328 328 328 322 326 329 334 336 336 335 334 333 332 328 328 325 323 326 326 325 324 323 323 324 323 323 323
315 314 318 318 326 327 322 325 328 324 323 322 324 322 320 318 315 313 311 315 318 323 328 327 325 322 326 329 334 334 336 334 334 332 330 327 328 327 324 322 323 324 324 324 324 323 324 324 323
317 318 318 318 319 325 323 329 321 320 319 323 321 319 317 314 313 310 307 312 314 322 329 331 331 329 330 331 334 335 335 332 333 332 329 327 327 326 323 323 323 324 323 324 323 322 323 323 322
316 318 318 321 318 320 323 323 318 321 321 320 317 314 312 310 309 308 304 307 313 319 325 329 329 332 332 333 333 333 332 331 332 330 328 327 326 322 320 324 325 323 325 324 323 322 321 322 322

GFSSGP_850_thetae_114.txt.gz
Theta_e
310 311 314 318 312 307 310 313 313 314 316 320 323 325 325 331 332 335 339 340 340 333 326 325 325 325 325 326 329 331 333 334 335 334 336 336 335 333 328 326 327 328 329 331 332 334 334 334 334
309 312 317 319 312 310 308 311 314 314 317 319 322 326 327 336 341 339 340 340 335 327 324 323 323 324 324 326 328 331 333 334 334 332 335 336 335 335 331 327 327 331 332 330 332 333 331 331 332
308 315 319 314 309 309 310 312 313 315 318 318 323 324 329 336 341 339 340 335 328 323 322 322 322 323 324 326 327 330 331 331 330 330 334 335 335 335 333 328 328 332 332 331 330 329 328 329 331
309 316 319 316 313 310 312 313 314 315 317 319 322 323 332 335 337 337 329 325 322 322 321 320 320 320 321 324 326 328 328 328 329 331 334 335 336 335 335 330 329 332 332 330 330 329 330 331 331
309 319 315 314 314 311 314 314 315 315 316 318 320 322 332 338 335 329 322 322 322 322 320 319 319 318 320 322 324 326 328 328 330 332 334 336 336 336 336 332 330 333 332 330 330 329 328 330 330
316 316 314 316 314 314 313 315 315 316 317 317 321 327 330 335 335 329 322 322 323 321 319 319 319 318 319 319 322 324 327 328 329 330 333 335 336 336 336 333 330 332 332 330 330 329 327 329 330
314 310 313 313 314 314 315 317 316 317 317 316 321 320 329 338 334 329 324 327 323 321 319 319 319 319 319 319 320 323 324 327 328 328 329 332 334 335 335 334 332 331 332 331 330 329 326 326 329
318 313 316 314 315 315 315 317 317 317 317 320 320 319 332 337 336 333 331 328 325 322 319 320 320 320 320 320 320 321 321 323 328 328 328 329 331 334 334 334 332 330 331 331 330 328 325 326 327
317 314 317 317 318 317 317 316 317 318 318 319 322 322 330 335 336 337 336 334 331 326 321 320 320 320 320 320 320 321 321 321 325 328 329 329 329 330 333 333 333 330 331 331 330 329 327 326 327
313 314 318 317 318 318 318 317 318 318 317 318 325 327 330 333 336 337 336 335 333 331 325 321 320 320 320 320 321 321 320 320 321 325 328 329 329 330 331 333 333 331 331 331 329 329 328 326 326
313 316 318 317 318 319 317 317 318 317 317 319 326 333 332 333 335 334 334 332 329 327 331 323 321 321 321 321 321 321 321 320 319 322 326 329 329 330 331 331 333 332 331 329 330 329 328 328 326
305 310 315 316 317 317 317 318 318 317 318 320 320 331 333 334 334 334 335 335 334 333 330 328 324 322 321 321 321 321 321 321 319 319 323 326 329 330 331 331 332 333 332 330 330 329 328 328 327
306 307 308 310 313 316 317 317 318 318 319 320 320 321 333 336 336 336 336 336 336 336 335 333 328 324 322 321 321 321 322 322 320 319 321 323 326 329 331 331 332 332 332 332 332 331 329 328 327
313 312 310 309 310 310 315 317 318 318 319 319 320 320 320 322 328 335 338 338 337 336 337 336 334 330 326 323 323 323 323 323 321 322 321 320 326 328 331 331 331 332 332 331 332 332 331 330 329
307 311 313 313 313 311 313 313 316 318 319 319 320 321 319 319 319 321 326 333 333 335 335 337 338 335 333 328 326 326 325 326 325 324 324 324 324 325 329 331 331 332 333 332 332 332 332 330 329
304 306 308 311 312 313 312 313 314 317 318 318 320 320 320 319 319 319 319 318 318 319 336 337 338 338 336 334 331 327 328 327 330 326 326 325 324 324 329 331 332 333 333 332 332 331 331 330 328
303 304 306 309 312 312 311 313 314 315 317 318 318 320 320 320 320 320 319 319 319 318 318 327 335 338 337 336 334 332 331 330 330 329 327 326 325 321 326 330 331 332 333 332 332 331 330 330 329
302 305 306 310 311 312 313 314 314 316 318 318 319 319 320 320 320 320 320 320 320 320 319 319 324 330 335 338 338 337 337 337 335 333 328 328 326 323 323 329 331 331 332 333 331 331 331 330 329
303 303 304 307 310 311 313 313 315 314 316 317 317 319 320 320 320 320 320 320 320 320 320 320 320 323 335 340 339 340 338 336 337 336 332 331 329 325 324 327 328 330 332 332 331 331 329 328 327
304 303 303 305 307 309 311 317 316 317 317 316 317 317 318 319 320 320 320 320 320 320 320 320 320 320 327 338 339 339 339 337 336 336 334 333 332 327 323 323 324 326 330 331 329 328 327 327 326
307 305 303 303 304 306 311 316 317 318 318 319 318 318 318 318 319 318 319 319 320 320 320 319 321 320 323 333 340 337 337 336 336 337 336 334 334 331 324 323 324 324 327 329 329 328 327 326 325
311 307 305 304 305 306 316 319 316 314 314 318 317 316 317 319 322 324 324 324 324 325 325 324 329 335 332 334 340 338 337 333 329 330 333 333 334 332 327 323 325 324 327 327 328 328 329 326 325
309 309 306 304 304 313 314 319 315 310 312 316 319 321 319 318 319 319 321 323 323 324 326 327 336 339 339 339 339 337 339 334 331 330 330 333 335 334 330 325 327 327 326 327 327 328 329 329 327
309 310 311 312 314 315 315 317 311 314 318 322 321 317 314 312 313 314 315 318 320 321 323 326 326 331 338 338 335 335 336 335 334 333 333 333 335 335 333 330 327 328 325 326 326 327 326 325 321
310 311 308 312 314 314 313 317 315 321 321 319 315 312 310 308 309 313 316 317 318 319 321 322 324 326 329 336 334 333 332 332 331 333 333 333 335 335 335 332 326 329 327 326 325 326 325 322 321
310 309 309 312 315 315 314 314 314 321 316 313 311 308 307 305 305 307 310 313 316 318 320 321 322 325 328 327 332 333 333 332 332 331 331 331 334 334 334 331 327 330 328 324 325 326 323 322 322
311 311 310 314 316 315 312 319 318 314 313 310 308 305 303 302 302 304 307 309 313 316 318 320 323 327 328 328 327 329 331 334 333 330 330 330 332 334 332 330 328 328 328 325 326 326 324 322 323
313 311 312 312 314 314 318 319 317 314 310 308 307 305 303 301 300 301 303 307 310 313 316 319 320 325 328 329 328 326 325 332 332 332 331 328 329 333 331 329 328 326 326 325 324 325 324 323 323
312 314 314 313 315 316 323 314 308 306 306 304 304 302 301 300 300 300 300 302 304 307 311 316 319 323 327 329 328 327 325 330 332 331 331 330 329 332 331 330 328 326 325 325 323 322 323 322 323
313 315 315 310 317 319 318 311 304 302 303 302 301 301 299 299 299 301 301 300 300 302 307 310 314 320 323 326 330 330 327 330 330 330 330 330 331 332 331 330 324 323 325 324 324 324 323 322 322

GFSSGP_850_thetae_117.txt.gz
Theta_e
310 310 314 317 311 307 309 311 311 312 313 317 317 317 321 329 334 331 337 334 337 333 330 333 333 332 332 333 333 333 334 335 333 335 335 335 333 329 326 326 327 328 330 331 332 333 333 334 334
309 311 314 317 308 307 306 309 311 311 315 316 317 320 324 335 340 339 338 338 337 334 328 328 329 328 328 329 330 331 332 334 334 334 335 335 335 331 327 327 327 328 329 331 332 333 332 332 331
308 313 318 312 308 308 306 309 311 313 315 315 316 320 325 335 339 337 339 338 337 328 325 324 325 326 326 326 328 329 331 333 333 333 335 335 335 333 329 327 329 332 331 330 330 329 329 330 329
308 314 318 315 313 310 309 312 313 313 316 317 317 315 325 335 335 337 338 335 332 325 323 322 323 325 326 325 327 328 330 331 330 329 333 335 335 335 331 328 330 332 332 330 329 327 328 329 330
310 316 312 314 314 312 312 313 314 314 315 316 316 315 326 334 337 337 333 325 325 323 322 322 322 323 324 324 325 327 327 327 327 328 333 335 335 335 333 330 329 332 331 330 329 328 329 330 329
311 315 314 313 311 313 313 315 314 314 315 316 316 318 333 338 337 335 325 325 322 322 321 320 320 320 322 322 324 325 326 326 327 329 332 335 335 335 335 332 330 332 331 330 330 328 328 329 329
312 310 312 313 313 314 313 316 313 314 314 315 317 317 324 337 335 324 324 322 322 321 319 319 319 320 320 322 323 324 325 325 327 329 330 333 335 335 335 334 331 330 332 330 330 328 327 328 329
316 310 313 311 313 313 314 316 316 316 315 317 318 315 330 331 336 326 323 322 321 320 319 319 318 319 319 321 323 323 324 323 325 327 328 330 333 335 335 334 332 330 330 331 329 328 326 328 329
315 313 315 313 314 314 316 316 317 317 316 318 318 319 323 327 336 328 322 322 321 320 320 319 319 319 319 320 321 323 324 324 325 326 327 328 329 332 334 334 333 331 330 331 329 328 326 327 327
311 310 316 314 314 315 317 318 317 317 317 317 318 320 329 334 336 332 330 326 323 320 320 320 319 319 320 320 320 321 322 323 325 325 325 327 328 329 331 333 333 332 330 331 330 329 327 326 326
313 314 314 315 317 317 315 315 317 316 317 318 318 319 331 338 337 332 332 328 324 322 321 320 320 320 320 320 320 320 320 321 323 324 324 325 328 329 330 332 333 332 331 330 331 329 328 327 327
303 307 310 313 314 314 314 316 315 316 317 318 318 320 329 338 337 335 333 331 329 326 323 321 320 320 320 320 320 320 320 320 321 322 324 324 326 328 329 330 331 333 332 331 330 329 329 328 328
303 304 306 307 307 307 308 310 314 315 316 317 318 319 319 328 339 336 334 332 330 329 327 325 322 320 320 320 320 320 321 321 321 321 322 322 323 324 327 329 330 332 332 331 330 329 329 328 328
308 304 305 306 308 310 308 308 309 311 314 316 318 319 319 319 337 339 338 335 332 331 332 331 329 325 322 320 320 320 321 321 321 321 320 321 322 323 325 328 330 331 332 332 332 331 330 330 329
304 302 303 304 306 310 311 309 310 311 312 315 317 318 319 319 325 336 337 335 334 334 334 334 334 334 331 325 322 321 321 321 321 322 320 321 321 322 323 327 329 330 331 332 332 332 332 331 330
302 302 302 304 305 307 310 312 312 313 312 313 315 317 318 319 319 323 330 335 335 336 336 334 336 337 336 333 329 324 322 322 322 322 321 322 322 322 323 326 328 330 331 332 331 331 332 331 331
301 301 302 303 304 306 308 311 311 313 313 313 314 316 317 318 319 318 318 321 329 334 334 335 334 336 337 337 335 331 328 326 325 324 324 324 324 324 322 324 327 330 331 332 333 332 332 331 331
303 301 299 300 303 305 307 309 310 312 313 313 314 314 316 317 319 320 320 319 319 319 319 319 319 321 329 339 338 336 335 334 331 328 328 326 325 325 323 322 326 330 332 332 332 332 332 331 330
304 305 304 303 303 303 303 305 306 308 312 312 314 315 317 318 319 319 320 320 319 319 319 319 319 318 322 336 339 339 337 336 336 334 333 330 328 327 325 323 325 330 331 334 330 331 333 331 329
302 305 305 305 305 304 303 303 306 307 311 313 314 315 315 317 319 317 317 317 317 317 317 317 317 319 319 321 326 337 338 337 337 337 337 336 331 329 327 325 324 328 331 332 329 329 328 328 328
301 301 305 308 307 304 302 302 303 306 311 314 316 317 318 317 317 318 319 319 320 319 320 320 318 318 319 321 325 337 340 340 337 335 336 336 334 332 329 328 324 325 328 334 329 329 327 327 327
304 304 305 309 309 305 308 308 311 312 313 314 313 317 317 317 319 320 321 322 324 325 326 324 321 322 326 332 337 338 333 336 334 332 332 333 335 332 332 330 326 324 326 328 329 331 330 326 326
307 304 307 307 309 304 303 311 309 312 312 317 314 311 309 309 310 313 316 316 320 322 326 330 333 331 334 339 338 336 336 336 336 334 334 333 334 333 333 332 328 324 324 327 328 327 327 328 326
305 309 310 309 307 305 304 310 314 318 319 314 310 306 305 305 305 306 309 312 316 319 322 325 330 336 337 339 340 339 335 337 333 333 334 333 332 333 334 333 330 326 324 324 326 327 326 326 326
307 309 309 305 307 312 310 313 313 315 312 309 307 304 303 302 301 302 304 308 312 316 319 321 323 326 329 336 340 340 338 334 334 329 327 334 332 331 332 333 332 330 327 326 327 329 328 327 328
304 308 311 310 312 313 313 317 317 311 308 307 305 303 301 301 300 300 300 305 308 313 317 319 319 321 324 327 331 337 339 337 334 329 327 334 330 328 330 332 333 333 331 327 329 328 328 328 326
309 308 307 310 312 315 315 318 311 307 306 302 303 303 301 300 299 300 300 301 305 310 314 317 318 321 324 325 327 327 331 335 334 334 333 331 330 329 329 331 334 334 333 329 328 327 324 327 325
311 311 311 309 313 314 317 313 310 307 305 303 302 300 300 299 298 298 299 299 301 306 311 315 318 320 322 324 328 327 327 327 332 332 330 331 332 330 330 330 333 334 332 328 328 326 323 324 326
313 312 312 312 314 317 317 312 307 304 304 301 301 299 298 298 297 297 299 301 301 305 309 312 316 319 321 323 326 328 328 327 325 328 330 328 331 330 329 328 331 331 330 329 328 325 323 322 323
313 312 311 309 313 317 312 308 304 301 301 299 298 297 297 297 296 297 298 300 302 302 303 306 311 314 315 318 322 325 329 329 330 326 326 328 328 329 329 328 329 330 329 328 327 324 323 322 323

GFSSGP_850_thetae_120.txt.gz
Theta_e
312 310 311 314 309 305 307 308 309 312 313 315 315 315 316 322 334 333 334 337 327 329 335 338 337 337 336 335 333 332 332 333 333 334 334 333 329 326 326 327 328 329 330 330 331 332 333 334 334
311 310 313 316 305 304 304 307 310 309 312 314 316 318 322 326 335 336 338 331 333 330 333 336 336 336 335 335 333 332 333 333 332 334 334 334 332 327 326 326 327 329 330 331 332 332 333 332 330
310 310 315 310 304 304 304 306 308 311 313 314 314 317 317 332 337 337 332 332 333 332 332 334 333 334 333 333 333 332 332 333 332 333 334 334 334 329 327 327 328 329 329 331 332 332 331 329 328
308 314 315 312 310 309 306 310 311 311 314 315 315 312 317 322 333 335 334 335 333 332 329 329 329 329 331 331 331 331 332 333 333 332 333 334 334 332 328 328 330 331 330 329 328 328 328 328 329
310 313 307 312 313 311 309 311 312 312 313 314 314 313 316 321 334 334 336 335 332 328 327 326 325 326 328 329 330 330 331 332 332 330 331 334 334 334 331 328 331 332 330 329 328 326 327 329 329
310 314 311 309 309 312 312 314 313 314 314 314 314 314 322 324 336 336 337 331 331 325 325 324 324 325 327 328 328 328 329 330 329 328 330 332 334 335 333 330 330 331 330 329 328 327 328 328 327
308 310 310 311 312 313 313 315 312 313 313 313 315 314 317 319 328 338 338 332 329 325 323 323 323 324 325 326 327 326 327 327 327 328 329 332 334 335 335 332 330 332 331 329 329 327 327 326 326
315 308 312 310 311 311 313 314 316 314 314 316 316 314 317 321 327 337 339 332 326 323 322 322 321 321 323 325 326 325 326 326 327 329 330 331 333 334 335 334 331 330 331 329 329 327 326 325 326
314 312 312 312 313 313 315 315 317 317 318 318 317 317 318 319 321 338 335 331 325 323 322 321 321 321 322 323 324 325 325 326 328 329 330 331 332 333 334 334 333 330 330 330 329 328 326 325 326
310 309 314 311 313 314 315 315 315 316 316 316 318 318 318 322 331 336 333 327 323 322 321 320 320 320 321 322 322 323 324 325 326 327 328 329 330 331 332 333 333 332 330 331 330 328 326 326 326
311 311 312 313 314 314 313 312 314 314 315 316 316 318 317 323 338 340 333 323 322 321 320 319 319 319 320 320 321 320 322 323 323 324 326 328 329 330 331 332 332 332 331 330 331 329 327 326 326
302 304 307 307 307 306 304 307 309 309 311 314 316 316 317 317 320 340 333 324 322 321 320 319 319 319 320 320 320 319 320 320 321 321 323 326 328 329 329 330 331 332 331 331 330 330 329 327 326
306 304 305 305 304 304 306 307 307 308 309 310 311 314 316 317 318 319 335 333 329 322 320 320 320 320 320 320 320 320 320 320 320 319 320 323 326 327 328 329 330 331 331 331 330 330 330 329 328
304 302 302 303 302 303 304 305 309 310 310 310 310 312 314 316 318 318 321 337 336 327 323 321 320 320 320 320 320 320 320 320 320 320 319 320 321 325 326 327 328 330 331 332 331 331 330 329 329
303 302 302 302 302 303 305 306 307 307 309 311 312 311 311 313 316 317 319 326 336 334 330 327 324 322 321 320 320 320 320 320 320 321 320 320 319 321 325 326 327 328 330 330 332 332 331 329 329
302 300 301 302 301 302 303 302 305 309 311 311 312 313 312 312 313 317 318 320 334 338 335 332 331 329 326 324 322 321 320 320 321 321 322 321 321 320 322 324 326 328 330 330 331 332 332 331 330
300 300 300 301 301 301 302 302 304 306 308 309 311 312 312 313 314 315 317 318 326 337 336 333 333 334 334 332 332 330 323 322 321 322 322 322 322 321 321 322 324 328 330 330 331 331 331 332 331
302 300 300 300 302 303 303 302 302 303 303 306 308 309 312 313 313 315 317 318 317 335 335 334 334 335 336 337 336 335 332 327 324 322 322 323 322 323 323 323 323 326 330 330 330 331 332 332 332
301 302 302 302 303 304 304 303 302 304 304 303 307 309 310 313 314 316 316 317 316 316 328 334 336 336 336 338 338 338 337 336 333 328 326 326 324 327 326 325 325 325 328 330 330 330 330 330 330
300 300 300 301 303 304 304 306 303 303 303 303 306 306 310 312 314 315 315 316 318 317 316 320 331 333 330 331 329 334 336 337 337 334 332 330 329 330 327 327 326 323 326 330 331 329 328 328 327
303 302 302 301 301 302 305 307 304 304 303 303 304 309 313 314 316 317 318 318 317 317 317 316 317 317 320 325 329 337 339 339 339 338 336 335 333 332 330 328 328 327 325 328 330 329 328 327 327
304 303 303 303 303 306 306 309 306 304 305 311 308 306 304 306 309 312 313 316 321 321 321 320 318 317 317 323 327 332 334 335 333 336 338 337 336 333 333 330 330 328 327 325 328 329 327 327 327
305 305 305 305 305 307 307 306 303 305 315 310 306 305 303 302 303 306 309 309 318 322 325 326 324 321 321 330 336 329 332 333 332 334 334 336 334 335 336 334 332 331 330 327 325 329 330 326 327
304 305 306 306 307 309 307 305 305 312 313 309 306 303 302 301 301 302 306 309 313 317 320 327 330 332 333 333 334 337 337 336 335 335 334 336 335 333 333 333 332 332 331 329 326 329 327 327 326
305 305 304 305 305 310 308 304 307 307 307 307 305 303 301 300 300 300 302 303 309 312 317 322 323 328 332 332 333 335 337 339 334 335 335 335 335 333 330 330 331 331 332 331 326 327 327 327 325
304 305 306 309 311 313 312 311 310 305 302 300 301 301 300 299 299 298 299 300 302 307 313 317 319 321 324 328 331 333 334 336 338 333 335 335 334 332 328 328 331 330 331 332 329 325 327 326 326
305 306 305 308 309 311 314 310 307 304 302 300 299 299 299 298 298 297 298 299 300 304 309 313 317 320 321 322 324 326 330 333 336 336 336 333 332 330 325 326 330 328 330 332 331 328 327 327 326
307 310 311 308 312 313 315 310 306 303 302 300 299 298 297 297 296 297 297 298 299 301 304 310 315 317 319 322 322 324 325 326 329 334 334 333 333 330 325 329 329 329 331 331 332 330 328 327 326
311 310 311 312 312 314 314 309 304 302 301 299 298 297 296 295 295 295 297 297 299 300 302 306 311 315 317 320 321 323 325 326 326 327 328 332 333 331 330 330 330 330 330 330 332 331 328 327 325
313 310 310 308 309 313 307 305 303 300 299 298 297 296 295 295 295 294 296 298 299 300 302 304 307 311 313 316 318 322 323 323 327 330 330 331 332 331 331 330 330 330 329 329 330 331 328 327 324

GFSSGP_850_thetae_123.txt.gz
Theta_e
313 311 310 313 314 313 312 312 311 313 315 314 314 315 317 320 334 331 334 335 333 327 330 335 337 335 335 334 333 332 332 332 332 332 331 329 328 328 328 328 328 329 330 330 331 332 334 336 335
312 310 313 314 312 311 312 311 313 313 313 313 314 315 319 322 325 324 332 335 328 327 330 334 336 336 336 335 334 333 333 332 331 332 332 330 328 327 327 326 326 328 329 329 331 332 333 333 332
311 311 314 316 310 312 312 309 313 312 312 312 314 315 316 323 331 336 336 337 327 329 330 333 335 336 336 335 334 333 333 332 331 332 333 332 329 327 326 326 326 328 328 329 331 332 332 331 329
309 313 312 314 313 312 310 312 311 313 314 314 313 316 315 318 322 335 336 330 329 330 332 332 335 336 336 335 335 334 333 333 332 333 333 333 332 328 327 327 328 328 328 329 331 331 330 328 328
309 312 312 314 314 313 313 312 313 315 314 314 314 315 314 323 320 330 336 334 331 331 331 333 334 335 335 335 335 334 334 334 332 332 333 334 333 331 328 328 330 330 329 328 327 326 327 327 328
310 313 313 313 311 313 313 313 313 314 315 315 314 314 317 318 321 330 337 337 335 332 331 332 334 334 334 334 334 334 334 334 333 332 332 333 334 333 330 328 330 331 330 329 327 325 326 327 327
309 313 313 313 313 314 315 315 315 316 315 316 315 316 316 320 318 319 338 338 336 333 330 332 333 333 332 332 332 332 332 332 332 331 330 332 334 334 333 330 330 331 330 329 328 326 325 325 324
313 313 313 313 315 316 314 314 314 314 316 315 315 317 318 318 319 319 324 339 335 333 330 330 330 329 330 331 330 331 331 331 330 328 329 332 333 334 334 332 330 332 330 329 328 326 324 324 324
313 316 316 315 315 316 314 316 316 315 316 316 317 317 317 318 320 324 328 339 335 332 330 329 326 326 327 328 328 330 331 330 328 327 329 332 333 334 334 333 332 331 331 329 329 327 326 325 325
313 315 315 315 315 315 315 314 312 314 315 315 317 317 317 319 320 320 334 339 336 330 327 327 325 325 324 325 327 329 329 329 328 328 329 331 333 334 334 334 333 331 331 331 329 328 326 325 326
310 312 312 313 312 306 308 308 310 310 313 315 314 314 314 315 317 326 319 337 337 334 330 326 325 324 323 324 326 327 328 327 328 329 329 330 332 333 334 334 333 333 332 331 330 329 327 325 326
304 304 305 305 304 304 305 305 307 308 309 309 309 310 310 311 312 315 323 319 337 333 328 327 327 324 322 323 325 325 325 326 327 326 327 328 329 330 332 333 333 333 332 331 331 329 328 326 326
307 307 303 303 303 303 303 304 305 305 306 308 309 309 310 311 312 313 318 324 322 335 327 326 326 325 322 322 322 324 322 324 326 325 326 326 326 326 328 330 331 332 332 332 331 330 329 328 327
302 303 303 303 303 303 303 304 303 305 306 308 308 309 309 309 311 311 312 317 318 326 329 325 325 324 323 322 321 322 322 321 322 323 323 324 324 324 325 327 329 331 332 332 332 331 330 330 329
303 304 304 304 303 304 303 304 304 306 304 306 308 310 311 311 312 312 311 312 317 319 328 325 324 324 323 323 322 320 321 320 320 320 321 322 322 323 323 325 326 328 331 332 332 332 331 331 330
303 304 303 303 303 303 303 304 305 304 304 305 305 307 308 310 311 312 313 312 315 317 320 331 326 323 323 321 323 321 321 321 320 320 321 321 321 321 322 323 324 325 328 330 332 332 332 331 330
302 304 304 304 304 304 304 304 304 304 304 305 305 305 305 308 310 311 313 313 314 317 318 322 334 326 322 322 322 323 322 322 321 321 321 322 322 321 322 322 324 326 326 328 331 332 332 332 331
303 303 304 304 304 304 303 304 305 304 304 305 306 305 305 305 307 310 312 313 314 314 316 319 329 335 330 325 324 324 324 324 323 322 321 322 322 323 323 323 323 325 326 327 330 331 332 332 332
303 303 303 303 303 303 303 304 304 304 305 305 306 306 305 305 307 310 310 314 314 315 315 324 333 338 337 334 332 330 330 329 326 325 323 323 323 323 324 323 324 324 325 326 328 330 331 331 331
303 303 304 304 304 304 304 304 304 305 305 307 306 305 305 304 306 312 313 314 314 314 314 321 330 337 338 337 336 336 335 335 335 332 330 327 324 323 324 323 324 324 324 326 327 329 331 331 327
303 304 305 304 304 305 305 305 306 308 307 309 307 306 305 306 307 311 314 314 316 315 315 314 320 331 336 337 338 337 338 338 337 337 335 334 329 327 326 325 327 325 325 324 325 327 331 331 326
305 305 304 304 305 306 305 306 307 309 311 309 306 304 304 303 303 304 308 311 315 318 318 317 315 318 326 334 333 335 332 332 332 331 336 337 335 332 330 328 331 329 328 327 325 324 331 329 327
306 305 305 306 306 307 305 307 307 309 307 308 305 303 302 301 301 301 302 306 309 316 320 322 321 318 316 316 335 340 339 334 332 328 330 333 335 335 334 332 334 333 331 330 328 327 328 329 327
305 305 307 307 307 308 309 309 309 306 305 305 302 301 301 300 300 300 301 305 309 311 317 321 324 323 321 320 323 336 336 337 336 333 333 333 334 335 337 334 332 333 331 331 330 330 328 327 327
305 306 307 308 311 309 309 309 309 305 303 302 301 298 299 299 299 298 300 302 307 310 313 318 323 325 327 328 331 332 336 337 338 336 336 337 335 334 334 335 332 330 329 328 331 331 330 327 327
307 307 305 305 307 306 307 314 308 304 300 299 298 297 296 298 297 297 297 298 302 308 312 315 319 321 325 329 331 332 333 334 333 335 335 335 333 331 332 333 333 329 325 326 326 331 332 329 327
306 307 306 306 306 308 312 309 307 302 300 299 298 297 296 295 295 296 296 296 299 304 308 312 314 315 319 323 325 329 330 331 333 331 332 333 334 333 332 330 332 331 328 326 323 329 333 332 327
309 308 311 309 311 315 314 309 305 301 300 299 298 296 295 294 294 294 295 295 296 299 304 309 312 313 316 320 321 321 324 327 328 329 330 331 332 333 330 331 332 330 327 324 328 330 331 332 329
311 311 310 311 312 314 314 308 302 300 299 298 297 295 294 293 293 292 293 294 295 296 300 304 308 313 315 317 318 318 321 322 323 324 325 326 328 331 333 333 332 329 325 327 328 329 329 331 331
312 312 312 313 312 313 311 305 301 299 298 297 295 294 293 292 292 292 292 293 295 296 298 301 306 310 310 313 315 318 319 321 322 323 324 327 328 327 330 332 333 331 324 326 328 329 329 330 331

GFSSGP_850_thetae_126.txt.gz
Theta_e
314 312 312 316 318 317 317 317 317 318 319 319 318 317 318 320 323 332 335 329 333 341 331 334 335 336 334 333 333 333 333 332 330 330 332 332 332 335 336 335 333 329 329 330 333 334 335 337 336
314 311 315 316 317 319 321 319 317 318 317 316 316 317 319 322 325 329 335 340 336 339 329 334 335 336 334 334 332 332 331 331 330 330 330 330 330 332 331 331 328 329 329 329 331 333 335 336 335
312 311 317 319 320 322 322 317 317 316 315 316 317 317 318 321 324 330 341 336 338 343 332 334 336 336 334 334 333 332 333 332 332 331 331 330 329 329 328 327 327 328 328 329 330 332 334 334 332
315 316 315 319 321 321 317 317 316 317 317 316 316 318 317 318 328 334 338 342 343 344 344 333 336 336 335 335 334 333 333 333 333 332 332 330 328 328 327 326 327 327 328 328 330 331 332 331 329
314 316 322 321 322 321 319 318 317 319 318 318 318 320 319 321 327 331 339 343 343 344 344 333 336 335 335 335 335 334 333 333 333 332 333 332 329 328 327 327 328 328 327 328 329 330 328 328 327
317 317 321 323 323 320 319 319 318 319 320 320 319 319 319 322 324 329 326 342 338 342 338 335 337 336 336 336 335 334 334 334 333 333 333 333 331 328 328 328 330 330 328 328 327 326 326 327 328
316 318 321 322 321 320 320 320 320 320 321 320 318 320 320 320 328 328 333 328 338 334 335 336 337 337 336 336 335 335 334 334 333 333 333 333 333 331 329 328 330 331 329 329 328 325 326 328 327
317 318 319 320 320 320 320 318 318 319 319 318 318 321 321 322 329 330 338 339 340 336 335 337 338 337 337 337 336 335 334 334 334 333 332 333 333 332 331 329 330 331 330 329 328 327 327 327 326
316 318 318 319 319 319 318 319 318 318 318 319 319 319 320 319 319 326 331 340 344 341 340 341 339 337 337 337 337 336 335 334 334 333 332 333 333 333 332 331 331 331 331 329 329 327 327 326 326
314 315 315 317 317 318 317 317 316 316 317 317 317 319 319 317 317 317 319 328 339 345 344 343 340 339 341 342 339 336 335 335 334 333 332 333 337 337 337 335 332 332 332 330 329 328 327 327 331
312 313 314 315 314 312 313 313 314 313 316 315 315 314 314 313 314 315 316 318 326 341 343 343 343 340 338 340 339 337 339 337 335 333 331 334 339 340 338 338 333 333 332 332 330 329 328 332 334
308 308 309 309 308 307 309 308 308 308 309 309 309 309 309 310 312 313 314 316 321 331 341 342 342 341 339 340 339 332 338 332 334 337 333 338 337 339 339 340 339 339 337 338 335 335 335 330 327
309 309 308 307 306 306 306 306 307 307 307 306 307 308 309 310 311 311 312 314 316 322 335 339 341 340 339 337 339 337 339 335 329 327 328 330 337 338 337 339 340 340 338 338 339 338 334 332 332
307 306 306 306 306 306 306 307 306 307 307 307 308 308 308 309 310 312 313 313 314 318 329 339 339 336 333 332 334 334 330 337 328 326 326 328 332 337 338 337 337 337 336 339 339 337 333 335 335
306 307 308 308 306 307 305 306 308 307 307 306 307 306 306 307 307 308 311 313 314 315 321 333 338 336 328 326 327 330 330 328 324 325 326 326 326 327 328 331 335 331 337 336 336 336 333 334 334
308 308 309 307 307 307 305 308 309 306 306 306 306 306 306 307 307 307 308 311 314 315 316 322 335 338 328 326 325 333 333 324 327 323 324 326 326 325 324 328 330 331 333 333 333 332 331 334 334
310 309 308 308 307 307 307 308 308 306 306 307 307 306 306 307 307 307 307 309 312 314 316 319 331 337 336 326 327 331 331 324 323 322 323 322 325 325 322 323 326 328 327 329 331 331 332 333 334
308 307 308 307 308 307 307 307 308 307 307 307 306 306 306 307 308 307 307 307 311 315 316 317 327 338 338 334 331 336 334 323 323 322 322 322 323 324 323 323 323 325 327 327 328 330 331 332 332
306 306 306 307 308 307 307 307 308 308 307 308 309 309 309 309 308 307 307 309 316 316 318 316 323 336 338 338 336 335 335 328 326 324 323 323 323 324 324 324 323 323 324 325 325 328 330 332 332
305 306 307 307 307 307 307 308 309 309 310 312 311 310 310 309 309 309 312 313 314 315 314 316 324 330 338 339 337 333 333 334 333 333 328 323 323 323 324 325 325 324 325 326 327 327 330 332 332
307 307 307 307 307 307 308 308 308 310 311 308 307 306 307 305 305 307 308 310 311 312 313 315 322 334 338 340 339 337 336 337 336 335 333 331 328 327 324 325 328 327 325 325 325 326 327 330 331
307 308 307 307 308 308 308 309 309 311 310 307 304 303 303 302 302 303 305 307 307 307 311 313 319 327 338 339 340 340 339 339 339 338 338 337 334 332 330 327 331 332 326 326 326 327 327 329 330
308 307 307 307 309 309 308 309 310 309 307 305 303 301 300 299 300 300 301 302 303 307 311 313 317 320 329 337 339 339 339 341 341 338 336 335 335 336 334 333 331 329 327 327 328 329 329 330 330
307 308 308 309 309 310 309 311 312 307 305 303 300 299 299 297 298 298 299 299 302 305 308 311 315 317 321 333 336 330 335 339 338 338 339 341 336 333 336 337 334 332 330 329 332 330 330 330 330
308 309 310 310 313 311 309 310 307 304 303 302 300 298 296 296 295 296 297 298 299 301 304 306 313 319 321 326 332 337 335 335 335 336 335 336 337 337 334 338 339 336 334 333 331 330 326 324 329
310 310 309 309 309 311 310 314 308 304 301 300 298 296 295 295 293 293 295 296 297 297 300 304 311 315 321 324 326 329 331 331 333 333 335 336 335 336 336 337 337 335 333 334 332 329 326 324 327
312 310 309 310 311 313 314 311 307 303 301 299 297 296 295 293 293 292 293 293 294 295 296 299 305 310 318 319 323 327 328 328 330 331 331 331 332 334 334 336 336 337 333 332 332 330 328 328 328
310 311 313 313 314 314 316 311 308 303 301 300 297 295 294 292 292 291 291 292 292 294 295 298 302 308 314 314 318 322 324 325 326 326 326 328 328 330 331 333 334 336 335 332 332 329 332 329 328
314 313 311 312 313 315 315 312 303 301 300 298 296 294 292 292 291 290 290 291 292 292 295 297 299 302 306 310 315 315 319 320 321 322 322 322 323 324 327 329 331 331 334 333 334 332 330 327 326
312 313 312 314 315 314 317 310 301 300 298 297 295 293 292 291 290 290 291 290 291 293 294 297 299 302 303 305 310 313 318 319 320 322 322 323 324 326 327 327 327 328 330 334 332 331 328 327 328

GFSSGP_850_thetae_129.txt.gz
Theta_e
316 318 317 317 321 320 322 322 322 321 321 321 321 321 320 319 323 328 333 345 344 342 344 334 336 338 336 333 332 335 339 340 340 340 339 337 337 337 336 336 333 329 330 332 333 333 334 335 335
319 317 318 321 322 324 324 324 322 322 320 318 318 318 320 322 323 328 332 341 344 343 348 336 337 337 335 333 332 333 337 338 339 338 336 334 336 336 337 335 332 329 330 331 333 334 335 337 336
318 318 321 324 324 325 325 323 322 320 318 319 319 319 319 321 324 331 334 340 343 345 349 341 336 337 335 334 332 332 333 333 333 333 334 333 334 335 334 333 330 328 329 330 332 333 334 336 334
318 319 320 324 325 325 324 321 321 321 321 320 320 322 320 320 328 329 335 345 345 346 348 345 337 336 335 334 333 332 332 331 331 331 332 332 332 331 330 329 329 329 329 329 330 332 333 333 332
318 321 325 326 326 326 325 323 323 323 323 322 322 323 323 322 325 331 335 346 346 347 347 347 338 337 335 334 334 333 332 333 332 332 332 332 331 329 328 327 328 329 329 329 330 331 332 331 329
320 321 324 326 326 326 325 322 323 323 323 323 324 323 323 325 328 331 337 344 346 347 348 347 339 337 336 335 334 333 333 333 333 333 333 332 330 328 328 327 328 329 329 329 329 330 329 328 327
318 322 323 323 324 325 325 322 323 323 323 323 321 322 323 323 325 329 336 343 349 348 349 349 339 337 336 336 335 334 334 333 333 333 333 332 331 329 328 328 329 330 330 329 329 327 327 327 328
319 320 320 321 322 322 322 321 321 321 322 321 321 324 324 323 322 321 327 338 346 350 349 348 344 337 337 337 336 336 335 334 334 333 333 333 332 330 329 329 329 331 330 330 329 327 326 328 327
316 318 319 320 320 321 321 320 320 319 319 319 321 321 321 321 321 320 320 322 336 347 349 348 348 345 339 338 337 336 336 335 335 334 333 333 332 331 330 330 330 331 331 330 329 328 328 327 327
315 317 317 318 319 320 319 318 317 316 317 318 318 318 320 319 317 317 318 319 321 331 347 348 346 349 346 345 343 337 336 336 335 335 333 333 337 338 340 335 332 332 331 331 329 329 328 328 330
313 314 316 315 315 315 315 313 313 313 314 314 314 314 313 313 312 313 315 317 319 320 336 348 347 348 348 345 344 343 342 338 337 335 336 334 340 341 340 340 337 334 332 331 330 329 328 328 336
310 311 311 311 310 311 311 310 310 310 311 310 310 310 310 310 312 313 313 315 316 318 325 343 346 347 347 344 343 343 342 342 341 341 339 339 340 340 340 339 338 338 338 337 336 335 334 336 337
311 312 311 311 309 309 309 309 310 310 309 309 309 309 310 311 311 312 313 314 315 316 318 326 343 345 345 344 343 342 341 341 340 340 340 340 340 340 340 339 339 338 340 338 337 337 336 337 337
310 310 310 309 310 310 310 310 309 310 309 309 309 309 309 309 309 309 310 311 313 316 316 319 334 343 344 344 342 341 341 341 339 341 341 338 340 340 340 339 338 339 339 337 336 335 335 337 335
309 310 311 311 310 309 309 309 312 310 309 309 309 309 309 309 309 309 309 310 310 312 315 317 325 340 342 343 342 341 340 340 341 339 336 331 337 339 339 340 339 340 338 337 337 336 335 335 335
311 312 313 312 310 310 309 310 312 310 309 309 309 309 309 309 309 309 309 310 310 310 313 316 318 331 340 342 342 340 340 340 339 339 338 328 328 339 340 340 339 339 339 336 336 337 336 335 335
313 313 313 312 312 311 310 310 311 309 309 309 309 309 309 308 308 309 310 310 310 309 310 313 315 318 335 340 340 340 339 338 338 338 339 333 327 331 339 332 332 337 337 336 335 337 337 336 335
312 311 311 310 311 310 311 311 311 310 309 310 310 312 312 312 312 312 312 311 310 310 313 318 318 318 327 338 338 340 339 338 338 337 338 339 332 326 337 336 339 330 337 336 332 334 332 336 335
309 309 309 310 311 310 310 310 311 310 311 314 313 312 311 310 310 309 310 311 312 314 316 317 319 319 319 338 337 340 338 338 337 334 336 338 338 323 325 332 333 325 328 329 327 330 338 334 334
309 310 311 311 311 310 310 310 311 311 313 311 309 308 307 306 305 305 306 308 310 312 313 315 316 316 319 334 337 338 338 337 334 333 333 325 330 326 322 323 333 327 327 329 329 329 337 331 331
311 311 311 310 310 310 310 310 310 311 312 309 307 305 304 303 302 302 302 303 305 307 309 310 313 317 317 327 337 337 339 337 336 335 335 334 328 329 323 322 329 328 325 328 327 336 336 330 326
311 311 309 309 310 310 310 310 312 313 312 308 305 303 301 300 299 299 299 300 300 302 303 308 308 313 321 326 334 337 337 337 336 336 335 336 336 338 335 326 328 332 330 330 334 332 334 333 330
311 310 310 310 311 312 311 310 314 311 309 306 303 301 299 298 298 297 296 297 298 300 301 305 307 311 318 325 332 336 337 338 336 336 337 338 338 339 338 338 335 335 335 335 334 332 332 332 331
310 311 312 312 313 313 312 312 314 309 305 304 301 300 298 297 297 296 294 295 296 298 299 303 306 312 316 324 331 335 337 336 337 336 337 341 340 338 338 338 337 336 336 336 334 333 331 328 330
311 314 316 314 315 314 311 311 311 306 304 302 300 298 297 296 295 295 293 293 294 296 298 300 303 306 312 318 325 329 333 336 334 331 321 337 336 336 337 340 338 337 337 336 335 334 331 330 330
313 313 315 312 312 313 313 315 313 306 303 301 299 298 296 294 294 293 292 291 292 294 296 298 300 301 307 316 322 321 326 326 327 321 320 334 335 335 334 335 337 336 338 336 336 336 333 333 330
314 314 313 312 313 314 316 311 309 306 303 300 297 296 295 293 292 291 291 291 291 292 294 297 297 299 303 313 320 322 321 325 326 325 329 332 332 333 333 334 334 333 334 335 334 334 336 335 334
312 313 315 313 315 316 315 316 315 305 302 299 298 295 294 293 292 291 290 290 290 291 292 295 296 297 299 310 318 322 322 320 322 325 325 326 328 329 330 330 332 331 332 332 332 333 335 335 334
315 315 314 314 314 317 317 316 304 301 300 299 297 294 293 292 292 291 290 289 290 291 291 293 294 296 298 306 310 314 314 316 315 318 318 319 321 323 324 325 327 331 330 331 330 332 333 334 334
313 314 315 316 315 317 319 314 302 301 299 297 295 294 293 292 291 290 290 289 289 290 292 292 293 295 296 301 307 309 310 309 311 314 318 317 318 320 322 324 326 328 328 329 330 332 331 332 332

GFSSGP_850_thetae_132.txt.gz
Theta_e
318 321 320 320 321 322 321 323 324 322 322 321 321 320 319 319 321 331 339 339 344 347 343 342 332 337 337 333 331 330 333 339 340 340 340 338 336 336 335 334 331 330 331 332 333 334 335 334 335
319 320 320 321 323 323 324 326 322 321 320 319 319 319 320 321 327 329 334 337 342 345 347 344 335 338 337 333 331 330 332 338 340 340 339 337 336 336 335 335 332 329 331 332 333 333 335 336 335
318 320 321 324 324 324 325 323 322 320 320 321 321 321 321 320 327 330 333 342 344 344 349 345 338 339 337 333 332 331 331 334 338 339 337 335 334 334 335 334 332 329 330 331 332 333 334 336 335
320 321 321 324 325 325 326 323 322 323 323 322 322 323 322 324 326 332 335 344 346 346 349 348 340 340 336 334 333 332 332 331 333 334 333 333 333 333 333 332 329 328 330 331 331 333 334 334 333
319 321 324 325 325 326 326 326 324 324 324 323 323 323 324 327 329 331 338 344 346 348 348 348 342 339 336 334 333 332 331 331 331 331 331 331 332 332 331 330 327 328 328 330 331 332 333 332 330
319 321 323 324 325 326 327 325 324 324 324 324 324 324 325 327 326 328 336 336 348 348 348 348 346 339 336 334 333 332 332 332 332 331 331 331 331 331 330 328 327 328 328 329 330 331 332 330 327
318 320 321 323 323 323 325 325 324 323 323 323 322 323 323 324 323 322 323 335 339 348 350 350 348 343 336 335 334 333 332 333 333 332 332 332 332 331 329 328 328 329 329 329 330 330 329 328 327
318 320 321 320 320 321 323 322 322 321 321 322 322 322 324 322 322 321 321 322 342 341 349 348 347 342 337 335 335 334 333 333 333 333 333 332 332 331 329 328 329 330 330 330 329 329 327 326 327
316 317 317 319 319 320 321 321 321 319 319 318 319 321 321 320 321 318 317 318 321 333 345 346 346 344 337 336 336 335 334 334 333 333 333 333 332 331 330 329 329 330 332 331 330 328 327 326 326
314 316 316 317 317 317 318 318 316 315 315 315 315 317 314 314 314 313 313 314 317 320 323 344 345 345 342 337 337 336 335 335 334 333 333 333 332 332 331 330 330 330 333 332 330 329 328 327 325
312 313 315 315 314 313 313 313 312 311 312 312 312 312 311 312 311 311 313 314 315 317 319 333 344 345 345 343 344 340 336 336 335 335 334 333 333 334 334 336 333 332 332 332 331 330 328 327 329
311 312 312 312 311 311 312 311 311 310 311 310 310 310 310 310 311 312 312 312 313 315 316 318 342 344 345 345 345 345 341 337 336 335 335 334 333 336 338 337 337 336 333 332 332 331 329 328 335
312 312 312 312 312 311 311 311 311 311 311 311 310 310 310 310 310 310 310 310 310 311 314 317 318 343 343 343 345 346 345 341 338 337 336 337 336 337 337 338 337 336 336 336 335 335 334 331 333
311 311 311 311 311 311 311 311 310 310 311 311 310 310 310 310 310 310 310 310 310 310 311 313 316 318 336 340 343 344 343 343 342 340 339 337 338 337 338 338 338 336 337 335 335 336 336 334 335
312 311 311 312 312 311 311 310 312 312 311 311 310 310 310 310 310 310 310 310 310 310 311 311 311 315 321 338 340 341 341 342 343 342 342 341 337 338 338 337 338 337 337 337 335 335 336 334 334
311 312 312 313 312 312 311 310 313 311 311 311 310 310 311 311 312 313 313 313 313 313 314 312 311 311 314 333 336 336 340 343 340 342 339 340 341 336 342 340 336 336 336 337 336 335 335 334 333
314 313 314 314 314 313 311 311 312 311 311 311 311 314 313 312 312 310 309 309 311 312 313 314 312 318 319 321 337 337 338 339 341 342 342 336 336 335 339 341 338 337 338 340 337 335 335 334 333
313 312 312 311 311 312 311 311 312 311 311 314 313 311 310 309 308 307 306 306 306 308 312 312 314 315 318 319 322 337 336 339 340 341 341 338 332 332 335 340 339 341 336 337 336 335 336 336 334
310 309 309 310 312 311 311 311 311 311 313 312 310 309 307 306 305 304 303 303 303 304 307 312 313 314 315 316 318 327 334 333 338 341 340 339 336 332 331 339 337 338 338 336 335 335 335 337 333
310 310 311 312 312 312 311 311 311 314 312 309 307 306 305 303 302 301 300 299 299 300 301 306 310 312 312 312 315 321 326 334 335 339 338 339 338 337 330 334 336 334 330 338 338 340 335 333 333
311 312 312 312 311 311 311 311 311 313 309 308 306 304 302 300 299 299 298 297 297 297 299 300 305 309 310 307 310 315 321 334 334 337 339 339 338 334 335 329 338 336 328 328 335 340 337 331 332
311 312 311 311 311 312 312 310 311 314 310 307 304 302 300 298 298 297 296 295 295 296 297 299 302 307 308 309 310 313 318 326 335 336 339 337 337 338 334 334 329 335 331 327 328 332 329 330 331
311 312 311 312 311 312 313 312 314 312 309 306 303 301 299 297 296 296 295 294 293 294 296 298 300 302 307 309 310 314 316 322 334 336 338 337 336 334 335 332 330 335 335 331 330 334 334 331 333
311 311 313 315 314 315 314 312 313 309 305 304 301 300 298 296 295 294 293 292 291 293 296 298 299 300 304 309 311 314 318 323 333 335 338 337 338 337 336 336 335 331 335 334 333 333 336 334 333
312 314 317 318 318 316 313 312 311 306 304 302 300 299 297 295 294 293 292 291 290 292 295 297 298 299 303 307 309 314 320 327 331 334 330 332 336 337 336 338 338 337 336 336 338 337 335 337 333
314 314 315 315 313 315 314 316 310 305 302 301 299 298 296 294 293 292 291 290 290 291 294 295 297 297 300 304 306 314 321 325 329 329 329 324 322 322 323 333 336 335 336 335 336 337 336 335 334
314 314 314 315 314 315 314 311 309 306 303 299 298 296 294 293 292 291 291 290 290 291 293 294 294 297 298 301 303 307 318 324 325 324 322 322 325 319 319 332 334 334 333 334 334 335 334 334 334
312 314 315 315 315 316 315 317 312 305 302 300 298 295 294 293 291 291 290 290 290 291 292 293 293 296 297 299 300 302 315 317 321 323 323 319 322 324 325 329 330 331 333 332 331 331 332 333 334
314 313 313 314 316 317 317 314 304 301 300 299 297 295 293 292 291 290 290 290 290 291 292 292 293 293 296 297 297 300 311 315 316 317 318 317 322 323 325 326 328 328 331 332 330 331 330 330 330
315 315 316 318 316 317 319 312 303 301 299 297 295 294 293 292 291 290 289 289 290 289 290 290 292 292 294 296 296 300 305 308 312 309 317 315 318 318 318 322 322 325 326 328 328 328 328 328 329